GFSGBSN_925_spd_000.txt.gz
Wind_Speed
9 10 11 13 14 13 13 11 8 6 5 5 5 5 6 6 6 8 10 8 7 4 3 3 5 8 3 4 1 11 13 14 15 17 19 4 7 3 4 2 3 4 2 4 1 5 3
8 9 11 13 13 15 13 8 4 4 3 3 3 3 5 7 10 11 10 8 6 5 4 3 9 6 1 6 8 14 13 12 16 17 12 10 3 2 4 3 4 1 1 1 1 3 1
8 9 11 12 14 15 10 5 4 2 1 2 5 7 9 10 11 10 8 7 6 6 5 8 9 5 5 2 11 14 15 11 14 13 4 5 2 5 3 3 5 3 5 6 6 5 2
7 9 11 13 14 13 8 6 3 3 4 4 7 8 9 10 10 10 9 8 7 6 8 7 8 4 2 6 8 12 16 11 9 7 8 6 5 5 5 1 6 6 6 5 6 3 4
6 8 11 12 15 14 8 6 5 5 5 6 7 9 10 11 11 10 10 9 7 8 6 6 4 5 3 6 9 12 15 7 8 12 12 8 8 4 7 4 5 8 1 2 7 5 5
6 8 10 13 15 16 10 7 6 6 7 6 7 9 11 11 9 7 8 8 9 5 5 6 7 5 7 4 5 7 14 7 5 3 6 9 6 5 5 6 1 2 2 2 3 5 7
6 8 9 12 14 17 13 7 6 6 6 7 8 10 10 8 6 6 6 2 5 6 11 4 2 4 3 6 4 9 10 3 5 9 5 6 8 3 3 2 0 0 1 2 3 1 5
5 8 9 11 14 17 16 7 6 5 5 6 7 9 9 10 7 9 7 6 2 2 4 3 2 2 1 3 7 12 10 6 6 4 2 7 4 2 5 5 3 3 2 4 5 3 0
4 7 10 11 13 16 17 9 5 4 3 5 5 6 7 8 9 16 16 7 4 1 5 5 3 2 3 5 5 9 7 3 5 6 5 5 1 4 4 5 6 4 2 2 5 6 1
3 6 9 11 12 15 18 13 5 4 1 4 5 5 4 5 5 6 5 5 4 2 5 8 6 4 4 2 5 6 9 3 7 3 2 4 4 5 6 4 2 4 2 2 4 2 1
2 4 7 10 12 14 16 16 7 4 2 3 5 5 4 2 9 4 3 3 3 3 5 5 6 2 5 7 1 12 8 6 4 4 4 2 3 6 7 3 1 6 4 2 1 2 3
2 4 6 9 11 13 15 17 10 3 3 3 5 7 6 6 6 5 3 2 3 7 1 3 2 4 5 8 6 6 8 8 2 6 7 2 3 3 2 2 2 6 3 5 4 2 3
2 3 6 8 11 13 15 17 13 3 3 4 5 8 6 4 3 3 2 4 5 6 3 2 3 4 5 6 6 7 7 9 5 4 6 6 4 5 3 5 6 9 6 3 5 5 4
3 3 5 8 10 13 14 17 16 4 5 6 7 7 7 6 3 2 3 6 6 3 1 1 3 5 5 4 5 7 3 6 5 5 3 4 5 5 6 1 2 3 4 4 2 1 5
3 3 4 7 10 13 14 16 17 5 6 6 8 9 5 5 3 2 5 5 6 5 1 2 3 5 4 3 4 5 4 2 3 4 3 3 3 5 1 2 1 2 4 2 5 2 3
4 4 4 6 9 12 15 16 18 6 5 4 4 5 5 3 3 4 5 3 1 4 1 2 3 1 2 5 3 4 2 1 2 4 1 1 2 1 4 1 5 6 4 4 4 2 4
5 5 4 6 8 11 14 16 17 11 3 4 3 4 4 2 3 5 4 4 3 2 2 3 3 3 3 2 3 2 1 2 3 3 5 2 2 5 2 5 2 4 3 5 3 3 3
6 5 5 5 7 10 13 15 17 16 2 2 4 3 5 3 4 1 2 2 1 3 6 5 5 3 3 3 3 2 2 3 6 2 3 2 4 3 4 1 1 2 3 4 4 4 2
6 5 6 6 6 9 11 13 16 18 8 3 3 1 3 1 3 2 1 4 4 3 5 3 3 4 4 3 4 3 4 2 5 3 2 0 2 3 8 5 4 3 2 3 5 3 6
8 7 6 6 6 8 11 12 14 17 10 3 3 2 4 4 1 6 5 2 4 4 4 6 3 5 5 5 6 2 2 2 6 4 6 5 2 5 5 7 4 5 4 4 4 3 4
8 7 6 6 6 7 10 11 13 15 11 2 3 1 2 0 4 4 4 2 3 3 3 5 4 4 4 3 3 2 2 5 4 5 4 3 2 4 5 8 7 11 11 8 8 8 6
9 7 6 5 5 5 8 10 12 13 9 5 4 4 3 2 2 4 4 1 4 2 3 2 6 2 4 4 4 2 3 2 5 2 2 3 3 1 4 3 5 8 11 11 9 6 11
11 8 6 5 5 5 6 8 9 11 5 4 2 3 4 4 2 4 2 4 4 5 5 3 8 4 2 5 5 3 5 2 1 2 2 0 3 2 5 4 8 8 5 4 3 6 6
12 9 7 6 5 4 5 6 7 8 5 3 3 4 4 2 3 3 3 2 4 2 7 3 5 5 3 4 4 5 5 5 1 3 4 5 4 2 3 4 2 8 2 7 7 8 10
13 11 8 7 6 5 4 3 5 6 6 2 4 3 3 2 2 3 5 5 3 4 3 3 2 1 6 5 4 6 5 6 3 5 2 4 5 2 3 3 6 9 8 1 4 7 4
16 14 10 8 7 5 4 3 3 3 3 6 8 6 5 6 4 4 4 3 3 2 4 2 3 4 7 3 4 3 2 4 4 5 5 5 5 3 1 3 5 7 3 1 2 6 1
19 17 14 11 9 7 4 2 2 3 2 3 6 4 4 4 2 4 3 5 5 3 3 2 3 3 3 2 2 3 3 2 2 2 3 1 1 6 6 5 8 9 6 1 3 3 3
21 19 16 14 11 9 6 2 1 1 1 2 5 5 3 3 3 4 4 5 3 2 4 3 4 3 3 3 3 3 2 5 2 4 4 4 3 4 2 3 8 3 1 2 7 1 7
25 22 19 16 14 12 9 5 2 0 1 3 3 4 5 5 3 2 2 2 2 7 5 1 3 4 4 4 1 3 3 2 4 3 1 4 7 3 8 7 5 4 6 8 4 6 5

GFSGBSN_925_spd_003.txt.gz
Wind_Speed
7 9 10 12 13 14 14 12 9 8 8 8 7 7 9 9 9 9 11 10 9 7 5 1 4 2 3 4 1 10 6 12 15 16 17 4 5 3 3 3 3 5 1 2 2 4 2
7 9 10 12 14 15 13 8 6 6 5 5 5 5 7 9 10 11 11 10 8 7 3 1 3 5 3 7 5 10 7 11 13 14 9 8 3 1 5 2 4 2 4 3 4 2 3
7 8 10 13 15 15 11 7 4 3 2 1 2 5 9 10 10 10 10 10 9 6 4 2 4 6 6 2 4 7 9 7 9 8 3 4 3 4 1 3 3 2 4 2 10 5 3
6 8 10 13 16 15 10 7 5 3 2 4 5 7 9 10 10 11 11 11 9 7 4 5 7 6 3 6 5 13 12 5 6 6 6 5 10 8 5 1 6 5 5 3 5 7 3
6 8 10 13 16 15 9 7 6 5 6 6 7 8 9 10 11 12 11 10 8 7 7 5 4 3 1 2 5 9 10 2 4 9 11 10 8 5 5 3 3 8 2 4 5 4 5
6 8 10 12 15 16 9 7 6 5 6 6 7 8 10 10 10 10 10 9 7 4 5 5 3 4 6 3 5 7 4 6 7 2 5 9 6 5 5 5 1 1 1 1 3 5 5
5 7 9 12 15 16 11 6 5 5 5 6 7 8 8 6 6 7 7 2 4 5 11 4 2 5 2 4 6 14 7 3 6 9 5 6 9 5 2 1 2 2 2 2 3 2 4
5 7 10 12 15 17 14 6 5 3 4 6 6 8 8 7 10 10 5 6 3 3 5 2 2 2 2 2 6 19 11 5 6 4 2 6 4 1 4 3 2 2 3 1 3 1 1
4 7 9 11 14 17 16 8 4 3 3 5 6 7 7 8 10 10 11 8 4 3 5 5 3 3 2 8 5 9 7 2 6 6 6 5 1 2 2 4 4 1 2 2 3 6 2
3 6 9 11 13 16 17 11 4 4 2 5 5 4 4 5 4 5 4 5 2 3 5 9 6 5 5 2 6 7 8 3 6 3 3 5 3 3 3 3 2 2 2 3 3 1 1
2 4 8 10 12 14 17 14 5 3 2 4 5 4 3 5 10 3 4 2 3 2 5 4 6 3 5 7 1 14 7 7 4 3 2 0 3 4 5 2 1 2 2 1 1 3 2
0 3 6 9 11 13 16 17 7 2 2 5 6 7 6 5 6 6 2 2 1 6 1 2 3 4 6 8 6 7 7 8 2 5 6 2 2 3 2 2 1 4 2 3 2 2 1
1 3 5 8 10 13 16 19 10 3 4 4 7 8 4 3 4 3 2 3 4 5 3 1 3 5 5 5 5 7 6 10 5 3 6 5 3 5 3 4 3 8 3 1 2 3 1
2 1 3 6 9 12 15 19 14 4 6 6 9 9 7 7 4 2 2 5 6 2 2 2 4 3 4 3 4 6 3 5 6 5 3 4 1 4 5 2 2 4 3 2 1 2 4
3 1 3 6 9 12 15 18 17 4 7 9 10 8 5 4 2 2 5 5 6 5 3 5 3 4 2 2 4 4 4 2 3 4 3 3 2 3 4 3 2 2 5 1 5 1 2
2 1 4 6 8 12 15 17 18 7 5 8 5 4 4 2 3 4 5 3 1 4 2 2 3 2 2 3 3 3 2 2 3 5 0 1 2 2 3 1 6 4 4 1 3 3 3
3 0 3 6 8 11 14 17 19 13 3 6 3 3 3 1 3 5 4 3 3 2 1 3 3 3 3 3 3 2 2 4 4 3 5 1 1 2 1 4 1 2 2 5 3 1 1
4 2 1 4 8 11 13 16 18 17 3 5 4 3 4 5 4 1 3 5 2 2 5 4 4 4 3 3 4 3 3 1 4 2 2 2 2 1 2 1 1 1 3 3 2 2 1
6 3 1 3 6 9 12 15 18 19 5 3 3 1 4 2 3 1 1 3 3 2 4 3 3 3 3 3 4 3 3 1 5 2 1 1 2 2 2 2 2 1 2 4 4 2 7
6 4 2 2 4 8 11 13 16 17 10 2 3 2 4 4 1 7 5 2 4 3 4 5 4 4 4 4 5 3 2 1 2 2 6 4 2 4 4 3 2 5 4 5 5 4 6
7 4 2 1 3 6 9 11 13 15 10 2 3 1 1 1 3 4 3 3 4 3 3 3 4 3 5 3 2 2 1 2 2 1 3 2 3 3 4 8 6 10 12 11 12 12 7
8 5 2 1 2 5 8 10 12 13 8 5 4 4 3 2 2 4 4 1 4 3 2 2 6 3 4 5 5 4 3 2 3 1 2 2 2 1 3 5 5 9 12 12 12 12 12
9 6 3 2 0 3 6 8 10 12 6 4 3 3 4 4 2 4 2 5 5 5 4 3 9 5 3 5 4 1 2 3 2 3 2 0 3 1 3 5 9 6 3 4 3 5 4
9 7 4 2 1 2 4 7 9 11 8 3 3 4 4 1 2 3 4 3 5 2 7 3 4 5 2 5 4 4 6 5 3 4 1 4 3 1 2 5 1 2 2 6 7 12 7
11 9 6 3 2 1 2 5 7 8 9 2 4 3 3 2 1 3 6 5 5 4 4 4 3 1 4 5 3 5 4 5 3 7 4 2 4 2 2 3 7 10 6 3 5 6 2
13 10 7 4 3 2 1 3 5 6 6 5 8 5 4 6 4 4 4 3 4 3 3 3 3 4 6 3 3 2 1 3 3 2 4 4 3 2 2 3 5 5 1 2 3 6 3
15 13 10 7 5 4 2 1 3 5 4 3 5 4 4 4 2 4 3 5 5 3 3 1 2 3 3 2 2 2 3 0 2 1 2 1 1 5 5 5 8 8 5 2 1 3 4
17 15 13 10 7 5 3 1 1 3 3 2 5 4 2 3 2 3 5 5 3 2 4 4 3 2 3 3 3 3 2 3 2 2 3 3 3 4 2 4 7 2 2 2 3 2 6
19 17 15 12 10 7 5 3 0 2 1 3 3 5 6 7 3 3 4 5 2 8 5 1 3 4 4 4 2 3 3 2 3 3 0 4 6 2 7 6 3 1 1 3 1 2 2

GFSGBSN_925_spd_006.txt.gz
Wind_Speed
10 10 10 12 13 13 13 12 11 9 9 9 9 10 10 11 10 10 10 10 11 8 4 4 2 2 2 4 5 6 6 8 8 4 6 6 6 4 5 9 12 13 9 8 4 5 3
9 9 10 11 13 13 11 7 6 5 6 7 7 7 7 8 9 11 12 13 9 7 5 2 2 5 4 7 3 6 4 5 6 5 7 4 3 5 6 5 1 5 7 7 3 4 3
9 8 9 11 13 12 7 4 3 2 2 3 4 5 6 8 11 12 13 11 9 8 4 3 4 6 3 5 2 4 0 2 4 5 5 5 4 4 5 9 3 7 10 6 6 3 2
7 7 9 11 13 11 6 4 3 2 3 4 6 6 9 11 12 13 12 11 9 7 4 2 6 4 5 1 2 7 3 1 3 3 6 5 8 7 2 5 4 5 4 6 7 0 2
5 6 8 11 13 12 6 5 5 5 5 7 7 8 9 10 11 11 11 10 8 4 1 4 2 3 6 2 2 6 4 2 4 6 5 5 3 4 5 6 6 2 2 1 6 3 4
4 5 7 10 13 12 6 5 5 6 6 8 8 8 9 9 10 11 10 7 5 3 2 4 3 6 2 5 4 6 2 2 2 2 4 2 2 4 4 3 1 2 3 3 1 6 6
2 4 7 9 13 13 6 4 5 6 7 8 8 8 7 8 9 8 6 3 5 4 9 5 6 5 3 2 5 8 4 1 2 4 3 5 4 6 7 6 3 1 1 2 3 4 7
1 4 6 9 12 13 7 4 4 5 8 8 7 6 4 6 8 8 4 1 4 4 10 7 4 7 4 3 7 14 10 2 1 5 3 4 8 4 4 3 1 1 2 2 2 1 5
0 4 6 8 11 13 9 4 3 4 7 8 7 6 8 10 8 4 4 5 4 2 6 6 3 3 3 10 7 11 9 3 8 8 4 5 6 2 1 6 4 2 2 4 4 4 3
1 3 5 8 10 12 10 5 2 3 6 7 7 5 4 6 5 5 4 3 3 1 3 3 2 5 2 0 5 9 8 3 3 8 7 8 3 2 2 5 7 1 2 8 7 6 4
2 2 4 6 9 11 12 6 1 3 6 8 7 5 5 5 7 3 4 3 4 0 2 1 5 3 6 4 1 12 6 6 6 4 4 4 5 5 5 4 6 5 8 5 4 6 4
3 2 3 6 9 11 13 9 1 4 6 8 8 8 8 6 4 6 4 4 1 3 3 4 2 4 7 11 6 4 6 8 1 7 10 6 2 4 5 3 2 6 3 1 1 2 4
4 2 2 5 8 11 13 11 2 5 7 9 10 9 4 4 4 5 4 2 4 3 1 6 5 4 7 6 7 10 14 12 5 2 3 3 5 2 6 3 4 8 2 2 2 4 1
3 2 2 4 7 11 13 13 4 7 8 10 12 10 6 8 5 4 1 3 4 2 1 3 5 7 4 3 6 6 4 10 13 6 3 3 4 8 9 5 5 6 6 3 2 2 4
3 2 2 4 7 10 13 14 9 7 8 12 13 10 5 4 4 4 3 2 3 4 5 7 8 4 4 4 2 3 9 6 9 10 4 2 3 3 6 5 4 3 4 1 3 1 3
4 3 2 4 6 10 12 14 11 6 10 13 6 5 4 2 4 2 1 2 2 1 2 4 4 1 4 4 2 2 3 4 2 7 4 2 2 1 1 3 7 4 3 1 2 3 4
5 3 2 3 5 9 11 14 13 6 10 10 4 4 2 4 3 1 2 3 3 2 1 2 4 4 5 4 4 3 3 3 3 3 5 4 3 2 3 2 2 3 2 2 1 2 3
6 3 1 2 4 8 10 13 14 6 10 9 3 3 4 6 3 1 4 4 2 4 3 4 4 5 4 3 4 3 3 2 2 3 2 4 1 2 1 2 3 2 1 1 2 2 2
7 4 2 1 3 7 9 12 14 8 9 6 3 3 5 0 3 3 4 4 4 3 3 3 3 2 3 4 4 4 3 3 3 1 2 1 0 2 3 4 3 5 3 2 1 1 8
8 5 3 1 3 5 8 10 12 9 4 5 3 3 2 2 1 9 10 5 5 4 4 6 5 6 7 5 4 6 5 3 1 1 4 1 2 4 5 6 4 6 7 7 8 5 8
8 5 3 1 2 5 7 8 10 10 4 4 2 2 2 4 4 9 5 6 11 5 3 2 4 3 5 4 4 4 3 4 2 3 1 2 3 4 8 11 13 12 14 12 15 15 11
9 6 3 1 2 4 6 8 9 9 4 4 2 3 2 3 5 10 1 7 9 5 2 4 7 7 5 5 2 5 3 3 1 3 1 2 1 4 4 8 10 12 15 15 13 13 13
10 8 4 3 2 3 6 8 9 9 3 3 2 2 1 1 3 3 3 7 9 8 5 3 13 10 8 8 5 6 5 5 3 1 2 1 1 1 4 9 13 6 4 4 3 4 8
11 9 6 3 1 3 5 7 9 9 7 5 3 3 2 3 2 3 7 5 12 3 8 7 5 6 4 10 10 7 9 6 4 4 2 3 2 1 3 5 3 3 5 9 13 13 8
12 10 7 4 3 2 4 6 8 8 7 6 5 1 3 3 2 5 9 9 9 7 8 7 4 4 7 2 2 3 1 2 4 6 3 2 3 2 2 4 15 12 3 2 2 11 4
13 11 8 5 3 2 2 4 6 6 6 8 8 5 3 6 4 5 6 9 6 5 4 3 4 3 2 2 2 2 1 1 3 4 4 4 4 2 2 4 4 3 4 4 4 8 4
13 12 10 7 4 2 1 3 4 5 5 4 5 4 1 3 3 4 3 6 5 4 5 4 5 2 2 2 2 2 2 1 2 2 4 2 2 4 6 6 8 6 5 1 3 3 12
14 13 11 8 6 4 2 1 3 3 3 3 4 4 2 3 3 1 4 5 4 4 5 6 5 2 2 3 3 3 2 3 3 2 3 3 2 4 3 4 6 2 2 2 5 6 2
15 14 12 10 8 6 4 2 2 2 2 4 2 5 7 5 3 2 2 2 2 4 5 5 1 5 4 4 3 3 3 1 1 3 4 4 5 4 7 6 5 8 7 4 1 4 6

GFSGBSN_925_spd_009.txt.gz
Wind_Speed
9 11 13 14 16 18 19 19 19 17 13 13 13 13 12 12 12 12 11 10 11 11 9 8 3 3 1 7 5 3 6 8 2 5 11 8 5 3 4 6 6 10 8 8 8 6 1
8 10 12 14 16 18 18 16 14 11 10 10 10 11 10 10 10 10 9 11 12 11 9 4 1 5 6 5 0 2 6 5 5 3 3 4 1 2 4 5 1 6 8 8 6 6 4
8 10 11 13 15 17 15 12 8 8 7 8 8 9 9 8 9 10 13 14 12 10 5 1 4 3 9 6 1 3 5 6 6 7 2 3 1 5 8 6 4 8 9 8 6 7 4
6 9 10 12 15 16 11 7 5 4 3 4 5 6 8 9 11 13 13 12 11 5 1 1 5 4 1 2 3 3 5 3 3 3 6 6 2 3 5 7 7 11 10 11 8 8 5
6 7 9 11 13 14 8 5 2 1 2 3 5 6 8 10 11 12 12 9 6 2 0 3 2 6 4 2 4 5 3 3 1 3 4 2 3 3 5 11 10 9 11 5 8 3 2
6 6 7 10 11 12 6 2 1 1 2 4 5 6 8 9 9 10 9 6 3 2 2 2 9 8 3 2 3 2 1 2 4 6 6 7 7 9 9 9 7 7 5 9 4 7 7
5 5 7 8 10 11 4 1 1 3 3 5 6 7 8 9 11 10 9 5 5 5 8 6 8 5 7 4 5 4 1 5 8 8 9 5 10 5 10 7 7 5 5 5 6 4 6
4 4 6 6 9 10 5 1 1 3 5 7 6 5 6 7 8 8 4 5 8 6 10 7 8 9 3 2 7 5 5 8 9 8 5 9 7 4 2 2 3 3 4 2 3 2 5
5 4 5 5 7 8 6 1 1 4 6 7 6 6 8 10 10 5 2 4 3 4 6 6 3 5 4 4 5 7 7 3 3 5 4 9 8 2 3 3 7 4 7 6 9 4 8
5 3 3 4 6 8 7 2 2 5 7 7 6 5 7 9 5 7 4 1 2 4 3 5 3 4 1 2 5 7 5 4 0 6 8 7 4 2 2 4 9 6 4 7 8 7 7
6 4 3 3 5 8 7 2 4 6 8 7 6 4 6 3 5 5 4 1 1 3 3 2 5 2 3 3 1 6 6 2 3 6 5 5 2 2 3 5 6 7 7 7 8 9 8
7 5 3 3 4 7 8 2 5 7 9 9 7 6 8 4 2 4 2 0 2 4 3 5 3 6 10 9 6 4 5 6 4 5 9 8 2 5 6 4 3 7 7 6 6 5 5
8 5 3 1 4 6 8 2 6 8 10 10 9 7 2 1 3 3 2 4 4 4 3 7 8 4 8 8 8 8 7 6 1 4 3 7 5 4 6 7 5 9 6 3 3 4 2
8 5 2 1 3 6 8 3 6 9 11 11 11 7 4 4 3 3 4 5 5 3 5 5 8 8 4 6 4 4 4 9 10 6 3 3 7 6 6 6 6 5 7 3 4 2 4
9 6 2 1 3 5 7 5 6 10 12 14 13 6 5 2 3 2 6 6 3 6 7 11 12 8 7 5 2 4 10 8 8 10 4 3 4 5 5 6 6 3 4 3 2 1 3
10 7 3 1 2 4 7 6 5 10 14 17 10 9 5 2 2 5 5 2 2 2 2 13 6 4 6 7 5 3 2 4 3 8 5 3 2 2 3 4 4 8 3 3 1 3 4
11 8 4 1 2 4 7 8 3 12 17 13 10 6 2 4 3 5 5 3 5 5 1 3 3 4 6 5 3 3 3 5 3 4 5 7 3 5 3 2 7 2 1 3 4 4 4
11 8 5 2 1 3 6 9 4 13 16 11 5 5 2 5 6 4 5 6 1 8 3 3 2 4 5 4 3 3 4 5 3 5 4 6 2 2 4 3 3 4 4 4 2 2 3
12 9 5 2 1 3 5 8 6 12 16 8 3 5 2 3 4 3 4 6 2 7 3 4 3 1 4 5 3 6 5 5 4 4 7 6 1 3 5 6 4 4 1 2 1 2 9
12 9 6 3 2 3 4 7 8 5 11 4 3 3 4 5 3 9 9 9 7 2 4 4 6 6 8 6 4 7 7 3 2 5 4 2 1 3 5 9 8 8 9 9 10 7 10
12 9 7 3 1 2 4 7 7 3 7 3 2 2 2 7 6 9 10 10 11 6 3 6 4 4 7 4 6 4 6 6 3 3 2 3 2 5 10 12 11 12 13 13 15 14 13
13 10 7 4 2 2 4 6 7 5 5 3 2 3 3 2 6 9 5 10 13 5 9 7 7 8 5 6 2 6 4 3 2 4 1 2 1 4 4 7 10 14 16 18 16 10 13
14 11 7 5 3 1 3 5 7 6 2 2 2 1 3 2 8 8 7 9 10 10 2 4 11 8 9 9 10 9 7 5 4 2 2 2 1 4 4 11 13 6 3 1 4 7 7
14 12 9 6 4 2 3 5 6 6 4 2 2 2 3 4 7 8 8 9 11 7 8 10 7 8 6 9 10 8 9 5 2 3 2 4 1 2 3 7 3 5 9 13 10 9 9
15 12 9 7 5 3 2 4 5 6 4 4 2 2 3 3 5 5 9 12 9 10 13 11 6 6 9 2 2 2 1 3 1 4 3 1 3 2 2 5 14 10 5 6 8 13 10
16 13 9 7 5 4 2 3 5 6 5 5 4 3 2 6 5 9 10 13 11 8 7 5 5 4 2 2 2 2 2 0 5 6 4 4 2 3 3 3 4 2 7 5 6 9 7
16 14 11 7 5 4 2 2 4 5 5 4 3 3 2 3 3 6 7 10 5 9 6 7 7 3 2 2 1 3 3 2 3 3 4 2 2 5 6 5 8 8 3 5 4 3 7
14 13 11 8 5 4 3 1 2 3 3 5 1 4 3 3 5 2 2 7 4 6 5 8 5 2 2 2 3 3 1 4 3 2 4 6 5 4 3 3 6 4 4 3 8 11 6
14 13 11 8 6 4 3 1 1 2 2 3 1 4 7 2 4 3 3 2 3 4 4 9 0 6 6 3 3 3 2 0 1 3 4 4 6 3 8 6 9 6 8 10 4 5 6

GFSGBSN_925_spd_012.txt.gz
Wind_Speed
9 8 9 11 14 17 20 20 20 19 17 16 15 14 14 14 15 14 13 11 10 11 10 8 8 9 2 6 2 5 7 6 3 6 11 11 13 12 7 6 8 6 4 7 7 5 2
8 7 9 11 14 17 20 19 17 15 13 13 13 13 12 13 13 12 11 11 11 11 9 6 7 6 3 10 3 1 5 10 6 10 9 6 3 5 3 4 1 8 6 8 7 7 4
8 6 8 10 14 17 19 16 14 11 11 11 11 10 11 11 11 12 12 12 11 9 6 4 5 1 7 5 1 3 3 6 6 11 9 6 11 6 3 3 3 5 8 6 6 8 5
8 6 8 10 13 17 17 13 11 9 8 8 7 8 9 11 11 13 12 10 9 6 3 5 3 1 6 0 7 4 5 5 3 4 5 2 5 8 7 7 5 9 9 9 11 8 6
8 6 8 9 13 16 14 10 8 7 6 5 4 4 7 9 10 10 9 8 6 4 4 5 2 6 7 3 7 2 3 8 3 3 1 1 6 4 2 9 9 9 9 9 8 6 2
7 6 7 8 12 14 12 8 6 6 4 2 3 5 7 7 8 9 9 8 6 4 3 3 11 8 5 1 3 1 2 5 4 3 4 5 6 8 11 8 3 11 10 5 3 8 5
6 7 6 7 10 12 11 6 5 4 2 2 4 5 6 7 9 11 10 3 5 4 9 7 12 4 5 6 5 3 3 6 5 7 10 8 8 6 12 9 7 9 8 7 13 6 3
7 6 4 6 8 10 10 5 4 2 2 3 4 4 6 7 8 9 9 6 6 6 6 3 6 6 2 4 5 6 4 6 5 11 2 5 4 8 5 7 5 5 5 4 5 6 5
7 6 4 5 6 9 10 5 3 3 3 3 4 3 6 8 7 7 11 5 5 8 5 4 5 5 2 2 6 3 7 4 8 7 6 13 11 5 4 4 8 4 6 9 8 6 8
7 6 4 4 6 8 10 5 4 4 4 4 4 5 7 9 4 8 3 2 5 7 4 7 6 4 4 0 4 2 5 5 3 3 6 8 4 3 1 5 8 4 6 5 8 7 8
7 6 5 3 5 8 9 6 5 5 5 5 3 3 5 4 12 6 3 4 5 3 4 3 5 2 4 3 6 5 1 7 2 3 4 6 4 4 3 7 6 6 4 6 8 9 10
8 7 5 3 4 8 10 7 5 6 7 6 4 3 6 1 1 4 3 4 3 4 3 5 5 7 6 3 2 4 3 4 3 4 10 8 3 7 6 3 2 6 9 9 8 9 3
9 7 5 3 4 7 9 7 5 8 9 8 6 5 1 4 3 2 2 3 4 3 5 7 9 7 9 6 7 6 5 5 3 4 5 7 6 5 6 9 5 8 8 4 2 3 2
9 7 5 3 3 6 9 7 5 9 10 9 7 4 2 2 1 3 3 5 5 4 4 8 9 10 8 6 5 0 10 9 10 12 6 7 6 5 6 7 7 5 6 2 4 5 3
10 8 5 3 3 5 8 6 5 9 12 12 10 4 3 3 0 3 5 5 3 4 8 7 10 8 5 4 2 5 12 8 8 11 7 4 7 6 6 6 8 6 6 3 1 2 1
11 8 6 4 3 4 6 5 5 10 13 16 8 7 7 4 2 3 4 6 1 5 2 10 9 3 7 7 7 6 3 4 4 8 6 4 4 4 3 3 4 5 2 2 3 2 3
12 10 7 4 3 3 6 5 6 11 16 18 4 5 4 6 2 5 5 4 1 2 6 5 3 4 3 4 3 3 5 6 6 6 5 6 3 4 5 6 8 1 2 2 3 0 2
13 10 7 4 3 3 5 6 7 13 17 11 6 5 6 9 5 6 8 2 1 7 2 2 4 2 3 4 2 4 7 8 4 5 4 4 2 1 8 6 3 2 4 3 0 2 1
14 11 8 5 3 2 4 6 4 15 19 6 5 4 4 5 5 4 4 5 4 7 8 5 2 1 2 5 3 6 8 5 5 7 4 4 1 3 8 5 5 1 3 2 4 2 4
15 11 8 5 2 1 4 6 3 12 18 4 4 3 4 5 7 11 7 7 5 3 4 1 5 4 5 5 3 6 9 4 5 7 3 3 1 1 2 6 8 8 11 10 10 4 6
15 12 9 6 2 1 3 5 5 5 12 6 4 5 7 6 7 6 10 9 10 6 5 6 5 6 6 3 6 5 11 8 4 3 2 3 1 5 7 9 8 10 12 12 13 12 9
16 12 9 6 3 1 3 5 6 1 8 5 4 2 3 3 10 9 5 6 11 8 8 9 5 7 7 6 3 6 5 4 3 4 2 4 2 3 3 5 11 14 15 14 14 14 11
16 13 9 6 3 1 3 5 6 4 5 6 2 2 2 2 4 6 6 9 10 9 2 5 7 8 10 12 12 11 10 8 6 4 3 2 1 2 2 11 10 2 3 7 8 8 9
16 13 10 7 4 1 3 5 6 5 1 3 4 3 3 1 5 9 9 8 8 9 6 7 7 9 9 13 11 11 11 8 5 5 4 4 2 2 2 5 3 4 13 11 9 7 8
16 13 10 7 4 2 3 5 6 6 5 5 2 4 3 2 7 7 8 8 10 5 9 13 9 10 9 3 3 2 2 4 2 4 3 3 4 2 1 3 9 9 4 6 5 11 10
17 14 10 7 4 2 3 4 6 6 6 5 5 4 3 5 3 7 8 12 7 8 7 5 4 5 1 2 2 3 3 2 6 6 7 4 5 1 2 2 3 2 7 5 8 7 9
17 14 11 8 5 3 2 4 5 5 5 6 3 3 2 2 4 4 6 8 8 7 5 7 5 2 2 2 2 3 3 2 5 5 4 3 2 4 4 4 6 9 4 4 3 2 7
17 15 11 8 6 4 3 3 4 4 4 6 2 5 3 2 3 5 3 6 3 7 4 8 4 1 2 3 3 3 1 4 1 4 7 7 6 4 3 3 6 1 1 2 6 9 5
16 14 11 8 6 4 3 2 3 4 3 2 1 5 8 2 3 5 5 6 6 7 4 7 2 7 5 3 2 1 2 2 3 3 7 4 6 4 9 5 7 3 4 2 1 3 3

GFSGBSN_925_spd_015.txt.gz
Wind_Speed
16 14 13 12 12 15 17 19 19 18 17 16 15 13 11 12 12 14 12 13 12 12 10 9 10 8 1 2 8 6 4 7 9 11 15 8 9 5 7 5 3 6 6 8 6 7 7
14 13 13 12 13 15 18 19 17 15 14 13 11 11 11 11 11 13 11 12 12 10 8 7 8 3 1 4 5 3 5 8 10 16 10 17 5 10 2 4 5 6 10 8 5 5 4
13 12 12 11 13 15 18 18 14 13 11 10 8 10 10 10 11 11 11 11 9 7 6 6 4 1 3 11 12 4 6 7 9 10 5 11 11 8 5 5 4 7 6 7 5 8 5
13 12 11 10 12 14 17 15 11 9 8 7 7 8 8 8 10 9 8 7 6 5 5 5 1 2 5 8 5 2 7 11 3 9 12 13 13 6 5 3 4 3 3 4 5 9 6
13 11 10 10 12 13 15 12 8 7 7 5 4 3 5 7 5 6 7 6 5 6 4 1 1 3 6 5 3 3 4 9 3 4 6 7 6 1 4 2 3 2 5 5 5 10 5
13 11 9 9 10 12 13 9 7 6 6 3 1 2 5 6 8 9 8 6 3 1 1 1 7 3 8 3 4 1 1 6 3 2 3 2 1 3 5 4 3 4 5 6 7 2 4
14 10 9 8 8 10 11 8 6 5 4 1 2 3 5 7 8 7 5 1 2 1 5 8 8 4 4 5 5 8 6 6 4 3 4 5 5 4 3 2 3 4 5 10 4 5 2
13 10 8 6 7 8 9 7 4 3 2 2 3 5 6 7 7 8 6 3 2 2 4 15 5 4 2 3 5 5 5 1 2 5 6 3 4 3 4 2 3 4 6 5 4 4 3
13 11 8 5 6 6 8 6 3 2 1 1 2 3 6 7 6 8 11 10 10 10 4 1 0 4 2 4 4 4 5 4 7 6 4 7 2 3 3 8 9 7 5 5 4 6 4
13 11 8 4 5 5 7 5 2 2 3 3 3 2 7 8 4 7 5 5 8 7 4 5 3 3 2 5 3 3 4 3 3 2 9 6 1 4 5 7 6 4 5 5 5 4 3
14 11 8 4 3 5 6 5 2 4 5 5 4 4 6 8 10 3 5 3 6 3 4 5 3 3 3 1 8 0 1 4 4 4 7 3 6 8 8 4 5 2 0 3 3 4 3
15 11 8 5 3 4 6 5 2 5 6 5 3 4 6 2 6 6 8 4 3 5 1 2 5 4 4 4 3 4 2 2 2 9 7 4 5 4 4 4 2 5 4 5 3 2 2
16 12 8 5 2 3 6 4 3 7 7 7 5 6 2 3 2 9 8 3 5 4 5 4 5 7 6 2 6 6 4 6 4 3 3 5 4 3 3 3 1 4 6 3 4 4 3
16 12 8 5 2 3 5 4 3 8 9 9 7 4 2 1 3 6 5 5 1 5 3 6 5 7 6 4 3 2 7 4 8 6 3 5 3 6 7 5 2 5 4 4 1 1 4
16 12 8 5 2 2 5 4 3 9 11 10 8 3 1 2 2 4 5 3 5 4 6 6 5 5 4 1 0 6 6 4 5 7 5 4 3 3 6 3 3 5 5 1 5 1 3
16 12 9 5 2 2 4 5 4 10 13 14 6 4 4 2 1 4 4 4 1 4 4 5 6 6 7 7 5 4 4 5 2 5 3 5 4 3 3 2 5 5 2 5 4 1 2
16 12 9 6 2 1 4 5 4 11 15 16 1 2 6 7 2 4 2 5 4 6 8 5 3 2 2 7 5 4 4 5 7 4 7 5 4 3 2 5 4 4 3 4 2 4 4
16 12 9 6 2 0 4 5 5 12 15 15 2 1 6 8 3 3 2 3 1 3 3 3 4 5 4 5 6 6 4 4 8 6 3 3 4 3 3 2 2 1 3 4 4 3 1
16 12 9 6 3 1 3 4 4 14 20 6 3 3 3 2 3 3 5 3 1 6 4 1 5 6 5 4 5 9 5 5 8 5 1 3 2 3 4 4 5 1 3 5 6 3 4
16 12 9 6 3 1 2 4 2 14 21 1 1 2 2 1 2 5 5 3 2 5 2 4 5 3 4 4 4 4 4 2 4 3 2 3 3 5 5 3 0 2 5 4 6 3 4
16 12 10 7 4 2 2 4 3 9 12 6 1 4 7 3 4 5 5 8 6 2 2 2 1 4 5 3 5 5 5 4 2 1 2 3 3 4 4 5 4 4 6 7 4 5 5
17 13 10 7 4 2 3 4 5 4 11 6 2 2 2 4 4 3 5 5 8 8 6 4 4 5 8 4 1 6 8 5 4 5 3 3 1 2 2 7 7 4 7 7 7 6 4
17 14 11 8 5 3 3 4 5 5 10 4 5 3 5 4 3 3 3 1 2 8 3 3 4 12 14 6 9 6 8 5 6 4 2 3 4 3 2 5 5 4 3 5 3 3 2
17 14 11 9 5 4 4 5 5 5 5 2 3 3 4 2 2 4 6 5 5 6 6 7 9 8 4 6 6 8 11 11 9 7 5 4 3 3 2 4 2 4 3 4 5 4 6
18 14 11 9 6 4 4 5 6 5 5 3 3 3 3 1 2 3 3 3 9 13 9 11 8 6 7 6 4 4 5 7 5 6 5 4 4 3 3 1 6 5 2 3 4 3 7
18 15 12 9 7 5 5 5 7 6 6 7 7 5 4 5 4 6 3 9 6 4 4 4 5 8 7 3 4 4 4 5 4 3 8 7 6 4 2 4 6 5 4 5 2 3 3
18 15 12 10 7 5 5 6 7 7 6 5 6 5 3 3 4 6 2 6 6 5 4 4 1 3 6 3 2 3 3 2 5 7 3 3 3 4 4 3 7 8 4 3 3 6 5
18 15 12 10 7 6 5 6 7 7 6 6 6 7 4 3 3 6 7 4 4 5 5 5 4 4 3 3 3 3 2 4 2 6 7 7 6 4 3 3 7 6 4 7 5 3 6
18 15 12 10 8 6 5 6 6 7 5 5 4 8 8 5 3 5 7 9 6 1 5 4 7 4 5 4 1 3 1 0 2 3 4 2 7 6 9 6 7 6 7 5 5 5 4

GFSGBSN_925_spd_018.txt.gz
Wind_Speed
17 16 16 15 14 14 16 17 17 19 19 17 16 15 12 12 12 13 13 12 11 9 7 7 3 4 1 1 8 6 11 11 12 10 9 6 5 7 6 6 6 6 4 6 6 8 3
17 16 14 14 15 14 15 17 18 18 16 14 13 12 12 11 12 11 13 11 10 8 6 2 2 2 1 3 4 9 12 9 11 13 9 11 7 8 6 5 8 5 7 6 6 5 3
18 16 14 14 14 14 15 17 17 14 12 11 11 11 10 10 11 11 12 9 7 4 3 1 1 2 2 12 7 11 7 8 6 10 4 3 9 2 2 4 5 9 6 3 1 3 2
17 16 14 13 14 14 14 15 14 10 8 8 8 9 8 10 9 8 8 6 5 5 2 1 2 3 6 11 13 12 5 6 1 2 6 9 7 2 5 0 6 5 6 3 3 4 1
18 18 14 14 13 12 13 12 10 7 6 6 6 7 7 7 7 6 7 7 5 3 2 3 3 3 8 12 3 5 2 3 4 3 8 10 6 3 8 5 5 7 2 5 3 7 3
19 18 14 14 12 10 11 10 8 6 4 4 4 3 5 8 9 9 9 6 3 3 4 2 4 2 6 4 5 2 2 4 3 4 7 8 6 5 5 5 2 4 4 2 5 3 2
21 18 15 14 11 9 9 8 5 4 2 1 2 5 7 8 8 8 9 4 2 2 4 7 4 3 4 2 3 2 2 4 3 6 2 6 5 3 4 5 5 4 2 6 3 2 4
22 20 16 14 10 8 7 6 3 2 2 3 4 7 8 9 9 8 6 2 3 1 4 10 9 8 18 1 1 2 1 2 2 3 3 6 2 3 4 6 6 4 8 4 5 6 4
24 20 16 13 11 8 7 5 2 3 4 5 5 7 9 9 8 5 5 8 9 9 1 2 5 4 2 4 2 1 3 1 3 3 2 6 4 1 5 7 8 5 6 3 4 2 4
25 21 16 13 11 8 6 4 3 5 5 5 5 7 9 8 5 1 4 7 6 6 4 3 1 1 3 3 3 2 2 2 4 7 7 5 6 6 5 5 1 2 3 3 3 3 4
27 21 17 13 11 8 6 4 5 6 7 6 6 7 8 10 4 5 6 9 7 2 4 4 1 5 1 2 4 2 1 4 2 3 7 2 4 7 5 0 1 3 1 1 1 3 3
28 21 18 14 11 9 5 4 6 8 8 7 6 6 7 5 4 3 10 9 1 6 2 4 4 5 2 1 2 2 2 6 2 7 7 5 2 3 1 3 1 2 1 6 4 3 3
28 22 18 14 11 9 5 5 7 10 10 9 6 10 9 3 1 6 8 3 5 4 2 4 4 5 4 2 2 4 5 6 4 5 4 5 4 5 4 4 6 7 5 3 4 4 4
28 23 18 15 12 9 5 5 8 12 13 11 10 8 3 2 4 5 3 5 2 4 3 3 5 4 4 4 5 3 3 4 6 5 3 4 3 4 6 2 1 4 4 4 4 2 3
28 23 19 15 12 8 5 5 9 13 14 12 10 5 2 2 2 2 5 3 5 3 2 7 5 5 3 2 6 6 4 2 1 2 5 4 1 2 1 2 2 3 4 4 6 3 3
27 23 19 15 12 8 5 5 10 15 16 14 9 4 2 3 1 4 4 4 2 3 2 5 6 5 4 6 4 4 2 2 1 4 2 3 4 1 2 4 6 6 2 4 4 2 1
27 23 19 15 11 8 5 6 11 16 17 16 5 3 3 5 2 5 3 5 1 3 5 4 1 4 6 7 6 3 2 3 5 4 5 2 4 4 3 3 0 5 3 5 4 3 4
26 23 18 15 11 8 5 6 13 18 18 15 5 2 3 6 3 1 2 4 2 3 5 4 3 4 4 4 5 3 3 2 6 2 3 2 5 3 1 3 1 2 3 4 4 2 2
26 22 18 14 11 8 6 6 15 19 21 9 4 2 3 1 3 2 4 3 2 2 1 1 2 4 3 4 6 3 4 2 7 4 2 3 2 3 6 6 5 4 2 5 6 3 4
25 21 18 14 11 9 7 6 14 20 20 6 3 2 3 3 1 6 2 1 3 3 2 4 3 6 5 4 5 4 3 3 4 3 2 2 3 5 6 4 3 1 2 4 5 3 3
24 21 17 14 12 10 8 6 11 18 23 3 2 4 5 4 3 3 3 5 3 2 2 3 4 3 5 3 3 4 3 2 4 3 2 3 3 2 3 4 2 0 2 2 5 4 5
23 19 16 14 12 10 8 8 10 18 19 4 3 3 2 3 6 5 5 6 8 3 4 0 3 3 5 4 5 7 7 3 4 2 2 3 0 2 1 4 6 3 4 4 4 3 3
22 19 17 14 12 10 9 9 9 20 18 3 3 1 5 3 5 4 4 6 8 8 1 4 10 8 10 3 6 5 4 6 6 6 2 3 4 3 3 4 5 5 5 3 1 3 3
22 19 16 13 12 10 9 10 10 17 15 3 1 3 4 1 3 6 3 3 5 3 7 3 5 6 4 6 2 6 11 11 10 8 4 4 4 3 2 3 1 4 3 4 7 3 8
22 19 16 13 11 10 9 9 9 10 11 7 2 3 3 1 1 2 2 9 8 7 6 5 5 2 7 6 5 5 5 6 4 6 6 4 5 3 3 3 5 2 5 5 5 5 7
22 19 16 13 11 10 9 9 10 9 9 9 8 6 5 5 3 2 5 8 6 4 5 4 5 5 7 3 4 4 4 5 3 2 5 6 6 4 2 4 6 5 3 6 5 4 8
21 18 16 13 10 9 9 9 9 9 8 8 7 6 5 4 3 2 4 6 6 4 4 2 1 4 4 2 3 3 4 4 5 6 4 3 3 4 2 2 8 7 4 4 5 7 7
21 18 16 13 10 9 9 9 9 9 8 8 9 7 3 3 2 4 3 4 4 3 5 4 4 4 3 4 3 4 3 5 3 5 6 7 6 4 3 2 8 7 5 7 6 4 7
21 18 16 13 11 9 9 9 9 9 8 8 6 7 8 4 3 4 9 8 3 5 6 1 6 4 5 4 2 3 1 1 2 3 3 2 7 6 10 7 5 7 7 5 7 6 7

GFSGBSN_925_spd_021.txt.gz
Wind_Speed
21 21 20 21 18 16 18 17 18 20 22 22 21 19 17 16 14 12 10 11 10 10 9 8 4 5 0 2 8 7 5 4 11 17 17 7 6 6 3 4 1 4 3 1 6 8 8
23 23 21 22 18 16 17 17 19 20 21 19 19 17 15 13 11 10 10 11 10 9 8 4 4 1 1 3 5 3 7 9 12 17 9 11 9 7 4 6 6 8 1 5 5 5 5
24 24 21 21 18 17 17 16 19 20 19 16 16 14 12 11 10 9 9 10 9 8 5 4 2 2 2 12 2 16 11 12 16 17 6 18 14 4 4 5 1 7 6 4 3 2 2
27 24 22 20 19 17 17 16 17 18 15 14 14 11 10 10 9 7 8 9 7 4 3 2 2 2 6 5 14 14 7 9 8 15 11 6 10 5 1 3 7 5 5 3 4 2 3
28 25 23 21 19 17 16 16 16 14 14 13 11 10 8 9 7 7 6 6 6 4 3 3 2 2 8 10 6 5 3 2 2 6 5 3 4 4 7 6 5 6 3 2 3 4 2
29 27 24 22 20 17 15 15 14 12 12 11 9 7 8 7 8 8 8 8 6 4 4 2 3 2 6 3 4 2 2 2 1 1 4 8 5 4 3 4 4 2 1 1 5 5 4
30 28 25 23 19 18 15 13 13 10 10 9 7 7 7 9 10 13 12 6 2 1 3 7 3 3 4 7 1 3 1 2 4 8 4 4 6 3 4 2 3 2 2 3 2 2 6
32 29 26 24 19 18 14 13 12 9 9 8 7 8 9 12 13 13 9 3 4 2 4 11 5 6 12 8 2 3 1 3 4 3 1 7 3 0 8 6 6 6 6 1 2 7 8
33 30 28 25 20 18 14 14 11 9 9 8 7 8 12 12 11 8 7 6 5 9 1 4 5 4 6 6 2 1 3 2 3 3 3 5 2 5 7 7 7 4 3 3 4 5 7
35 31 29 25 21 18 16 13 11 10 11 10 9 11 12 12 7 4 5 6 7 1 4 4 2 4 0 3 2 1 1 3 5 4 7 6 6 5 6 5 3 3 1 2 3 4 4
36 33 30 26 22 19 17 13 11 12 13 11 10 11 13 11 3 4 2 7 4 3 4 3 3 2 2 4 1 4 5 4 4 5 6 2 3 5 6 1 2 3 2 2 1 3 4
38 34 31 26 22 20 18 13 12 13 14 13 11 12 14 10 3 2 6 5 3 6 2 1 2 2 3 3 2 2 6 8 4 6 7 3 2 3 2 1 1 2 4 6 4 3 2
39 36 32 27 24 21 18 13 13 15 16 14 12 14 12 6 1 4 5 4 5 4 1 4 4 3 2 1 4 4 4 6 4 5 3 5 4 5 3 2 3 5 5 2 3 3 4
39 36 32 27 24 21 18 13 14 16 17 15 13 15 8 5 1 3 3 5 1 3 4 2 4 3 4 3 4 4 3 3 6 4 3 4 3 4 5 2 2 3 4 4 5 3 3
40 36 31 27 24 20 18 13 15 18 19 17 15 10 3 4 1 2 5 3 5 5 4 6 4 4 2 2 5 5 3 2 2 3 4 4 1 3 1 2 3 1 4 3 6 3 3
41 36 31 27 24 21 16 14 16 20 21 19 12 7 4 6 4 6 4 5 3 3 2 4 5 4 5 4 4 4 2 3 2 5 2 5 4 1 3 3 4 5 4 3 4 2 1
42 36 31 27 23 20 15 15 18 22 23 20 7 3 2 6 4 5 3 5 3 3 1 3 5 4 5 6 4 2 1 3 3 4 5 3 3 4 2 3 1 4 2 6 5 3 4
41 35 31 26 23 19 16 16 20 25 25 18 6 3 1 5 4 1 3 4 3 2 6 4 4 2 5 4 4 3 4 1 4 1 2 2 5 3 1 5 3 1 3 4 4 2 1
39 35 29 26 22 18 15 16 22 27 28 11 4 2 3 1 4 2 4 3 1 2 3 3 2 2 2 5 6 2 3 0 4 3 3 2 2 3 6 6 5 3 3 5 5 3 4
38 34 29 25 21 17 14 16 25 30 27 11 4 3 3 3 1 7 3 2 1 4 3 3 3 5 4 5 6 4 3 2 2 3 2 4 3 5 6 4 3 3 2 4 5 3 3
37 33 27 23 20 16 14 17 26 31 24 8 2 4 5 4 2 4 4 3 3 2 1 3 3 2 4 4 3 4 2 2 3 1 3 4 3 2 3 4 2 1 3 5 6 5 5
36 31 27 23 19 15 14 18 25 31 21 4 4 4 3 2 6 6 4 5 6 2 4 1 5 3 2 6 6 8 6 3 3 3 3 4 1 1 1 4 5 3 5 7 6 4 7
34 30 26 22 19 15 13 17 25 31 21 4 3 2 5 3 4 5 5 6 8 6 5 3 9 5 4 2 4 5 3 5 5 5 3 3 4 3 3 4 4 6 8 8 5 4 6
32 28 25 21 19 14 12 16 26 31 24 5 4 4 4 2 3 6 7 3 6 5 7 2 5 6 4 6 4 6 11 11 10 8 3 5 4 2 2 3 2 6 3 4 6 4 3
30 27 24 22 18 14 12 16 23 32 19 5 5 4 3 2 1 3 7 6 7 6 4 3 4 0 9 5 5 5 5 6 5 7 6 3 5 3 4 3 5 4 5 7 7 7 7
29 27 24 21 16 14 12 15 19 24 20 11 5 5 4 6 3 4 5 4 5 4 4 3 5 8 6 4 4 4 4 4 1 1 4 5 6 4 2 4 6 6 3 5 4 5 8
29 25 23 20 16 14 13 15 15 18 18 9 4 4 5 4 2 2 4 6 6 5 4 2 4 2 3 3 3 3 3 3 4 5 3 2 3 5 2 4 8 6 4 3 5 7 7
27 25 22 18 16 13 13 14 14 17 18 11 8 5 3 3 1 2 1 5 4 3 5 5 4 4 3 4 3 4 3 5 2 4 6 7 6 4 3 1 8 7 3 8 6 2 9
26 24 20 17 16 13 13 13 13 13 13 11 6 11 13 5 3 4 10 9 3 6 6 1 5 4 5 4 1 3 2 2 2 3 2 3 7 5 9 6 4 6 4 5 6 6 7

GFSGBSN_925_spd_024.txt.gz
Wind_Speed
26 24 22 22 22 21 22 20 21 20 21 21 22 22 18 16 15 15 14 14 14 11 10 9 8 5 3 2 8 5 7 4 17 19 13 6 5 6 5 5 4 5 2 3 4 9 5
29 27 23 24 22 23 22 20 21 20 23 22 21 21 16 14 14 13 13 13 13 11 8 7 5 3 1 3 3 3 12 8 12 21 11 11 8 8 1 5 5 5 3 1 5 5 5
30 28 26 25 24 23 23 22 20 20 23 22 18 17 15 12 12 12 12 12 11 9 7 6 1 1 2 11 3 14 13 11 15 18 6 19 15 3 5 1 1 5 4 5 6 2 4
32 31 28 26 26 23 23 21 19 20 21 20 16 15 12 10 10 11 11 10 10 6 5 3 2 2 7 5 11 14 8 4 12 16 20 9 18 4 3 3 6 5 5 3 3 2 2
34 32 30 28 27 23 23 21 20 20 20 18 15 13 11 9 9 10 10 8 6 4 2 2 2 2 8 7 7 3 5 2 3 8 10 4 8 3 5 5 5 6 3 3 1 2 2
37 34 31 29 28 25 23 21 20 19 18 15 14 11 10 8 8 10 6 6 5 3 2 2 2 2 6 2 4 2 3 4 3 2 2 5 5 4 4 5 4 4 3 0 2 1 10
40 36 33 30 29 26 23 20 20 19 17 14 12 9 8 8 10 11 14 7 2 1 4 7 3 3 3 11 4 1 3 2 4 8 2 5 7 3 3 3 4 5 3 2 2 2 8
43 38 35 31 30 28 24 20 19 18 16 13 10 8 7 10 13 14 7 3 4 2 4 11 5 6 10 3 2 3 1 3 4 3 1 6 4 3 3 3 6 6 5 3 2 6 7
46 41 37 33 30 29 24 21 18 18 16 12 9 8 9 12 13 13 9 8 5 8 1 3 6 5 3 7 3 1 2 2 3 3 3 6 2 2 4 4 8 4 5 1 3 3 6
49 43 38 34 32 30 25 21 18 16 16 13 11 11 13 15 10 6 6 4 6 5 4 5 2 4 3 4 2 1 1 4 5 4 4 5 3 4 5 6 4 3 1 3 5 3 3
51 45 41 36 33 30 27 22 19 16 16 15 13 13 15 20 5 5 2 6 3 2 3 3 2 1 3 4 2 3 6 4 5 4 5 2 3 5 7 1 3 2 5 5 4 5 4
50 47 42 38 34 30 27 23 19 17 16 16 16 16 18 17 6 5 5 2 2 6 3 2 2 2 3 3 2 2 5 7 4 6 6 2 2 3 1 4 4 3 5 8 5 3 2
50 49 43 39 35 31 27 23 19 18 17 17 17 18 23 9 3 4 3 2 5 4 1 3 3 3 3 3 5 4 5 6 4 5 4 6 4 5 3 4 4 6 6 3 3 3 4
47 48 43 39 35 31 26 23 20 19 19 19 18 17 21 12 4 3 2 5 2 3 5 1 4 3 4 2 3 4 3 3 6 5 4 4 4 4 5 2 4 3 5 4 5 3 3
31 49 43 39 35 31 27 23 20 19 21 20 18 18 6 7 6 3 6 4 6 6 3 5 4 4 2 2 5 5 4 2 2 2 5 4 1 3 2 2 2 2 3 3 6 2 2
36 49 44 40 35 31 26 24 20 20 23 22 14 10 5 7 5 3 5 4 4 4 1 4 4 2 4 3 3 4 1 2 1 3 2 5 4 3 3 2 6 2 5 3 3 2 3
39 50 45 41 36 30 26 24 20 22 26 25 6 4 3 5 4 5 4 5 4 5 2 4 4 3 3 4 3 2 1 1 1 3 3 3 4 4 1 4 2 2 2 6 5 3 4
50 52 46 41 36 31 27 23 21 24 27 23 5 3 1 5 4 1 4 5 4 2 3 3 4 3 5 3 4 2 4 1 3 2 3 1 5 2 2 2 2 1 3 4 4 3 1
52 51 46 40 35 31 26 23 23 27 33 12 4 2 3 1 4 1 3 2 2 2 3 2 3 2 3 4 5 2 2 1 3 2 5 4 1 3 6 5 3 2 3 4 5 3 4
51 48 44 39 34 30 26 24 25 31 34 7 4 3 4 3 1 7 4 2 2 1 2 4 4 4 4 4 5 5 3 1 2 2 5 6 3 5 7 4 2 4 4 4 5 3 4
45 43 40 36 33 28 25 24 28 35 35 6 2 4 4 4 1 4 4 4 4 2 2 4 4 3 5 4 3 3 2 2 3 1 3 3 4 2 2 3 1 2 4 6 7 5 6
43 40 38 34 30 26 24 24 30 37 30 3 4 4 3 1 6 7 4 6 7 3 2 1 5 1 2 5 6 8 6 4 4 3 3 3 2 2 1 4 5 4 6 7 5 4 7
41 38 34 30 27 25 23 24 32 38 25 4 2 4 5 4 4 6 6 6 7 6 3 2 6 5 3 1 3 4 5 6 5 5 3 3 5 3 3 4 5 6 9 10 5 5 7
39 34 30 28 26 23 21 25 33 39 28 4 4 5 4 2 3 6 7 3 5 5 7 2 4 5 1 7 6 6 10 11 11 8 3 5 4 3 2 3 2 6 2 3 7 4 7
34 30 28 26 23 20 20 26 34 39 26 4 7 4 4 2 2 3 6 6 6 5 4 3 4 2 8 4 5 5 5 6 5 6 7 3 5 3 4 3 6 4 5 7 8 8 9
31 28 26 23 19 18 20 26 33 38 31 7 7 6 4 6 5 5 5 4 5 4 3 3 4 6 6 3 4 4 4 4 2 1 4 5 6 4 3 3 6 7 3 3 4 5 7
30 27 25 21 19 17 18 21 30 36 28 9 5 5 5 4 2 3 4 6 6 5 4 4 5 1 3 2 3 3 3 2 3 5 3 3 3 4 3 3 8 7 3 2 5 7 5
29 26 23 20 18 17 17 18 26 33 23 13 5 4 3 3 2 3 2 5 4 3 5 5 4 3 3 3 3 4 3 5 2 4 6 7 6 4 3 2 7 6 4 7 6 2 6
28 25 22 19 18 18 17 18 22 27 23 10 6 9 12 5 3 6 11 8 2 6 6 0 4 5 5 4 1 3 2 1 2 3 2 2 6 4 9 6 4 6 5 3 2 3 5

GFSGBSN_925_spd_027.txt.gz
Wind_Speed
28 26 25 24 22 21 21 19 20 19 18 21 22 21 20 19 18 15 13 11 9 9 12 10 8 6 3 2 8 3 8 9 23 20 16 7 6 5 4 5 5 4 4 4 2 7 7
30 29 28 25 24 22 21 20 20 19 19 20 24 22 19 18 18 13 11 9 8 9 9 8 6 3 1 3 4 5 7 8 18 20 9 7 6 6 2 2 5 5 4 4 4 8 6
32 31 30 27 24 23 22 21 21 18 20 20 23 22 18 16 15 12 9 8 7 7 6 6 3 0 1 12 5 5 12 6 14 23 7 15 9 3 4 1 1 6 6 4 4 4 4
34 33 32 29 24 26 23 22 21 19 19 20 21 20 17 15 12 11 8 6 5 5 5 3 1 2 7 7 8 18 13 7 11 18 13 5 17 3 4 4 3 3 4 4 2 4 2
40 35 34 31 26 27 25 23 20 20 19 19 19 18 17 14 10 8 6 4 4 3 1 2 2 2 8 10 7 2 5 2 7 10 10 7 11 3 2 3 3 6 3 2 4 6 5
29 37 37 34 28 28 25 24 21 20 19 18 17 16 15 12 9 7 5 4 4 2 2 3 3 3 7 2 5 6 1 2 3 6 4 4 2 3 2 3 5 4 4 0 3 4 10
31 39 38 37 31 29 27 24 22 20 18 18 16 15 13 10 10 10 12 9 2 2 4 7 3 3 5 11 4 2 2 5 3 6 2 1 3 3 3 2 2 5 4 4 3 2 7
36 26 40 38 34 31 27 25 24 21 18 16 15 12 11 9 12 13 12 4 5 1 4 12 5 6 12 4 2 3 1 3 2 4 2 4 3 2 4 5 5 4 9 4 4 2 5
35 36 39 40 36 33 30 26 25 21 19 16 14 11 11 11 13 13 10 11 3 7 1 2 5 5 4 7 3 3 1 2 4 1 2 3 1 2 4 4 6 3 6 3 5 6 6
34 35 32 43 38 35 31 27 26 21 18 16 13 12 13 16 10 7 7 6 7 5 3 3 3 4 3 3 2 1 3 3 4 4 4 3 3 4 3 4 2 4 1 5 8 2 2
35 34 34 45 40 37 32 29 26 22 18 15 14 15 16 19 6 6 2 4 3 2 3 3 3 3 1 4 3 2 6 5 6 5 3 1 2 3 5 1 1 4 3 4 3 4 3
36 36 39 43 41 40 34 30 27 23 20 15 16 17 18 23 9 9 3 1 4 5 3 2 2 4 4 4 3 3 4 7 4 4 5 2 2 2 2 3 3 9 5 6 4 2 2
36 37 36 34 44 41 35 32 28 24 20 16 18 21 25 13 3 3 2 4 3 3 2 2 3 3 3 2 4 4 4 3 3 4 3 4 3 2 2 4 3 3 4 1 1 0 3
33 34 33 35 47 43 36 33 28 24 19 18 18 20 24 24 7 2 3 3 3 3 5 0 3 3 4 3 2 3 3 3 4 4 3 3 0 3 5 2 3 3 2 4 4 3 1
33 34 32 38 49 44 37 34 28 24 19 17 18 16 11 24 22 12 4 3 6 6 4 6 3 5 1 1 4 3 3 2 1 2 4 4 1 2 4 1 0 3 2 2 6 2 0
33 32 35 41 49 44 38 34 28 25 20 21 17 11 7 11 11 7 4 5 4 4 2 3 4 3 4 3 3 2 1 1 2 1 1 5 3 1 1 1 6 1 7 3 2 3 3
33 32 32 23 47 43 38 34 29 24 22 23 10 3 7 11 11 4 4 5 5 5 4 4 5 4 3 4 3 2 3 1 1 2 2 3 3 2 1 1 4 3 2 5 4 1 2
31 31 29 28 44 42 39 34 30 25 23 29 6 3 5 12 3 0 4 5 3 3 2 2 4 3 5 3 3 3 5 1 1 1 4 1 4 3 1 1 1 1 3 4 3 4 1
31 32 33 30 42 42 40 35 31 27 31 19 4 2 2 4 4 1 2 3 2 1 1 3 3 3 3 4 4 3 3 1 1 3 5 5 1 3 2 2 1 2 3 4 5 2 5
32 30 36 37 44 43 40 36 32 31 35 20 3 3 3 3 0 8 5 4 2 2 1 4 5 4 4 3 4 5 3 1 1 2 6 5 2 4 7 3 2 4 4 4 4 3 4
28 29 38 39 46 43 40 36 32 33 40 11 1 3 3 4 2 5 4 6 5 3 2 2 4 3 5 4 2 3 2 2 3 3 3 2 4 2 1 1 1 2 4 8 8 4 6
31 35 35 48 45 42 38 34 32 35 42 4 4 4 3 2 5 7 2 7 7 3 2 1 6 3 2 5 5 8 6 4 4 2 2 2 3 2 3 1 3 3 5 7 7 4 10
26 36 44 44 41 39 36 33 33 37 41 5 4 3 4 3 3 5 6 6 7 7 2 3 6 5 4 1 3 3 6 7 5 5 3 2 5 3 3 3 2 5 9 12 6 6 9
36 43 42 39 37 35 33 31 31 39 37 6 6 5 4 2 3 5 8 4 7 4 7 3 3 4 1 10 8 8 11 12 12 9 3 5 4 2 2 2 1 4 2 3 12 7 14
41 40 38 34 33 31 30 28 32 41 41 3 7 5 4 3 2 3 6 5 6 5 4 3 3 1 8 3 4 4 4 5 5 7 6 3 4 3 3 3 5 5 4 6 7 6 12
36 34 32 30 29 28 27 29 35 43 42 7 9 8 4 7 5 5 5 4 5 4 3 3 3 5 5 3 3 4 3 3 1 1 3 5 6 3 3 3 5 5 2 2 3 4 2
32 29 26 26 26 24 25 29 36 43 39 8 8 7 5 4 1 4 4 6 5 4 4 4 5 2 2 2 3 3 3 1 3 5 2 2 2 3 2 3 7 6 2 2 2 5 1
27 26 25 23 21 21 23 28 36 43 37 8 8 7 3 3 1 1 2 5 3 2 5 5 4 2 2 3 3 3 3 4 2 3 4 5 6 3 3 1 6 5 3 4 4 2 2
28 26 22 19 18 18 21 28 36 42 36 11 6 7 9 4 3 7 13 8 1 5 6 1 3 4 4 4 1 3 2 1 2 3 1 3 4 3 8 5 3 6 4 2 2 3 2

GFSGBSN_925_spd_030.txt.gz
Wind_Speed
31 28 26 24 22 20 19 19 19 19 17 14 15 21 21 18 17 16 13 13 11 10 10 10 7 7 2 5 8 4 9 16 19 16 15 12 11 9 10 9 9 11 5 5 5 3 14
21 33 28 26 24 22 21 19 20 20 18 15 15 20 21 18 15 15 11 10 9 10 10 7 5 3 2 7 1 3 6 16 15 17 12 11 5 6 4 5 12 4 5 5 7 9 8
27 27 32 28 27 24 22 21 20 21 19 16 16 18 20 16 14 12 9 9 8 9 7 6 1 1 4 11 1 6 3 6 13 18 12 14 9 6 1 5 3 10 11 7 3 8 7
31 26 35 31 29 26 24 22 21 21 20 17 15 17 20 15 13 10 8 7 7 8 5 3 2 1 6 5 2 12 10 7 10 14 11 3 9 9 5 3 5 6 7 6 5 11 5
31 30 27 35 31 28 26 24 22 21 20 18 15 16 17 14 12 7 6 5 8 5 1 2 1 3 6 5 6 3 9 3 8 11 7 3 9 5 5 9 8 6 7 7 7 1 7
30 29 28 36 34 30 27 26 24 21 19 18 15 15 16 12 9 6 6 4 3 2 3 2 4 4 8 2 3 0 5 9 4 12 6 5 4 6 6 8 8 13 7 11 10 4 8
30 31 29 26 37 32 29 27 25 22 20 17 15 15 14 10 8 7 7 3 5 5 6 6 1 5 4 12 2 5 4 7 5 8 4 5 6 7 10 5 2 6 8 11 8 4 7
34 33 35 32 35 35 30 29 25 23 20 17 14 14 12 8 7 9 6 6 4 3 3 15 11 10 12 5 4 4 3 6 1 0 0 6 6 4 4 5 5 6 8 7 5 4 4
35 35 34 36 28 37 32 30 27 23 20 17 13 13 10 8 8 10 11 15 2 6 4 4 7 6 3 6 4 5 3 2 3 7 1 13 6 4 6 8 9 4 5 11 8 8 2
36 36 36 35 34 35 35 31 28 24 21 18 13 12 10 11 7 7 8 14 15 8 4 6 6 4 5 4 4 2 2 2 5 5 2 4 2 4 7 7 2 6 1 7 14 12 7
36 37 37 36 33 32 37 34 29 26 22 19 14 12 17 15 2 7 1 8 6 5 6 8 6 5 4 6 3 3 3 3 5 5 2 3 4 5 5 4 2 4 5 6 5 5 5
38 39 38 37 34 33 39 35 31 26 24 19 16 14 18 17 8 8 3 4 6 5 5 7 7 9 8 3 2 1 3 5 3 4 2 3 2 3 4 6 2 11 8 6 4 3 7
40 39 37 38 36 34 38 38 33 28 25 20 16 17 25 12 4 2 5 5 5 7 2 7 9 10 9 5 4 3 6 8 7 9 8 6 3 4 2 9 6 6 9 3 4 4 6
40 39 39 38 38 34 36 40 33 30 26 20 17 18 23 18 9 2 5 6 7 4 8 2 7 11 10 7 3 4 8 8 2 4 9 9 5 4 1 3 3 6 5 4 4 4 2
39 38 37 38 38 34 35 41 36 31 26 21 15 14 9 18 20 2 4 9 8 5 6 9 10 13 7 6 4 6 5 7 2 2 6 6 4 4 3 2 4 6 5 3 2 1 3
39 35 35 37 37 33 34 42 37 33 28 24 17 11 13 13 15 11 6 9 8 3 4 11 11 11 12 11 9 7 8 4 4 2 2 4 4 3 5 3 7 3 8 3 3 3 4
35 38 32 34 34 31 34 43 38 35 31 25 15 6 9 16 16 7 9 11 5 6 6 10 9 7 10 9 8 9 8 4 3 4 1 5 3 5 3 5 5 4 4 1 0 2 2
36 35 33 33 31 34 39 45 41 38 32 31 12 8 13 22 8 5 12 7 4 6 5 7 5 5 12 10 8 9 10 2 4 3 5 2 2 4 5 3 2 2 4 7 4 4 1
31 31 30 32 31 33 37 46 44 42 41 21 10 5 5 7 10 8 5 6 5 6 8 7 7 3 4 8 5 5 6 2 3 5 5 6 4 4 5 4 5 7 8 5 4 1 6
25 28 29 31 31 33 30 45 47 43 43 25 9 7 5 6 4 16 12 13 8 3 4 3 5 3 7 5 0 7 7 3 2 2 3 3 3 6 8 1 1 6 11 11 10 4 4
25 25 27 28 28 34 36 47 47 44 45 16 6 7 10 12 11 13 15 14 11 7 3 5 4 6 7 5 5 5 5 5 3 5 3 3 6 4 1 1 3 4 7 13 16 13 7
26 26 31 31 28 34 34 44 45 45 46 15 8 5 4 14 13 14 13 11 15 6 6 6 7 8 7 4 7 9 9 7 4 6 5 2 3 2 3 2 2 7 9 11 15 15 15
28 27 33 27 28 36 41 43 43 44 40 10 4 3 9 5 12 12 12 14 14 11 2 3 9 7 5 4 4 7 7 7 5 6 6 4 5 4 2 2 3 7 15 17 12 12 14
28 30 31 32 39 34 45 43 41 43 41 15 5 5 5 7 11 14 14 11 13 10 7 4 4 4 5 16 16 14 14 12 10 9 3 5 5 1 1 2 3 1 1 3 13 16 15
25 36 30 30 30 43 40 38 39 39 43 6 6 4 4 4 10 11 13 11 10 6 5 6 4 3 15 3 4 4 2 2 4 7 5 1 4 3 2 4 6 11 3 3 4 6 5
28 27 32 29 39 36 36 37 37 38 49 5 7 7 3 7 7 9 13 12 7 6 5 4 6 12 2 2 2 4 4 3 4 4 3 4 3 1 3 3 4 3 3 1 2 5 6
36 29 34 38 35 35 35 35 36 41 50 5 6 8 4 4 4 8 12 12 5 5 5 6 8 3 1 2 2 2 3 1 5 5 4 2 1 3 3 4 6 1 2 3 3 3 7
35 34 32 33 32 33 33 33 35 45 52 7 6 7 2 3 5 1 3 6 5 6 6 8 6 2 2 2 2 3 2 4 3 2 4 5 6 3 3 3 4 6 6 3 4 4 6
26 30 31 31 29 29 30 32 36 45 50 10 5 11 13 6 4 6 8 5 3 2 6 11 1 6 6 3 1 3 2 1 1 2 3 3 3 1 6 1 3 7 6 4 5 7 8

GFSGBSN_925_spd_033.txt.gz
Wind_Speed
22 17 28 26 24 22 20 18 18 16 16 16 17 15 18 20 20 18 15 13 13 13 11 11 12 12 7 8 12 3 9 9 20 14 15 12 12 13 12 11 13 12 5 3 6 14 12
24 23 21 29 27 25 22 20 19 17 17 17 17 15 18 19 19 16 14 11 11 11 11 11 8 6 6 11 1 1 4 16 15 17 14 12 9 9 8 6 11 11 5 7 10 8 13
24 25 23 22 30 27 24 23 21 18 17 18 17 16 16 19 18 15 12 10 10 10 10 7 6 5 9 14 1 3 4 8 12 15 10 9 10 7 4 9 6 4 10 11 8 12 9
25 24 25 24 24 30 27 24 23 21 19 18 16 16 16 18 17 14 12 10 9 10 9 5 1 6 8 5 8 9 10 7 11 13 12 3 8 10 9 5 5 10 10 15 10 12 13
27 25 26 25 26 27 30 26 24 22 20 19 17 16 15 16 15 13 9 8 8 9 2 2 4 7 6 3 9 6 10 4 7 9 8 4 7 9 6 10 14 12 12 7 9 15 10
27 27 24 29 26 24 30 28 26 23 21 19 17 17 14 15 14 11 7 6 7 2 3 4 13 6 9 7 2 2 7 9 4 10 8 8 8 8 9 11 11 12 4 14 12 12 12
27 29 28 27 29 25 28 31 27 24 21 19 17 16 14 14 12 9 3 3 6 6 7 13 2 8 2 4 6 8 9 8 6 11 12 11 9 11 13 6 6 8 8 9 13 4 8
32 32 30 31 29 30 25 30 28 25 23 19 18 15 14 12 10 7 5 8 8 6 9 23 16 12 13 5 6 7 7 8 11 8 2 6 10 6 8 9 10 9 11 7 5 8 7
34 33 33 33 32 28 29 28 30 26 23 20 17 15 13 9 7 8 12 16 3 12 6 10 12 10 7 8 9 13 9 8 9 13 13 6 17 6 5 9 10 7 4 7 10 11 13
36 35 33 31 33 31 29 27 31 28 24 21 18 15 12 8 6 9 9 13 15 3 5 12 9 8 8 6 6 1 7 5 6 15 5 5 4 8 6 12 7 8 1 5 5 14 13
38 36 35 34 33 32 31 28 32 28 25 21 19 16 14 15 6 8 4 3 2 3 5 15 13 9 9 10 3 10 5 7 10 11 10 2 12 10 8 2 5 9 4 7 10 14 11
39 38 37 35 35 33 32 28 28 31 26 22 21 17 13 13 11 9 2 1 5 5 8 8 10 12 12 11 6 5 10 8 3 13 12 12 2 4 7 3 2 6 5 7 8 11 8
36 37 36 35 36 34 33 30 29 33 28 23 22 19 22 13 6 6 6 5 6 9 5 11 15 15 15 9 8 9 14 15 11 10 10 10 8 4 4 7 4 7 8 7 6 5 9
33 35 37 35 35 35 35 31 30 33 29 25 22 19 22 18 14 4 8 9 11 12 12 3 12 14 16 11 10 10 9 16 17 13 10 12 8 10 6 6 5 9 11 7 7 7 8
37 33 37 38 37 36 36 35 30 34 30 26 21 15 17 20 17 6 9 13 14 8 11 8 11 14 15 11 5 12 14 15 15 14 11 10 5 6 1 3 6 4 8 5 4 1 5
41 34 35 40 38 38 37 36 32 34 33 30 19 13 21 19 21 12 9 18 20 4 6 11 14 13 14 15 11 13 12 7 6 5 6 2 2 3 5 4 5 8 2 4 5 3 6
40 39 32 41 40 39 38 37 34 36 36 32 23 6 16 23 24 7 13 19 19 9 9 12 15 12 13 12 15 15 14 8 6 8 6 5 7 7 4 10 11 7 9 6 4 3 3
38 38 42 41 41 38 38 38 34 37 39 35 20 12 23 34 10 10 15 22 16 12 9 9 6 9 12 11 12 12 12 8 8 6 10 3 4 5 13 5 5 9 8 9 5 5 3
34 44 44 42 39 36 39 36 34 40 47 33 13 8 18 28 13 14 18 23 15 14 13 12 11 9 10 10 9 11 11 6 3 7 4 6 7 8 7 7 8 8 9 8 4 1 8
34 40 40 40 42 37 36 30 31 47 49 34 11 11 6 10 16 21 23 22 18 13 11 13 12 8 10 9 6 9 8 3 4 3 3 1 11 9 9 6 3 8 11 11 11 6 8
33 33 38 38 37 37 41 30 31 51 52 34 13 13 13 16 19 21 23 18 22 13 10 13 11 15 11 8 10 7 10 6 5 5 5 4 9 13 14 5 6 8 8 11 16 15 13
23 31 33 36 35 34 39 36 32 54 55 23 11 13 15 17 24 20 21 23 24 19 15 16 13 16 13 9 10 10 12 9 8 9 7 5 5 3 6 8 7 10 11 13 14 16 17
26 27 27 31 33 36 37 35 31 53 54 14 16 7 13 18 24 18 18 22 23 16 2 8 16 10 11 4 7 8 8 4 4 7 10 5 4 4 5 3 5 6 15 17 17 17 12
27 26 25 29 33 33 31 35 33 55 58 25 14 6 10 16 18 20 22 22 21 16 10 5 8 9 6 13 13 12 10 8 7 5 3 5 6 1 0 2 1 2 2 4 6 12 14
28 27 27 31 34 31 29 43 38 54 61 23 9 4 7 5 18 23 21 23 17 9 12 12 6 5 15 8 4 4 2 3 3 3 3 4 5 2 2 6 9 11 5 1 2 4 9
30 26 29 33 35 30 35 43 41 49 56 32 13 9 8 8 13 22 20 17 12 11 7 5 7 8 4 3 2 5 5 6 5 6 3 4 1 4 3 3 4 4 4 1 2 5 7
26 30 26 29 35 37 40 41 42 44 46 44 8 11 7 8 14 14 15 13 13 13 7 7 8 4 3 3 2 3 4 2 5 5 4 3 1 5 5 3 6 5 3 2 5 3 8
29 26 30 38 37 43 42 40 40 43 45 45 9 6 5 5 7 2 6 14 8 12 8 10 7 2 3 3 3 3 1 4 2 2 5 6 7 3 3 2 5 6 6 2 5 7 8
30 33 32 39 40 41 40 38 40 42 43 45 7 3 12 5 7 8 9 9 3 4 6 12 2 11 7 5 1 3 2 1 2 3 3 4 4 1 6 1 5 4 4 4 5 7 8

GFSGBSN_925_spd_036.txt.gz
Wind_Speed
20 23 22 18 21 22 21 20 19 19 18 16 16 16 16 17 18 22 20 19 17 15 13 13 14 13 7 7 9 0 6 7 14 14 14 11 10 10 14 15 10 14 16 8 10 7 5
19 17 22 23 18 22 23 21 21 19 19 18 16 16 16 17 18 21 20 18 15 14 13 12 13 5 6 9 3 4 2 9 10 13 14 14 10 11 13 13 12 10 13 11 5 9 7
18 18 19 21 22 19 22 24 22 21 20 19 17 16 17 16 18 20 19 18 15 13 12 11 11 6 8 16 9 3 5 9 11 13 12 9 12 6 5 9 10 6 10 8 5 7 13
22 22 21 19 21 20 21 23 24 22 21 19 18 17 17 17 17 19 19 16 14 12 12 10 6 7 8 8 13 17 10 10 10 13 13 8 7 9 10 14 3 11 9 6 8 11 9
25 24 24 22 20 22 21 22 24 23 21 20 18 17 16 16 17 18 18 13 11 12 9 2 4 5 9 4 12 14 11 12 8 9 10 6 7 11 12 10 5 5 9 13 9 10 9
26 25 24 24 21 21 23 23 24 25 22 21 19 17 16 15 16 17 14 10 10 6 4 7 13 7 10 10 10 9 5 6 5 8 7 8 6 8 8 7 2 7 10 12 11 14 12
28 27 25 24 24 21 21 22 23 23 23 21 19 17 15 14 15 13 9 5 5 5 12 10 2 7 2 3 9 11 10 9 8 10 12 13 8 11 3 4 12 8 12 11 10 7 11
31 29 29 28 27 28 25 24 22 23 23 21 19 16 15 14 13 10 7 6 8 9 8 21 19 14 19 12 9 14 11 7 12 9 14 9 8 4 7 12 8 10 13 5 7 5 6
32 32 31 30 27 29 29 25 24 23 23 21 19 16 14 12 10 8 14 17 13 16 6 12 18 15 15 16 16 13 12 13 9 9 11 8 8 0 9 8 12 14 5 6 11 7 7
34 32 34 32 31 28 31 27 26 23 24 21 19 16 13 9 6 11 10 13 20 10 5 9 13 10 16 9 13 18 19 15 8 13 3 4 11 9 8 12 14 8 12 9 13 8 8
39 35 33 33 33 30 29 29 26 23 24 23 20 17 15 14 11 12 10 5 5 5 4 11 16 13 13 15 6 12 5 9 9 10 11 10 13 15 6 6 15 3 12 13 8 8 3
40 38 35 34 34 33 31 28 27 25 24 25 22 19 13 9 15 16 7 4 4 5 7 7 12 10 16 15 12 7 11 13 5 3 6 12 6 11 2 10 13 10 9 10 9 6 3
40 39 37 36 36 36 32 32 29 26 24 24 23 21 22 10 8 12 9 5 5 8 8 9 12 15 17 14 13 10 13 16 10 8 10 11 19 12 13 12 7 9 9 2 8 6 5
42 36 36 36 38 38 35 33 30 27 24 23 23 21 22 21 16 8 8 6 11 12 21 2 12 15 18 15 13 12 13 15 17 16 7 9 3 6 11 11 6 18 10 2 1 2 11
43 41 37 36 35 37 37 33 31 28 25 23 24 17 16 21 22 12 8 12 12 12 20 7 12 15 16 17 7 13 14 16 17 17 8 3 7 13 9 3 3 7 2 4 9 6 3
43 42 41 36 29 34 37 33 31 30 25 24 20 15 21 21 22 13 9 19 18 22 13 14 13 12 16 16 12 9 13 14 17 15 13 5 7 18 12 5 5 5 7 3 2 2 5
42 43 38 36 26 31 36 35 33 31 27 26 20 6 11 25 22 8 13 18 22 21 14 7 14 13 16 12 13 12 9 7 7 8 4 11 17 10 6 8 8 5 6 5 6 4 1
39 39 36 36 40 30 36 36 35 32 29 32 10 8 27 39 11 10 14 22 22 20 10 10 14 16 13 12 13 13 15 14 11 7 9 10 4 3 9 3 5 7 10 11 3 5 2
43 36 35 36 38 37 36 39 39 36 36 24 7 8 31 36 13 13 18 26 25 22 15 15 11 14 10 12 7 10 6 6 7 5 1 1 3 5 10 6 8 8 11 10 6 3 4
39 37 37 36 37 38 37 40 41 39 39 27 7 9 5 11 12 20 23 21 24 22 17 14 15 13 9 11 9 8 7 3 3 3 4 4 4 9 7 10 4 13 11 10 10 3 4
37 37 37 38 37 43 40 41 41 41 40 28 5 10 10 12 17 19 20 20 24 23 18 16 15 17 11 9 13 8 9 7 4 3 3 2 8 11 14 16 2 10 9 7 11 11 11
35 35 37 38 42 42 45 42 41 41 40 26 9 9 12 8 19 22 22 27 26 24 18 18 13 14 14 10 10 11 12 8 7 7 7 5 5 4 8 10 10 12 14 13 14 13 13
30 33 36 37 37 46 44 42 41 36 40 14 20 15 6 12 23 20 21 22 25 18 18 18 18 15 16 6 13 11 7 1 7 10 9 7 3 2 2 6 7 5 10 16 15 14 10
30 30 31 34 40 39 41 45 39 39 42 18 26 12 6 15 19 24 25 25 23 23 11 12 14 15 10 14 14 12 11 8 7 4 7 5 5 2 1 2 1 7 4 5 5 7 9
27 24 25 34 36 38 38 43 43 45 45 35 27 6 3 7 18 25 28 23 21 17 15 10 7 10 14 11 4 4 2 3 2 3 3 3 4 2 3 4 7 10 1 2 2 5 11
24 27 26 27 31 34 37 38 38 35 46 47 36 14 4 9 17 29 23 20 14 8 1 6 10 6 5 3 2 4 4 6 7 6 1 2 3 3 3 2 4 2 5 3 2 2 8
25 25 25 25 29 34 33 36 35 38 42 38 27 25 5 6 13 20 20 15 10 12 5 11 6 3 3 2 2 2 4 3 6 6 4 2 0 4 3 1 6 6 5 1 2 3 4
25 25 25 25 30 33 32 28 34 39 29 32 37 34 9 5 14 21 14 12 10 14 6 11 6 3 3 2 3 2 2 3 2 6 7 6 6 3 2 2 5 6 5 2 4 5 8
24 23 24 28 30 32 29 29 35 33 28 29 19 39 30 8 4 13 17 15 9 5 7 9 6 10 5 4 1 3 2 2 2 2 6 3 4 3 7 3 5 3 4 5 6 4 5

GFSGBSN_925_spd_039.txt.gz
Wind_Speed
17 18 20 21 21 20 20 20 17 15 15 15 15 16 16 18 18 19 21 22 22 21 17 16 15 15 6 4 9 7 4 3 12 11 11 9 8 7 7 5 7 8 9 9 7 8 7
19 20 19 19 24 22 18 19 20 17 15 15 15 15 16 18 18 19 21 21 21 19 16 14 14 10 2 5 5 5 5 5 6 12 10 15 9 8 8 8 5 8 6 12 10 16 6
21 21 20 17 16 23 20 18 18 18 17 16 15 15 16 18 18 20 21 21 19 17 14 12 11 6 4 16 4 4 5 4 12 13 8 21 19 4 7 10 12 7 2 6 10 10 3
24 23 22 21 19 18 19 19 18 19 19 17 16 15 15 17 17 20 21 20 18 15 12 10 8 3 7 12 9 14 10 17 14 17 19 18 10 5 3 7 9 4 4 3 4 11 8
26 26 24 23 22 20 20 20 19 17 20 18 17 16 15 16 17 19 20 20 16 12 10 6 4 3 9 16 6 15 16 17 21 16 14 11 5 2 7 4 5 4 2 1 4 15 9
28 27 27 25 23 22 20 20 21 19 20 20 17 16 16 15 16 18 19 18 14 10 4 2 9 6 10 5 8 13 19 21 3 4 2 1 2 3 4 2 3 2 3 6 8 10 6
30 29 28 27 25 23 22 19 20 20 18 18 18 16 15 15 15 17 16 7 2 1 4 8 5 6 9 17 10 6 9 8 5 4 2 6 3 0 4 3 4 1 6 11 5 8 7
32 31 29 28 28 25 25 24 21 20 17 18 18 15 14 14 14 16 10 4 6 7 8 17 20 17 27 14 4 6 16 5 5 3 2 6 7 7 9 7 5 7 14 7 8 4 6
37 34 32 31 29 28 27 26 25 22 19 19 16 15 14 11 13 13 14 19 17 15 3 9 14 8 8 11 5 12 9 5 10 5 7 4 7 10 6 6 12 14 5 14 6 3 2
37 37 35 33 30 30 27 25 26 23 21 18 16 15 13 9 7 7 7 9 6 5 3 6 10 6 8 9 7 14 14 9 2 6 7 5 4 8 8 9 11 8 4 5 9 2 3
40 36 36 36 32 31 30 27 25 25 22 20 18 16 15 12 10 4 11 20 8 5 3 6 10 6 8 8 2 6 16 7 8 8 5 7 2 5 4 11 3 7 6 5 5 4 4
41 37 36 36 34 35 32 29 26 27 22 21 19 18 15 13 14 20 13 17 6 1 7 4 9 8 8 8 9 5 5 1 3 7 1 5 4 6 5 8 4 8 3 4 6 3 2
42 38 38 33 35 36 33 32 28 26 23 21 20 21 22 12 5 7 13 6 2 4 6 7 14 8 11 8 8 5 6 5 4 4 5 4 8 4 3 6 10 4 4 3 5 5 5
42 42 37 35 31 34 36 31 31 29 24 22 20 22 25 25 21 10 8 2 8 12 11 3 10 10 10 8 9 8 6 7 9 6 4 6 7 2 3 10 3 4 5 4 5 2 4
42 40 40 36 41 34 37 37 34 29 26 22 18 23 14 28 24 12 2 10 8 7 10 4 8 9 8 11 7 9 8 7 11 12 7 3 1 3 9 6 2 1 3 5 6 4 4
47 41 37 34 34 37 36 40 37 32 28 24 18 11 12 25 15 8 5 14 7 17 9 6 8 8 8 11 7 7 9 7 7 14 8 4 3 3 12 10 9 4 3 4 3 4 4
44 39 39 38 37 37 36 37 40 34 29 26 13 4 12 22 17 4 13 12 16 21 12 8 6 7 7 7 9 6 6 9 9 5 10 6 4 5 5 6 10 1 2 3 3 4 4
43 40 37 36 39 40 35 39 39 37 31 29 6 6 24 35 6 5 15 17 13 20 17 10 4 1 7 7 7 9 8 2 5 10 9 8 5 4 18 17 9 5 5 2 4 4 2
43 40 36 34 37 42 38 36 39 38 38 26 5 4 25 33 12 12 7 18 22 20 20 7 3 3 3 7 7 10 5 5 7 5 6 3 2 3 3 3 4 3 4 4 3 3 4
43 38 35 30 39 44 40 33 38 40 42 26 4 6 6 10 8 18 17 17 22 14 21 18 8 7 5 5 3 7 3 2 4 4 2 4 1 6 6 6 2 5 5 5 5 4 3
43 38 37 36 37 37 40 40 32 39 43 26 5 8 8 12 18 13 18 13 19 17 16 9 8 9 7 5 3 5 4 3 3 0 2 4 4 1 5 5 3 4 5 6 4 6 7
44 42 39 35 36 38 41 35 37 40 43 28 3 6 6 4 16 15 20 21 24 19 17 16 13 10 8 6 7 7 8 5 6 2 5 1 2 3 2 6 7 3 5 8 6 5 1
43 41 40 39 41 41 43 40 42 39 44 8 15 10 5 8 18 17 21 23 22 15 12 15 9 7 8 6 6 5 6 7 8 8 6 6 4 3 2 4 6 6 6 6 6 4 3
43 42 42 42 42 42 45 44 46 42 50 13 21 5 4 9 14 20 21 22 21 24 14 13 9 7 3 11 9 8 12 10 11 8 3 6 5 3 3 3 1 9 1 5 6 6 8
39 38 39 40 42 45 44 44 47 45 48 33 14 8 2 3 16 15 22 24 20 15 19 6 2 8 11 6 4 4 5 6 0 3 4 4 5 2 4 4 5 6 2 2 4 4 6
33 33 35 38 39 43 42 43 47 48 44 32 34 16 4 4 11 21 25 19 13 10 2 1 7 4 5 4 3 5 4 6 4 2 8 7 5 5 2 4 6 6 3 4 3 2 4
28 25 31 33 41 40 43 45 46 45 40 27 18 25 5 4 5 8 18 23 13 5 5 2 4 5 3 3 3 3 2 7 5 8 4 3 3 5 2 2 7 5 5 0 6 5 4
29 26 24 30 34 32 37 43 42 41 35 34 29 28 8 4 6 4 11 12 6 7 7 6 4 5 1 3 4 3 3 5 4 8 7 6 6 3 4 3 5 6 3 6 6 3 7
24 25 24 25 30 35 37 40 42 36 40 38 15 25 23 2 5 23 9 9 11 12 9 2 9 6 6 4 3 4 2 2 3 2 3 2 6 6 7 6 6 4 9 6 9 7 5

GFSGBSN_925_spd_042.txt.gz
Wind_Speed
17 16 17 19 19 20 17 18 20 18 16 15 14 14 14 14 16 17 17 19 21 21 20 17 15 15 5 3 8 8 9 3 14 9 5 1 2 0 3 4 3 6 7 1 11 8 5
20 20 19 20 18 20 22 21 19 20 18 16 15 14 14 14 16 17 17 19 21 20 18 15 13 9 2 3 4 4 5 7 9 11 5 6 6 2 6 4 1 5 7 11 9 7 2
23 23 21 19 18 17 18 24 20 18 19 18 16 15 15 15 16 17 17 19 20 19 16 13 10 5 3 13 6 4 13 7 7 9 3 11 13 3 3 8 4 4 6 7 7 2 5
27 26 24 22 20 19 16 18 22 18 18 19 18 16 15 16 16 17 18 19 20 18 14 10 7 2 7 8 14 17 13 13 10 8 12 14 12 5 1 4 8 5 8 5 7 9 2
27 27 27 26 23 21 19 18 19 19 17 18 17 17 15 15 16 17 18 20 20 17 11 5 2 2 9 11 8 12 14 10 11 17 16 17 3 1 6 3 5 5 3 5 3 6 8
30 29 27 27 27 24 22 20 17 19 19 17 17 18 15 14 15 17 18 19 16 11 1 1 6 5 8 3 4 10 16 14 4 4 0 6 5 3 4 4 3 4 2 2 4 5 4
33 31 29 28 27 26 24 22 19 17 18 18 17 18 14 13 14 16 17 6 2 0 3 8 4 4 6 7 13 9 10 5 5 9 1 3 5 3 4 4 4 4 1 4 7 8 6
39 36 33 30 29 29 26 23 20 19 16 16 15 16 14 12 13 14 13 2 4 2 7 16 18 13 22 7 5 7 6 4 4 4 1 3 2 6 5 7 5 3 7 10 9 5 7
43 40 37 34 31 30 29 25 23 22 19 16 14 16 12 11 12 12 8 11 10 14 3 7 8 7 6 11 7 8 8 5 5 5 6 6 6 1 3 5 4 6 3 8 8 2 1
43 41 41 38 34 32 31 28 25 25 21 18 15 16 13 9 7 4 6 12 7 10 2 7 6 7 6 6 5 10 7 6 2 7 6 4 3 4 4 3 4 5 10 16 6 5 2
47 46 42 40 38 34 32 30 27 24 24 19 17 16 16 14 2 4 0 17 5 3 3 4 5 6 9 8 3 5 11 4 9 8 6 7 3 3 1 6 1 7 1 6 3 3 3
49 47 46 41 38 38 34 31 29 26 23 21 19 19 17 14 15 15 19 15 5 2 7 4 7 7 6 6 3 2 4 5 6 5 1 4 1 4 7 5 2 4 4 6 4 2 1
52 44 47 46 38 35 36 34 31 28 24 23 20 20 23 18 4 4 8 1 3 5 5 6 6 7 9 7 5 5 3 5 6 5 2 2 4 2 1 5 4 3 5 3 5 4 5
50 51 48 46 42 37 35 34 35 30 25 21 20 18 25 26 20 9 4 2 9 8 8 4 7 9 9 8 7 6 4 6 3 5 4 6 2 3 3 3 3 2 5 5 4 2 4
52 53 52 47 45 38 37 33 34 30 28 22 18 17 14 29 23 9 0 10 7 7 5 4 4 6 7 7 7 7 9 8 8 8 8 4 4 4 3 3 2 2 3 4 6 3 3
49 49 51 48 44 42 38 31 34 32 30 24 18 11 10 26 20 8 5 15 6 10 6 4 5 6 9 8 7 8 7 6 7 10 6 7 2 3 4 3 6 6 3 2 3 3 3
50 50 47 47 43 41 39 38 32 35 31 25 17 5 16 23 20 3 13 15 10 22 5 3 3 4 8 8 9 7 9 7 8 3 8 5 4 4 3 7 9 1 2 1 4 4 4
53 50 51 48 44 39 39 36 38 37 35 31 9 7 29 35 6 4 15 14 9 20 4 5 5 6 8 10 8 9 11 8 5 10 9 7 5 4 8 6 5 1 4 5 4 4 1
54 50 52 51 44 42 41 38 41 39 45 31 6 5 27 29 11 13 7 20 18 10 6 5 5 7 5 6 4 6 3 3 2 6 10 7 1 2 6 6 2 5 5 4 4 3 6
53 52 53 50 47 42 40 41 45 40 48 35 4 9 5 9 5 20 19 15 20 13 20 9 9 6 8 3 5 6 5 2 1 4 2 8 5 7 7 7 4 3 2 1 5 3 4
52 51 56 50 43 42 42 41 45 42 51 39 5 8 8 14 17 16 20 15 20 15 11 10 9 17 12 5 5 2 5 3 1 3 3 4 5 5 5 4 2 3 5 3 5 4 5
53 54 48 47 45 43 40 42 44 46 52 30 6 4 6 4 17 18 20 23 26 18 12 17 12 12 7 8 8 7 7 4 5 1 4 2 3 2 2 3 2 2 4 4 5 3 5
55 54 51 47 43 39 40 36 52 44 46 9 15 5 3 10 18 17 21 23 25 20 12 24 11 13 6 10 5 5 6 8 10 8 5 6 5 3 4 3 3 5 7 7 5 3 5
55 53 49 45 43 39 33 42 48 47 33 9 19 2 3 9 14 19 22 18 27 21 21 12 19 14 5 7 6 9 12 10 10 6 5 6 5 3 3 3 2 7 4 5 9 5 7
52 49 47 43 41 38 37 39 39 42 39 29 8 7 2 4 13 11 24 21 19 17 16 22 8 7 11 4 4 6 5 5 3 7 3 5 5 3 4 3 4 5 5 6 6 1 1
45 44 44 43 44 39 44 39 42 40 40 38 29 7 3 2 8 16 15 20 16 9 15 7 2 3 2 3 3 5 5 5 4 3 6 7 4 4 3 4 7 7 3 5 5 2 5
42 42 43 44 42 43 42 41 43 43 40 32 20 25 2 3 4 17 15 16 10 6 4 3 5 2 3 3 3 3 3 7 6 9 5 3 3 5 2 3 7 7 6 3 6 6 6
38 39 40 39 39 41 42 42 42 44 39 33 26 22 12 3 6 6 6 9 12 13 8 4 4 2 2 4 4 3 3 5 4 6 7 7 6 3 3 3 6 6 4 7 6 4 7
31 31 35 36 38 39 41 42 42 37 39 39 11 20 23 3 5 19 23 23 17 12 6 1 3 5 4 4 1 3 2 2 4 3 3 1 7 6 8 5 3 3 5 5 7 8 4

GFSGBSN_925_spd_045.txt.gz
Wind_Speed
21 20 20 20 22 23 21 18 17 16 20 18 15 14 14 14 15 17 18 18 19 20 21 19 17 16 7 4 8 5 10 0 11 10 5 3 3 3 1 4 3 5 5 1 7 7 5
24 23 24 23 23 22 22 22 22 18 20 20 18 15 14 15 16 17 18 18 20 20 20 17 15 11 2 3 3 0 6 4 3 7 4 5 5 5 4 5 1 2 4 3 2 6 3
24 25 26 26 24 22 20 21 22 21 21 20 20 17 15 15 16 18 18 19 20 19 19 15 10 6 1 13 3 3 11 11 8 8 5 8 4 2 1 6 3 1 4 5 2 3 4
28 27 27 27 26 24 22 20 19 21 22 19 20 18 17 15 16 18 20 20 21 20 17 10 5 2 7 5 7 16 11 10 9 11 12 6 3 4 3 5 6 4 4 3 4 0 3
31 29 28 26 27 26 24 22 20 19 22 18 19 18 17 16 15 17 20 21 23 21 12 5 0 2 9 9 10 11 11 6 8 12 10 11 2 2 5 2 4 5 1 1 3 3 4
34 33 31 28 27 26 26 26 22 20 19 19 18 19 16 16 15 17 20 22 19 8 1 1 1 3 7 3 3 8 9 12 3 3 2 4 5 3 4 4 2 2 1 2 6 4 4
39 36 33 32 29 27 26 27 25 21 18 18 19 18 16 15 13 15 18 8 3 1 3 8 4 4 5 12 9 5 6 8 3 6 3 3 4 2 5 3 5 4 3 5 6 4 6
41 40 39 35 33 29 28 26 24 23 18 16 16 15 14 14 12 13 12 1 3 3 8 13 15 9 15 4 5 5 8 5 4 5 1 4 2 7 5 4 3 3 1 3 6 5 6
41 41 43 40 38 33 30 27 25 24 20 18 15 14 14 13 11 11 6 8 12 10 4 7 6 6 6 12 7 7 7 5 4 5 6 5 4 2 4 2 2 1 1 5 3 6 2
43 43 43 43 42 37 33 29 27 24 23 20 17 14 13 11 7 5 5 2 15 11 3 6 5 7 7 7 5 11 8 6 2 9 6 4 3 2 3 3 3 1 3 6 5 2 4
48 46 44 42 44 40 36 32 29 26 24 22 18 15 15 16 2 4 3 11 2 0 3 3 4 6 8 10 2 6 9 4 8 6 6 7 7 4 3 5 4 5 1 4 2 5 2
49 46 44 40 42 44 39 36 32 29 25 22 20 17 16 18 18 15 10 12 5 4 6 4 7 7 6 5 2 3 5 4 4 5 1 4 1 4 5 4 6 3 2 6 4 3 2
51 48 45 43 41 42 42 38 33 30 26 24 19 18 19 15 4 10 6 2 2 4 4 4 5 7 6 6 3 3 4 6 6 4 3 2 3 2 3 3 2 4 5 3 4 3 5
53 51 47 46 45 44 42 41 38 33 27 24 20 19 21 22 14 6 2 3 9 7 7 4 2 4 9 6 5 5 5 5 4 4 3 5 5 6 3 3 5 2 5 4 3 2 4
55 52 49 46 44 45 45 41 33 34 30 24 18 19 18 20 20 9 1 9 8 7 4 4 3 4 4 4 6 5 7 6 9 8 7 5 5 1 2 2 5 2 2 3 6 2 3
57 54 51 48 46 46 43 44 42 34 33 26 20 11 17 18 26 6 4 19 7 5 4 4 7 6 8 7 7 7 7 5 6 9 6 7 1 3 2 2 3 5 4 1 3 1 2
60 56 53 49 47 44 47 43 40 33 35 30 16 4 14 23 19 3 10 13 13 15 3 3 3 2 7 8 10 6 7 6 7 5 5 5 5 4 2 5 7 2 2 3 4 4 4
62 59 55 51 48 48 47 46 44 41 37 33 9 5 28 35 10 4 13 5 4 15 2 4 2 5 5 7 8 9 10 10 9 10 9 7 6 5 9 3 1 3 5 5 4 4 1
63 60 56 51 48 48 52 50 45 44 42 28 8 5 26 33 12 16 8 15 9 8 7 6 6 5 4 4 5 6 8 6 5 9 10 8 1 2 7 4 2 4 4 4 4 3 6
63 61 57 51 47 46 55 51 48 44 43 24 5 7 6 12 14 20 21 14 20 13 15 2 3 3 1 4 4 8 6 4 6 7 7 7 4 8 9 9 4 3 4 4 5 3 4
64 62 58 53 50 53 54 50 48 45 49 26 5 8 7 14 21 17 19 15 20 16 13 6 5 7 2 2 2 4 3 2 3 6 2 6 4 4 4 4 3 4 4 7 6 6 6
62 64 60 55 53 54 55 50 44 48 53 26 7 5 4 4 18 24 18 21 24 23 7 12 15 4 14 9 8 7 6 4 6 2 4 3 4 3 2 3 4 4 6 6 6 3 6
64 61 58 56 57 57 53 53 52 47 50 14 18 4 3 11 19 19 28 23 23 19 17 15 16 12 6 12 9 14 7 4 9 10 6 5 6 4 4 2 2 5 8 8 6 5 6
65 60 57 54 56 56 55 51 47 50 56 22 28 3 4 9 14 24 19 20 22 25 20 16 23 11 5 4 2 5 8 9 8 6 3 7 6 3 3 3 3 7 3 4 5 2 4
60 57 53 56 57 54 50 52 49 50 50 43 17 5 2 4 13 14 17 23 15 19 19 19 8 18 8 2 2 3 5 4 3 7 5 3 5 3 5 4 5 3 3 7 6 2 3
54 53 55 56 55 49 48 47 45 45 47 46 10 25 2 2 11 8 18 18 13 16 10 14 9 5 4 3 3 6 5 5 4 3 4 6 6 5 3 5 7 8 4 5 6 2 5
54 54 53 52 50 47 45 44 42 44 44 43 9 18 3 2 3 12 9 15 13 8 6 5 11 3 3 3 3 4 4 6 7 10 6 3 3 6 3 3 7 7 5 5 6 7 8
50 49 47 45 44 44 40 39 37 41 38 39 16 13 4 1 5 4 5 4 6 12 12 4 6 2 2 4 4 5 3 6 4 5 7 7 7 4 3 3 6 5 4 8 6 3 7
42 41 40 39 39 36 34 34 36 33 34 36 9 14 11 1 3 10 16 25 14 9 8 5 4 6 6 4 2 3 2 2 4 3 2 3 7 6 8 6 3 3 4 1 4 9 5

GFSGBSN_925_spd_048.txt.gz
Wind_Speed
22 22 22 22 21 20 20 23 22 21 20 19 22 21 18 17 16 17 17 18 18 19 21 21 21 19 8 4 8 4 7 8 12 9 5 4 3 3 1 3 2 3 5 1 2 7 5
25 25 24 23 24 22 22 21 23 23 22 18 21 23 20 19 17 17 17 18 19 19 20 20 18 15 3 4 3 1 7 9 6 6 5 5 5 4 2 4 1 2 3 4 4 4 5
27 26 26 25 25 25 24 22 21 21 20 22 22 23 21 20 19 18 19 18 19 20 20 19 14 8 2 13 3 8 3 3 4 7 3 6 4 2 1 4 2 2 2 4 0 3 3
30 29 27 27 26 26 25 23 23 21 19 20 22 23 21 20 20 19 20 20 20 21 21 16 7 3 7 6 7 15 13 8 7 9 12 6 3 2 3 3 5 3 3 0 4 2 1
35 33 32 29 28 26 24 24 23 22 20 19 20 22 22 19 19 19 21 22 22 23 14 5 1 1 9 6 8 10 13 6 5 7 7 7 2 2 5 2 4 5 1 1 4 5 2
34 37 35 33 30 29 27 24 23 22 21 21 19 20 18 18 18 19 21 22 18 7 2 2 1 3 8 2 4 2 5 7 2 2 1 3 4 3 3 3 4 3 2 3 5 3 5
37 30 36 37 34 31 29 27 24 22 21 19 18 18 17 15 15 17 19 9 3 1 3 8 4 4 5 10 5 3 4 9 4 4 2 3 4 3 7 5 3 2 3 5 3 5 4
42 37 34 35 37 35 31 28 27 23 21 19 16 17 13 12 13 15 13 4 1 1 7 12 15 8 14 4 4 4 9 5 5 5 2 4 4 6 3 3 3 2 3 4 4 3 3
42 44 39 36 34 37 34 31 29 25 23 18 17 15 10 11 13 11 11 12 3 8 3 7 6 6 6 12 7 6 8 5 4 5 5 5 4 5 3 3 2 2 3 2 2 5 0
44 42 44 41 38 35 36 34 31 27 24 20 18 17 10 9 7 7 7 1 13 10 3 6 5 7 7 8 4 11 10 6 2 9 7 5 3 4 3 3 5 2 3 3 4 5 3
48 45 44 41 40 40 36 36 35 29 26 22 20 16 12 12 2 3 2 9 2 2 3 3 4 6 7 10 5 6 8 5 8 7 5 6 3 4 4 5 5 6 1 1 1 3 1
51 49 47 45 41 40 41 39 37 33 29 24 21 18 12 14 17 14 6 16 3 3 7 4 7 6 7 4 3 4 4 6 4 5 1 4 2 4 6 3 6 2 3 5 4 3 1
53 52 50 47 44 41 43 40 38 36 31 26 23 19 17 11 4 14 12 3 3 5 4 4 5 6 5 6 4 5 7 7 6 4 3 2 3 2 3 2 3 2 5 3 4 3 4
54 54 53 49 46 42 41 41 39 38 32 29 24 20 20 22 15 4 2 3 10 6 6 4 2 5 8 5 6 5 5 6 2 5 3 6 5 5 4 5 7 3 6 5 2 2 3
56 55 55 52 49 45 41 40 39 38 35 28 21 23 20 22 23 8 1 9 6 6 4 4 1 5 4 5 6 5 7 8 9 8 7 5 5 3 2 0 4 3 2 4 6 3 2
58 56 56 55 51 47 43 40 42 38 37 31 20 13 20 22 21 8 4 17 8 5 3 3 6 4 8 7 6 8 8 6 6 10 5 8 1 2 2 2 1 3 6 3 3 2 3
61 57 56 56 54 49 45 43 41 40 37 35 16 4 8 24 20 5 13 11 16 11 4 3 3 3 6 7 9 6 9 3 7 5 5 5 5 3 1 4 6 2 1 4 5 4 4
62 60 57 57 56 51 48 46 46 48 39 35 8 6 18 37 12 7 17 8 6 17 2 4 2 3 3 6 6 8 10 9 9 10 8 6 5 5 9 1 2 4 7 6 4 4 1
59 60 59 58 59 53 49 47 47 49 51 32 5 5 26 31 14 17 9 16 6 6 8 4 4 4 3 1 3 7 7 5 9 8 9 7 1 1 7 5 2 3 5 4 5 4 6
55 61 59 59 61 55 51 48 49 48 49 37 4 7 5 10 13 16 21 17 22 6 8 2 2 2 2 4 4 3 6 4 7 8 8 8 4 8 9 8 5 4 5 5 6 4 5
54 56 58 59 62 58 54 51 53 56 51 35 5 7 6 14 20 18 19 14 19 17 14 10 3 6 2 5 3 4 2 3 2 5 5 6 8 6 3 3 5 5 5 8 6 6 6
52 52 58 60 63 60 57 54 56 60 51 28 5 3 3 9 17 20 14 22 24 21 9 14 6 9 10 5 5 3 2 2 5 4 7 2 4 3 3 3 1 4 4 7 4 3 5
51 52 53 60 62 59 56 57 60 62 53 11 8 3 2 12 20 16 25 21 19 19 18 7 20 10 5 15 12 11 7 5 3 3 9 8 7 3 4 3 3 5 8 7 6 5 7
47 49 49 61 62 58 56 58 63 64 65 12 9 1 3 5 13 23 19 17 24 23 12 19 11 6 6 2 1 2 3 2 7 3 3 7 7 3 3 3 2 6 2 3 8 6 5
43 47 46 62 60 57 55 63 63 60 52 27 14 8 3 5 9 12 17 23 11 14 15 11 14 8 4 5 3 0 4 1 2 5 3 1 6 3 5 4 5 3 5 7 7 9 6
35 37 57 62 59 58 59 60 63 55 55 39 15 18 2 2 11 12 14 14 16 12 5 11 9 4 3 2 3 3 5 5 5 2 2 6 6 5 3 5 8 8 5 5 5 5 7
21 50 58 59 59 59 58 58 54 46 45 38 21 13 4 2 2 9 11 14 10 9 3 5 9 5 7 3 2 4 9 4 6 10 5 3 3 5 3 3 7 7 4 5 5 8 9
49 55 53 53 55 56 55 52 48 40 37 31 24 21 3 4 4 4 3 6 9 16 7 4 5 5 2 7 5 4 4 6 3 4 7 7 7 3 3 3 7 8 4 9 7 1 7
51 50 49 48 49 50 48 44 39 36 36 32 9 26 19 6 2 4 9 12 5 5 8 5 5 6 8 4 1 3 2 1 4 4 1 3 6 6 9 7 4 6 4 3 5 5 7

GFSGBSN_925_spd_051.txt.gz
Wind_Speed
21 21 19 19 19 18 18 18 18 21 21 21 19 19 19 21 20 20 21 20 20 21 21 22 21 19 8 3 7 3 3 9 15 12 7 4 4 3 1 3 2 4 3 3 6 4 4
25 23 23 21 21 20 19 19 19 20 19 19 21 20 17 20 20 22 21 22 21 22 21 21 20 15 2 5 3 1 9 13 9 10 5 4 3 3 2 3 2 3 1 2 2 4 3
27 26 24 25 23 21 21 21 20 20 19 17 18 21 21 19 18 20 22 23 23 23 22 22 17 8 1 13 4 10 9 4 7 7 4 5 2 1 1 3 1 2 2 2 1 3 3
25 29 28 26 26 23 22 22 21 20 20 19 17 17 19 20 19 19 21 24 25 25 26 20 9 1 7 5 7 13 13 8 10 9 6 2 1 1 2 4 3 1 3 2 1 2 1
30 27 26 30 29 27 25 23 21 20 20 19 18 17 18 18 19 19 18 22 26 29 17 4 4 3 8 4 8 8 16 6 6 6 5 1 2 1 1 2 2 3 2 2 0 7 3
30 35 32 26 31 31 28 25 23 22 20 19 19 17 15 17 16 16 17 21 23 13 2 2 2 2 6 2 2 2 7 10 3 5 3 1 3 0 1 2 4 4 3 3 4 2 4
32 31 35 32 27 29 30 28 25 23 22 19 18 17 12 13 12 14 16 9 3 2 4 8 3 3 3 5 3 4 7 9 4 3 3 1 2 5 7 4 1 1 0 4 1 4 2
36 34 35 34 33 30 29 29 27 24 22 19 16 16 11 10 9 10 11 3 2 1 9 13 16 10 12 0 3 5 10 6 4 5 3 1 4 6 3 2 3 3 2 3 2 2 2
42 39 37 36 35 37 32 29 30 27 23 20 17 13 10 8 9 7 10 10 3 9 4 7 7 6 6 12 8 6 10 5 4 6 6 5 2 3 4 2 3 3 3 2 2 2 2
42 43 41 40 37 35 36 33 30 30 26 22 18 14 11 6 4 6 4 2 9 5 3 7 6 7 7 8 5 10 14 6 2 9 8 4 2 5 3 4 6 3 4 4 4 2 2
44 44 43 42 40 39 36 37 34 31 29 24 20 16 12 12 1 3 6 10 5 2 3 2 3 5 5 8 8 6 9 3 9 6 5 4 5 5 4 5 5 4 3 0 2 3 0
48 46 45 45 44 41 40 34 38 33 31 28 24 20 15 15 12 9 6 12 2 2 8 3 6 5 6 4 3 5 5 5 4 5 1 3 1 3 5 4 4 3 2 5 4 2 1
50 49 48 46 46 44 41 39 36 38 33 31 27 23 21 16 6 13 9 2 3 7 4 2 4 5 6 5 5 5 9 6 7 6 5 1 3 2 3 3 2 2 2 1 0 1 3
51 50 49 48 47 47 44 41 38 38 38 33 30 23 24 23 16 7 7 3 11 5 7 4 1 5 7 5 4 3 9 10 2 5 4 6 4 7 5 5 5 5 5 3 3 2 0
53 52 50 49 48 48 47 43 39 39 38 35 29 25 23 26 23 10 3 11 7 6 4 3 1 4 4 4 5 3 7 13 11 7 6 5 4 1 3 3 5 4 4 2 6 2 0
52 53 54 51 50 50 49 46 41 39 36 36 27 16 23 27 26 10 6 20 8 6 1 2 3 4 9 6 5 9 7 5 7 8 4 7 2 2 1 2 4 2 6 3 1 4 3
50 52 53 55 53 51 51 49 45 40 40 36 22 6 15 28 22 5 14 14 17 8 1 1 1 3 4 6 7 6 10 2 7 7 4 5 3 1 2 5 8 3 2 5 3 1 2
49 50 52 55 56 53 53 52 48 42 40 40 13 10 24 38 13 10 17 14 11 17 2 5 1 3 3 4 5 7 10 8 9 12 10 6 4 4 6 1 1 3 6 5 3 4 0
52 52 51 53 56 56 55 55 52 46 45 33 8 7 23 30 14 15 12 17 10 11 10 6 6 4 2 2 3 5 6 4 8 9 9 8 2 2 1 1 2 3 4 4 4 3 7
53 53 52 52 56 58 57 59 56 51 51 32 5 7 5 12 13 18 19 21 23 16 8 4 3 2 1 3 2 1 4 3 7 5 6 9 4 6 9 7 5 4 6 7 5 3 5
55 55 54 53 55 57 59 62 59 55 55 32 5 6 7 11 20 19 21 17 26 13 18 11 5 11 4 5 3 3 1 1 1 6 4 5 7 6 5 5 6 6 6 11 10 7 8
56 54 56 54 55 59 60 65 61 58 59 26 5 4 3 5 23 19 16 18 28 26 13 19 13 8 11 8 6 2 5 3 4 0 5 2 4 5 4 4 7 6 5 8 10 4 9
54 53 58 55 55 56 62 66 62 60 63 11 12 8 8 11 18 16 20 20 20 20 15 8 16 6 6 13 11 5 4 5 4 4 3 3 6 4 4 2 3 3 8 10 6 5 7
48 54 56 53 55 58 65 66 62 63 63 21 11 4 8 9 13 20 13 14 19 25 9 14 13 14 4 1 1 2 1 2 6 6 5 5 5 1 3 1 5 2 2 3 8 5 9
44 47 49 50 50 57 67 65 63 64 68 18 18 4 4 9 12 15 16 22 9 13 16 14 6 5 5 4 3 2 3 3 0 1 5 3 5 3 4 4 4 1 4 7 7 15 9
35 40 42 45 48 63 67 64 61 61 66 17 23 12 2 7 5 9 17 17 14 12 6 7 2 3 6 2 2 2 5 3 3 2 3 4 3 4 3 5 8 6 4 5 4 12 9
35 37 41 37 49 65 63 61 58 58 61 37 8 20 5 1 3 1 9 14 13 6 5 4 8 3 4 2 2 3 4 6 2 4 6 3 2 7 3 4 6 6 4 5 5 10 5
33 38 43 31 61 61 59 55 54 56 55 44 8 16 9 1 3 4 5 5 8 14 7 4 6 4 2 5 4 4 4 6 5 3 4 7 7 4 3 2 7 8 6 9 7 3 5
34 33 31 58 57 55 52 51 52 50 49 34 7 13 11 2 4 3 7 17 7 22 9 10 6 6 7 4 4 3 2 0 6 8 2 5 5 5 9 7 2 10 4 6 5 4 6

GFSGBSN_925_spd_054.txt.gz
Wind_Speed
21 21 20 19 17 16 16 15 15 15 14 17 21 20 19 17 17 19 18 19 20 20 20 22 23 23 11 7 8 4 5 10 16 9 11 9 9 5 7 3 5 10 8 8 5 6 6
21 23 23 22 20 19 17 17 17 16 16 16 16 16 18 18 17 19 20 19 21 21 21 22 23 20 5 11 3 3 6 14 10 12 10 8 3 2 6 6 7 2 7 4 1 4 4
25 21 23 24 23 21 20 19 19 18 17 16 17 15 15 15 19 19 20 19 21 22 23 21 23 8 6 15 4 7 12 6 10 9 8 7 2 4 3 5 2 5 9 5 6 5 2
24 29 24 23 25 25 22 21 19 18 18 17 16 17 14 15 17 16 20 20 22 23 25 21 13 5 8 6 8 10 11 7 9 8 4 3 3 5 4 4 5 7 6 8 8 7 3
25 26 27 27 26 23 26 24 23 20 19 18 16 16 16 14 13 15 16 18 20 22 20 5 2 6 8 3 7 14 17 6 8 8 6 3 4 3 5 9 8 8 9 3 7 3 3
26 25 26 27 31 29 25 25 26 22 20 19 17 15 15 12 12 13 14 17 20 15 2 2 4 6 8 4 5 6 15 13 5 9 6 7 5 8 7 8 9 7 10 8 6 9 9
30 30 29 28 27 29 28 25 25 25 22 20 18 15 14 9 9 9 10 9 6 5 6 9 4 6 1 2 4 10 9 13 10 9 11 9 8 10 5 3 9 5 8 8 5 3 5
37 33 32 32 31 29 26 28 25 25 24 21 18 15 13 8 8 6 5 5 3 3 10 15 19 19 20 2 4 10 13 13 11 14 7 7 11 4 3 4 5 6 8 8 3 7 5
41 38 36 35 35 33 29 27 31 25 25 23 19 17 12 9 8 7 9 8 3 4 7 10 12 10 9 17 10 13 15 16 15 15 14 12 3 3 7 8 9 9 10 4 6 6 6
40 39 38 37 37 35 34 31 28 37 28 25 21 18 14 8 7 8 7 6 6 7 6 6 8 8 10 10 11 17 20 15 7 17 13 11 6 8 9 11 10 11 5 7 7 7 8
43 43 41 39 38 38 37 35 32 28 36 25 24 20 16 17 3 7 7 3 8 7 6 5 5 6 8 18 13 17 23 10 18 12 9 9 9 10 10 10 7 4 2 3 6 9 6
45 44 43 41 40 39 38 38 35 31 31 37 25 22 18 17 16 7 11 2 6 5 9 3 6 8 9 14 7 14 13 8 8 11 9 8 2 5 4 4 8 6 5 4 5 6 9
47 46 45 44 42 42 40 39 36 34 30 31 27 23 23 20 13 16 9 5 6 10 2 6 5 8 13 13 12 18 22 20 16 17 16 14 13 6 6 7 7 10 7 6 6 6 7
47 47 47 46 44 43 42 41 39 36 32 29 33 24 26 27 22 7 13 7 14 8 16 1 3 8 10 15 13 17 23 21 23 19 12 14 13 15 11 13 9 14 12 6 5 4 2
48 48 48 48 45 44 43 43 41 38 33 29 24 26 26 29 24 15 8 13 14 14 12 7 6 8 10 10 8 14 20 24 23 20 14 15 13 5 7 5 10 7 9 4 2 1 4
50 49 49 47 49 47 45 44 44 41 36 31 26 19 26 26 23 16 9 27 18 15 9 9 13 8 12 14 10 15 18 19 23 21 18 7 9 5 7 6 4 7 10 6 5 5 6
52 51 51 49 48 49 47 46 45 44 39 33 23 7 17 33 20 7 13 28 27 15 12 9 11 7 5 13 18 16 14 6 23 20 20 10 9 6 7 11 11 6 7 4 3 3 4
33 37 51 50 48 48 49 49 49 48 43 36 15 10 24 36 9 6 17 30 16 23 16 6 4 6 5 8 14 19 22 15 17 21 21 16 9 9 13 3 5 9 11 11 7 6 3
41 42 42 45 46 47 50 50 53 53 51 36 7 4 30 31 13 15 25 29 28 22 23 13 11 7 4 2 5 16 12 12 13 19 18 13 9 10 9 6 4 9 11 12 7 3 11
48 49 48 48 49 49 49 52 56 59 56 37 6 6 5 12 18 29 25 26 29 26 25 13 11 8 7 4 4 3 8 5 11 16 1 16 14 16 13 13 11 11 13 15 14 8 11
52 53 53 52 52 51 50 53 56 63 62 36 8 7 9 15 19 29 29 22 27 21 23 19 15 17 11 6 3 2 1 4 5 4 6 11 16 17 17 16 15 16 14 15 16 16 13
52 53 55 55 54 53 53 54 57 66 66 23 6 8 14 14 26 31 28 27 27 32 24 24 18 20 11 12 4 5 5 8 2 4 6 6 10 10 12 13 13 16 17 18 18 17 12
48 49 52 56 57 56 53 54 57 69 66 9 17 19 13 16 24 21 25 29 31 26 27 26 21 13 18 18 10 5 5 6 7 5 6 4 9 8 13 8 8 6 15 16 16 14 14
40 42 46 56 59 57 53 54 56 71 66 26 29 11 10 13 15 22 30 28 26 27 28 13 21 17 8 5 4 2 3 5 9 10 10 5 9 5 5 4 7 10 3 17 18 15 14
36 44 40 57 57 54 54 56 60 71 67 27 35 14 9 12 18 20 27 32 21 19 23 20 13 16 7 7 4 6 5 4 9 7 12 14 7 4 4 9 10 3 5 8 13 15 16
21 36 40 48 53 54 53 56 62 70 67 28 28 27 6 12 16 22 19 24 21 18 19 18 17 7 12 5 5 9 8 6 7 4 2 7 8 7 3 7 8 9 12 11 4 14 11
19 35 40 45 48 51 52 54 69 65 60 30 18 27 13 9 12 13 14 18 22 17 15 15 10 8 10 7 4 5 6 6 9 10 5 5 4 11 11 7 6 4 9 11 10 15 4
22 32 41 46 49 49 50 61 67 63 38 38 22 21 17 8 7 7 12 15 18 16 14 15 11 7 7 9 7 5 4 5 5 11 7 8 8 5 7 6 11 11 10 12 13 4 7
28 33 38 42 44 46 57 64 63 60 39 29 11 10 9 3 4 5 5 9 9 18 15 14 13 12 7 7 5 5 3 2 8 6 6 6 6 4 7 6 4 19 14 16 6 8 7

GFSGBSN_925_spd_057.txt.gz
Wind_Speed
17 17 19 20 19 18 17 16 14 15 15 16 15 15 19 19 18 17 17 19 20 21 22 24 24 25 15 8 11 1 6 8 12 11 13 12 13 13 13 6 5 12 12 8 10 6 9
23 21 17 18 20 20 19 19 17 16 17 16 16 17 15 16 18 16 18 21 20 19 22 23 23 22 13 16 2 3 5 11 13 14 13 14 12 7 11 10 10 7 10 11 6 11 7
22 22 25 24 18 20 20 20 19 18 17 17 17 16 17 15 14 16 20 22 21 21 21 22 21 11 13 21 5 5 9 12 13 14 12 13 8 11 5 11 8 12 17 13 6 9 9
21 21 23 24 26 23 20 21 21 20 19 17 17 17 17 18 15 19 20 17 19 19 21 21 17 7 9 10 9 11 14 11 10 11 10 7 9 12 12 9 11 15 18 10 8 27 5
23 22 22 23 24 25 26 21 22 22 21 19 18 17 17 18 18 15 16 16 18 18 20 14 5 7 12 5 13 19 19 15 14 11 10 5 10 14 11 12 14 16 10 13 8 20 7
25 26 26 25 24 22 24 31 26 22 23 22 19 18 17 16 15 15 15 15 16 20 6 6 10 7 11 11 11 14 22 18 11 12 11 11 10 13 14 13 12 8 12 13 6 11 9
28 32 28 27 28 26 23 20 30 28 22 22 21 19 17 15 15 13 15 14 8 7 13 10 2 15 4 7 5 13 23 20 14 14 16 17 13 14 17 8 10 13 14 12 16 17 14
34 33 31 35 29 29 27 24 22 26 27 21 21 18 17 14 13 14 10 7 6 5 11 17 21 22 24 4 6 15 23 18 15 17 18 14 15 17 4 5 9 11 13 14 6 5 8
37 37 36 34 32 34 31 29 27 23 26 25 20 19 15 14 13 14 15 12 4 6 8 15 23 25 22 22 13 17 21 23 19 19 19 16 10 5 7 10 10 11 14 12 9 6 12
40 39 38 37 37 34 32 32 30 27 23 25 23 18 14 11 10 16 16 13 10 7 7 15 8 9 22 19 16 28 29 22 16 20 19 16 13 8 11 11 11 13 14 11 10 10 9
41 41 40 39 39 38 35 32 32 30 27 23 24 21 16 15 12 9 4 8 8 6 7 4 14 5 9 20 7 26 28 23 24 17 14 17 15 11 15 15 12 12 1 7 12 14 15
43 42 42 40 39 39 38 36 33 33 30 25 24 22 19 14 19 22 7 4 9 8 16 7 9 11 13 22 18 11 27 26 19 19 17 18 12 13 16 7 7 8 7 10 11 11 11
43 43 43 42 41 40 39 38 36 33 32 26 25 22 23 20 13 16 17 6 8 15 5 13 9 13 17 14 22 18 28 26 21 21 21 19 15 14 6 11 9 10 13 8 6 8 10
44 44 44 44 43 42 40 39 38 35 33 29 25 21 25 26 21 17 10 7 17 21 30 3 6 13 16 16 22 21 24 24 24 24 14 16 18 21 14 16 11 16 16 6 6 6 4
46 46 46 45 44 43 42 41 39 37 34 30 24 20 24 28 23 17 3 13 26 28 18 29 8 12 16 15 17 23 25 26 28 26 22 18 21 17 19 16 15 13 14 16 11 7 6
47 47 48 48 48 45 43 42 41 39 36 32 26 22 28 29 24 18 5 8 29 29 27 13 27 15 17 17 17 24 24 26 27 29 22 9 13 13 12 10 13 14 9 10 8 4 10
47 48 48 50 48 47 45 43 43 42 39 34 25 6 15 28 21 8 9 16 24 30 22 27 20 25 14 12 21 18 19 9 23 26 22 19 13 10 11 14 16 11 11 10 9 12 4
48 41 40 50 51 49 48 46 45 45 42 40 13 8 20 34 9 6 18 33 20 27 33 21 18 21 27 14 18 19 20 19 9 17 25 23 11 11 17 18 20 9 17 18 10 13 9
34 36 39 38 34 51 50 49 47 49 50 36 6 6 20 32 13 15 28 38 33 26 27 25 20 21 10 11 13 21 19 15 11 19 23 21 13 12 15 11 10 12 15 15 16 11 11
38 39 39 39 39 44 47 53 51 53 57 39 6 8 5 13 20 26 33 37 34 28 27 27 23 20 17 17 11 8 19 6 9 13 13 18 17 20 14 18 15 19 17 16 14 9 12
43 44 44 44 44 44 43 48 55 56 61 43 8 8 11 15 21 31 29 23 29 32 28 21 23 27 20 14 15 11 11 6 3 7 6 16 22 20 21 19 16 17 23 21 20 18 17
46 47 48 49 49 48 48 44 42 55 63 28 5 9 16 12 24 30 29 33 33 30 29 25 24 29 22 21 15 11 10 6 7 9 14 17 15 21 22 19 19 18 18 18 20 18 17
51 51 52 52 54 54 54 53 53 53 58 7 12 25 14 19 25 22 26 34 38 33 31 31 26 17 22 19 5 5 6 9 1 8 12 13 13 16 16 17 19 16 17 18 18 17 15
48 47 53 55 52 54 56 56 56 59 60 17 26 19 11 14 17 25 31 33 33 32 30 30 27 21 23 4 3 2 4 4 2 8 9 7 14 11 9 2 13 10 14 20 21 20 18
40 41 38 43 49 54 57 59 58 57 62 26 30 19 9 11 21 22 26 27 29 29 20 28 23 18 7 6 2 8 5 3 9 13 14 10 10 8 8 13 13 18 9 12 15 16 16
31 41 39 41 49 52 57 57 58 54 59 39 28 34 11 13 15 26 20 24 21 19 21 24 21 8 10 7 6 14 11 11 9 7 12 14 12 10 6 14 18 14 15 12 14 14 15
25 24 38 36 43 49 54 56 54 53 55 43 21 35 16 10 12 11 13 17 23 21 16 20 24 12 11 7 9 13 11 13 11 11 7 6 7 13 12 8 8 10 14 12 12 16 12
17 24 25 38 45 48 53 54 52 55 55 39 26 37 18 7 6 6 10 18 17 20 15 13 17 10 10 10 9 10 7 11 10 13 18 12 7 6 10 11 15 3 9 15 15 15 8
12 20 25 32 43 50 51 50 53 51 59 29 19 30 18 2 0 5 5 6 9 14 15 13 20 21 10 10 7 8 5 2 9 9 16 15 8 8 9 6 6 11 13 16 17 12 7

GFSGBSN_925_spd_060.txt.gz
Wind_Speed
19 20 19 17 18 19 20 19 18 17 16 15 16 17 18 18 18 21 21 20 20 21 22 23 23 24 17 7 15 5 8 9 9 10 14 13 13 14 15 17 13 10 15 14 13 14 8
19 20 21 24 22 18 19 20 19 19 18 17 16 16 18 19 18 19 18 20 22 24 23 22 21 21 11 16 13 5 6 10 13 15 15 16 13 15 15 16 16 16 15 13 12 21 19
19 20 20 23 22 26 24 19 20 20 19 18 17 17 17 19 20 21 21 22 25 23 20 20 20 13 13 23 17 10 9 16 17 16 13 17 18 14 15 14 13 15 14 10 6 19 21
22 20 19 21 21 25 25 27 21 20 20 20 18 18 18 18 21 21 22 21 19 19 19 18 18 10 10 15 14 20 20 18 17 15 16 17 14 11 15 15 18 17 18 14 12 15 18
26 23 22 23 23 21 22 22 25 24 20 20 20 20 19 19 20 22 23 23 22 18 20 17 9 9 12 7 17 21 18 21 16 13 14 13 9 12 15 16 14 18 15 15 11 10 6
27 26 27 27 24 26 24 20 21 23 27 23 20 20 20 20 21 22 24 23 17 19 11 9 12 9 12 13 12 17 21 21 17 13 12 12 8 12 14 12 14 18 9 9 2 12 20
28 27 29 27 26 28 24 25 22 19 20 26 21 19 19 19 19 20 21 14 6 6 11 10 6 9 17 6 3 11 21 22 17 13 15 16 12 15 19 18 22 13 14 17 14 6 8
33 33 32 31 32 31 28 24 24 24 21 20 20 18 16 17 17 18 16 7 8 7 11 18 24 25 31 25 8 14 23 17 19 19 18 15 18 20 20 17 7 12 15 16 9 8 11
36 36 35 33 32 32 29 27 31 25 24 22 21 19 15 14 15 17 18 23 16 11 8 19 24 23 27 27 22 16 22 23 19 20 19 19 17 22 18 11 9 13 14 16 11 9 19
38 37 37 36 35 35 33 31 28 28 28 23 21 17 14 11 10 12 13 16 19 7 7 12 15 9 27 22 26 27 25 23 17 22 22 20 21 10 10 11 12 14 13 14 10 11 10
38 38 38 37 36 35 35 34 32 28 27 26 22 16 15 16 15 8 6 9 5 4 7 5 17 7 8 22 7 27 35 25 25 22 14 19 21 18 14 15 14 14 6 6 10 11 14
40 40 39 38 37 36 35 34 32 31 27 27 25 20 14 15 17 23 16 22 4 5 12 6 9 11 11 21 25 9 28 24 23 23 21 22 15 18 18 14 15 13 10 10 11 10 11
41 40 40 39 38 37 36 35 34 32 31 28 26 23 17 17 14 14 12 7 7 11 7 12 13 12 16 17 23 23 26 27 23 23 20 21 22 18 14 18 8 11 10 8 1 5 9
41 40 41 40 40 38 37 36 35 33 31 30 26 24 20 20 21 16 2 4 14 22 31 6 13 17 18 17 20 24 23 24 26 23 17 17 16 21 13 15 14 13 14 8 6 4 8
42 42 42 42 41 40 38 36 35 34 32 29 26 23 22 20 21 16 1 13 18 26 20 27 20 12 17 18 14 22 22 24 25 26 21 17 22 15 19 15 17 14 14 15 8 2 5
43 44 43 43 43 43 40 38 36 35 33 31 26 23 24 22 23 15 5 19 26 32 28 20 27 17 13 19 19 21 24 22 25 26 19 18 13 24 23 20 19 16 14 9 7 4 4
45 44 44 45 44 43 43 41 39 37 35 32 25 6 17 28 22 6 9 27 34 33 30 27 23 23 22 22 21 20 22 19 23 24 21 21 16 11 16 17 16 11 13 10 13 11 5
47 47 46 46 45 44 44 44 42 41 38 37 12 9 21 36 10 5 21 33 26 28 28 28 25 26 24 25 10 19 21 21 16 25 27 25 6 12 15 14 16 19 16 17 9 9 9
46 45 42 41 43 45 42 42 46 45 46 34 5 5 21 30 13 17 23 34 32 31 32 27 23 23 24 23 17 16 21 16 10 15 22 22 14 11 14 15 16 15 12 15 13 10 12
39 37 36 34 37 33 35 34 48 50 51 35 6 7 5 12 18 26 27 33 28 31 31 29 26 24 20 19 18 17 13 15 10 8 4 10 13 14 10 17 13 13 16 18 18 6 6
35 36 37 37 37 36 37 37 47 54 56 41 7 6 12 13 21 31 24 15 32 27 32 29 26 25 20 12 16 21 15 14 14 11 5 7 17 20 17 18 19 20 20 20 21 17 13
38 39 41 42 43 42 42 40 44 56 59 38 6 6 14 12 24 25 27 28 32 28 28 35 28 26 21 21 18 21 22 14 14 12 13 11 14 15 19 17 22 15 21 21 20 19 17
43 44 45 45 46 46 47 46 44 45 63 8 12 22 11 17 21 18 23 34 33 27 26 30 29 24 20 21 5 6 13 18 13 13 10 11 9 13 17 16 18 19 17 17 15 19 16
45 48 49 49 49 49 50 51 50 50 58 15 17 14 5 9 18 21 31 31 31 27 26 27 25 28 23 8 12 3 11 12 15 9 6 2 11 11 4 3 21 11 15 16 15 16 15
45 42 43 45 49 53 55 56 55 53 52 30 18 17 9 6 18 23 27 23 26 24 24 24 24 25 20 5 1 2 4 4 8 1 3 4 3 3 5 11 13 16 15 11 11 17 18
37 39 41 42 44 48 54 60 60 56 54 41 24 33 9 14 14 26 18 22 17 18 19 24 21 19 14 7 4 5 5 9 3 2 8 3 12 6 3 5 14 9 14 16 9 13 14
34 34 35 38 40 48 50 58 60 58 54 48 17 31 10 9 12 15 12 16 20 18 14 16 22 6 5 8 9 7 10 13 8 9 6 4 7 9 6 4 7 8 16 14 15 9 8
27 33 39 41 34 43 43 54 56 56 53 44 25 30 11 7 5 7 7 12 10 13 13 13 12 11 10 11 9 6 5 9 12 15 12 11 10 5 3 3 13 7 8 20 8 10 3
15 10 6 28 38 39 44 51 51 53 53 47 10 29 28 4 1 6 9 8 16 10 4 13 15 7 7 8 5 5 3 5 9 7 10 11 8 6 7 6 7 7 6 7 7 9 9

GFSGBSN_925_spd_063.txt.gz
Wind_Speed
15 18 17 18 20 19 17 17 17 17 18 18 18 18 19 20 21 20 20 19 20 22 23 24 24 23 15 4 11 15 9 9 9 10 10 6 8 6 9 7 8 7 7 8 3 6 6
15 17 19 19 20 20 20 20 18 18 18 18 19 18 19 20 22 23 24 22 21 23 24 21 20 19 4 10 13 15 14 11 13 12 7 13 8 9 9 9 8 9 10 10 5 5 2
19 20 20 19 18 17 21 22 24 23 19 19 18 19 19 20 21 24 26 25 23 23 20 17 16 12 9 21 16 11 14 17 14 18 8 18 23 6 6 8 9 11 9 9 5 4 3
21 23 19 21 22 20 18 18 22 23 22 18 19 19 19 21 22 24 28 29 27 24 20 17 13 7 9 18 17 24 19 23 19 17 24 22 21 9 3 6 10 10 8 5 10 2 5
22 22 22 25 26 23 22 21 20 20 20 21 22 19 20 19 21 24 29 32 30 22 18 14 7 7 10 14 11 24 26 18 23 23 23 17 12 3 3 4 6 6 10 14 5 6 3
23 23 24 24 25 26 27 23 24 21 18 18 20 22 20 19 20 22 27 35 22 20 10 7 8 5 10 5 11 16 17 22 10 7 6 5 3 3 2 3 7 10 6 8 6 7 6
25 23 23 24 26 27 24 23 26 22 22 20 18 18 18 18 17 18 23 14 2 1 6 9 11 7 12 13 22 8 19 15 8 5 9 6 5 12 12 14 17 16 14 8 4 5 6
27 28 29 28 28 27 26 26 26 27 22 21 19 17 15 16 15 16 16 5 9 7 10 15 20 21 31 25 11 17 17 9 9 14 8 6 16 15 15 17 16 17 6 8 2 4 4
33 33 31 30 29 29 29 28 26 25 26 26 21 18 15 14 13 18 19 20 21 24 5 13 23 15 23 22 15 20 8 13 9 11 12 14 13 18 18 18 17 9 6 8 7 4 6
35 34 33 31 31 31 30 30 29 27 25 21 24 19 14 9 10 16 10 9 9 14 5 7 9 8 14 12 11 29 18 14 7 17 15 10 18 19 18 20 7 6 10 8 7 3 4
37 35 34 33 32 31 30 29 28 26 27 23 20 19 13 11 12 9 12 20 20 6 6 7 6 8 8 17 8 15 35 8 19 17 10 13 7 19 20 13 7 8 9 2 4 6 5
39 38 36 34 32 31 30 29 27 26 26 24 21 19 14 10 16 26 21 28 9 3 11 6 6 7 7 21 9 4 15 17 4 17 15 11 14 14 15 10 9 6 6 4 3 2 6
39 37 35 34 33 32 31 30 28 27 25 24 23 19 18 14 10 13 13 9 3 7 5 7 6 9 8 10 17 15 9 16 15 15 17 18 20 16 11 7 6 5 1 3 4 3 6
39 37 37 36 34 33 31 30 29 27 25 24 23 20 21 19 24 20 12 4 9 17 22 4 5 4 8 7 13 17 16 14 17 14 7 13 15 18 7 13 6 7 8 5 5 4 5
39 38 37 36 36 35 33 31 30 28 27 24 22 22 21 22 23 13 3 10 13 12 12 15 18 14 11 11 8 16 19 17 18 19 14 12 18 6 11 5 7 5 6 10 3 1 2
40 38 37 36 36 35 34 32 31 29 27 25 22 15 18 26 20 12 5 23 18 15 16 13 12 6 6 8 11 13 9 11 19 22 18 5 10 19 10 10 9 11 5 2 1 5 4
41 40 39 38 37 37 37 35 33 31 29 27 20 4 13 28 20 5 14 21 22 16 16 12 11 12 15 15 13 15 6 11 15 20 22 21 8 7 18 10 15 5 9 3 6 4 5
42 42 40 40 40 40 39 37 36 34 32 30 8 5 22 35 9 7 21 17 15 13 16 14 8 14 18 17 13 10 12 16 14 19 24 14 6 11 13 14 22 16 15 9 5 4 4
43 42 41 41 41 41 40 39 38 37 38 28 4 4 20 30 12 19 21 26 24 19 20 6 12 10 13 18 9 6 6 9 18 12 18 14 15 5 6 9 4 13 6 6 7 4 6
43 43 43 42 41 41 39 38 41 41 44 33 5 6 5 12 15 24 24 22 22 11 25 17 19 20 22 21 15 10 6 7 20 14 18 17 7 15 14 5 4 6 10 11 9 3 3
45 43 42 43 37 34 35 35 39 43 48 37 5 5 6 15 22 20 19 7 23 17 20 15 13 25 20 13 16 8 5 9 16 14 4 10 19 15 8 18 12 16 11 14 18 15 9
43 40 33 29 33 35 34 32 30 40 45 31 5 5 7 8 15 22 20 25 28 15 15 16 21 17 16 20 19 4 4 3 4 12 9 3 3 15 19 12 11 11 17 7 8 10 11
38 34 34 35 36 37 38 36 35 39 39 8 16 12 8 11 11 14 26 33 23 17 18 25 20 20 21 17 10 5 5 3 4 5 9 10 5 5 13 12 10 14 12 14 14 14 11
34 36 37 38 39 41 42 42 42 43 46 30 11 11 5 6 17 22 22 25 21 20 20 20 18 14 25 4 5 7 4 4 4 7 8 15 5 4 4 5 13 5 9 7 11 12 7
39 41 42 43 43 45 46 47 48 47 47 39 15 12 8 8 18 22 20 17 21 17 24 17 20 15 6 10 4 3 3 3 3 5 5 18 3 2 5 9 5 16 7 5 7 11 7
42 42 44 44 45 48 50 54 53 52 48 42 24 26 6 13 12 23 17 19 12 15 15 19 21 8 4 5 6 11 4 3 2 4 6 14 3 5 3 2 15 2 8 7 5 9 5
43 44 45 43 41 41 43 47 53 55 51 45 20 31 9 6 9 10 15 13 14 13 11 13 9 6 2 4 4 5 7 5 3 5 5 2 4 3 3 3 6 5 9 4 7 4 6
26 28 33 37 40 41 44 45 50 55 54 45 24 37 15 3 12 10 6 6 8 11 11 5 6 7 3 4 7 5 4 8 6 9 6 7 6 4 3 4 6 6 7 9 1 8 7
22 27 31 35 39 43 43 45 49 53 54 49 12 32 33 6 1 12 15 15 6 3 3 8 7 4 4 3 2 2 2 4 7 10 5 3 6 7 8 7 9 2 3 3 13 12 5

GFSGBSN_925_spd_066.txt.gz
Wind_Speed
12 14 14 13 14 15 16 16 17 15 14 15 17 18 20 18 18 18 21 24 24 23 22 22 20 19 12 2 11 14 12 8 10 9 8 4 3 2 4 4 5 5 7 7 9 6 8
15 15 15 15 14 14 13 16 17 18 18 17 18 18 19 20 20 21 22 25 26 25 23 19 17 16 3 6 10 7 16 15 10 11 7 7 6 5 6 6 2 4 6 9 6 6 4
17 17 18 18 17 17 16 17 16 17 17 18 18 18 20 20 21 22 25 28 29 28 26 20 14 11 9 18 10 3 3 10 9 14 5 14 17 3 4 9 4 5 6 9 7 2 2
18 18 19 19 22 24 19 19 19 18 17 17 19 19 19 21 22 23 25 28 32 31 26 16 9 6 9 16 20 27 19 24 24 20 22 19 15 5 5 6 8 5 2 3 4 2 6
19 19 19 20 21 21 21 23 23 20 19 16 15 16 19 22 23 23 26 31 35 27 20 6 2 4 12 10 10 17 21 11 10 16 20 19 8 6 4 2 5 3 5 5 9 7 3
20 21 21 21 21 21 22 23 22 22 21 18 17 17 20 19 20 22 25 34 28 14 3 3 5 1 10 5 4 11 11 21 7 4 2 5 2 5 1 4 8 6 4 3 6 6 3
22 22 22 22 22 23 22 22 22 23 22 19 17 16 17 17 16 18 23 15 4 1 1 8 9 6 11 5 15 6 9 10 5 4 9 4 4 13 10 9 7 6 7 8 11 10 6
24 24 24 25 25 25 24 24 24 23 21 22 23 18 16 17 16 16 16 4 4 4 10 16 21 23 35 18 9 14 4 7 7 10 6 3 18 13 8 8 9 9 13 14 10 4 7
26 25 26 26 26 26 25 25 25 24 23 21 18 19 16 15 15 15 13 14 14 20 5 9 19 14 16 19 15 21 4 6 7 7 10 12 7 16 11 12 12 14 13 13 9 5 4
26 28 29 28 26 27 27 27 25 24 23 21 19 16 16 12 11 9 6 4 23 13 4 7 8 9 13 10 9 29 17 7 7 16 11 7 18 12 10 15 10 11 11 9 5 2 3
29 30 31 31 29 29 28 25 24 22 21 21 20 16 12 10 9 3 8 20 26 2 6 6 5 6 8 16 8 9 35 7 12 12 9 9 8 15 17 17 11 13 16 8 6 3 2
32 34 33 31 30 28 29 25 24 22 21 20 19 17 13 13 18 19 21 23 9 2 10 6 5 7 8 10 3 4 7 3 4 11 11 13 9 7 12 13 13 16 5 3 3 2 3
34 34 33 31 30 29 27 26 25 23 21 20 19 18 16 18 4 2 10 9 3 7 3 5 5 6 6 8 7 1 10 16 8 9 15 14 18 11 6 9 8 7 4 2 3 2 7
35 34 35 34 31 29 28 27 25 23 22 21 20 19 19 24 23 17 9 3 13 5 10 4 4 8 2 4 5 3 3 6 15 4 5 12 8 18 9 16 8 7 9 5 5 4 5
35 36 36 34 32 30 28 28 26 24 22 20 19 20 18 27 21 9 3 8 9 5 4 9 12 8 3 4 5 9 8 7 10 16 7 8 12 5 10 10 10 5 4 8 5 2 2
36 38 37 35 33 31 28 27 26 24 23 21 21 14 19 27 18 10 5 20 8 5 8 7 2 2 3 7 4 6 4 6 10 12 14 6 4 11 18 5 9 11 6 3 1 3 4
40 38 38 36 34 32 30 28 27 26 24 22 18 4 10 26 20 4 13 16 11 15 8 5 4 4 6 6 5 3 4 10 5 16 15 16 4 5 7 12 8 3 3 1 5 5 5
40 40 40 37 37 35 33 32 29 28 26 24 7 5 17 30 8 7 19 12 11 14 4 13 5 6 5 4 5 4 3 3 12 5 5 12 11 13 17 6 11 10 11 9 6 5 4
42 42 41 39 38 36 34 34 33 32 31 20 4 3 18 30 11 17 15 22 18 6 5 4 6 12 4 3 3 6 4 7 6 5 6 2 7 4 7 9 12 6 7 12 5 4 9
43 42 40 39 38 36 36 35 35 36 34 30 4 5 5 11 5 12 19 20 20 12 22 21 12 10 9 10 7 6 7 7 7 4 9 1 7 15 18 6 5 4 8 18 15 4 5
43 42 40 40 39 38 38 38 38 38 38 37 5 5 6 11 17 15 16 8 23 18 13 9 9 22 8 6 6 8 4 5 5 7 7 5 13 16 14 13 10 7 6 14 14 10 8
45 43 41 40 39 39 39 41 40 40 40 29 6 5 4 2 16 23 22 22 21 18 12 14 16 11 14 16 10 6 7 5 4 3 4 9 6 7 10 9 16 16 18 13 7 6 7
44 42 40 39 39 39 38 46 38 36 34 12 11 9 5 11 12 16 30 22 17 17 13 17 12 12 15 12 9 8 7 4 2 4 2 3 6 9 14 11 15 11 17 10 6 5 7
41 41 41 40 37 34 32 32 37 39 40 37 7 9 5 7 17 23 11 20 20 19 20 11 14 14 9 10 3 1 3 5 5 5 5 6 4 2 4 2 11 20 8 7 12 12 11
33 31 30 30 33 35 36 37 39 41 41 32 11 7 6 11 15 17 18 15 17 17 21 16 12 5 6 4 3 5 3 5 5 7 10 6 5 1 4 7 6 13 7 15 16 10 8
35 36 36 36 37 38 40 41 42 43 41 37 22 19 1 8 18 19 17 15 11 14 14 17 17 11 4 1 3 9 5 2 3 2 6 7 6 4 0 7 13 2 7 3 2 6 5
39 39 40 41 41 41 42 43 44 44 43 41 14 28 4 2 7 13 15 18 10 8 4 4 7 8 7 3 2 4 8 6 5 5 4 2 3 7 2 7 7 8 5 2 9 5 2
38 39 41 42 45 46 45 46 47 46 45 43 30 35 22 1 5 6 12 9 10 12 8 4 3 4 2 6 4 4 4 6 4 5 6 6 6 3 3 4 7 3 4 3 4 2 6
20 26 28 31 34 40 46 48 48 50 53 48 16 32 33 4 4 13 10 22 29 19 11 5 5 5 6 3 3 2 1 1 6 8 5 4 5 5 9 7 8 2 7 5 1 2 5

GFSGBSN_925_spd_069.txt.gz
Wind_Speed
12 13 14 13 11 12 13 13 14 14 16 18 19 18 19 19 20 22 23 25 28 27 25 23 20 19 11 3 11 8 5 4 8 9 9 5 5 5 4 2 2 5 5 4 8 11 4
15 15 15 15 14 14 14 14 16 13 14 16 19 19 18 18 19 22 23 25 28 28 27 24 18 14 3 6 7 8 9 10 12 12 6 7 6 6 2 3 3 3 6 9 7 8 6
14 14 14 17 16 18 17 18 15 16 15 16 16 18 19 20 19 22 25 27 29 30 28 25 14 6 7 19 9 4 4 5 9 10 4 9 6 3 3 4 3 3 8 8 7 5 7
16 16 15 15 15 19 18 20 20 20 17 17 18 17 17 17 22 23 26 29 32 33 31 23 8 2 9 18 21 24 19 22 19 15 14 16 9 4 5 4 6 4 2 3 5 2 4
16 17 17 16 17 18 19 18 19 20 21 20 20 19 20 22 24 21 24 30 37 35 24 7 4 3 11 10 12 13 15 10 16 17 17 10 6 6 3 4 3 3 5 5 10 3 1
19 19 19 18 18 18 19 19 20 20 21 20 20 18 18 20 22 22 24 32 24 9 5 8 3 1 9 6 4 9 9 15 4 6 2 5 4 4 2 4 7 5 4 3 5 6 3
20 20 19 19 20 19 20 21 22 20 19 19 19 20 17 18 20 24 26 14 6 2 3 9 8 6 6 8 8 4 8 6 4 4 8 5 3 10 14 8 4 3 3 4 11 13 3
22 21 21 20 20 21 21 21 21 22 22 21 19 16 18 18 18 20 16 2 5 2 11 14 18 20 34 15 9 18 3 6 6 9 7 2 16 7 7 7 6 5 6 10 10 12 7
23 22 22 22 22 22 21 22 22 23 23 20 19 16 14 14 17 17 7 8 4 12 5 9 11 10 14 18 15 24 5 4 6 7 9 10 4 16 13 6 9 8 8 7 9 8 6
24 23 22 23 23 23 23 23 24 23 21 20 18 16 13 10 12 5 4 1 18 11 4 8 8 9 9 9 8 26 20 8 6 13 6 7 15 4 5 11 9 13 9 12 12 4 5
24 25 25 25 24 25 26 24 25 22 21 19 17 16 12 11 5 2 4 17 22 3 5 4 5 3 8 13 3 9 27 7 9 8 8 9 7 13 12 18 8 10 7 10 10 7 2
25 26 25 24 27 26 23 24 27 24 21 19 18 16 12 13 15 15 17 17 8 2 8 6 4 5 7 6 3 3 14 2 7 6 5 11 3 8 10 8 11 9 3 3 2 3 5
27 26 26 27 28 27 25 25 26 24 21 19 19 17 16 16 3 3 10 5 4 7 6 5 1 5 4 5 5 3 8 13 9 11 13 4 11 2 3 5 5 5 3 3 3 1 8
28 29 28 28 28 28 26 25 24 24 22 20 20 18 20 21 18 10 8 2 11 3 9 5 5 5 5 5 5 5 6 11 7 4 5 10 6 13 7 12 6 7 9 5 6 3 5
30 29 30 30 29 28 27 26 24 24 23 21 18 18 22 21 18 8 2 8 6 5 4 7 8 3 4 1 1 3 5 7 10 6 6 7 7 4 9 6 11 4 6 10 4 2 2
30 32 32 32 31 31 29 27 24 23 24 21 17 11 16 16 19 10 4 13 11 3 8 5 5 6 6 7 5 3 2 1 4 16 7 3 1 6 6 5 8 9 6 2 1 5 4
33 34 33 33 33 31 29 27 26 24 24 22 17 4 12 21 20 4 9 9 17 16 8 6 4 5 4 4 4 4 1 3 5 6 12 12 2 4 1 6 7 3 9 3 4 5 6
37 36 35 35 35 33 30 30 28 27 25 24 5 5 24 34 6 4 13 5 6 10 3 4 3 6 5 4 4 2 3 5 8 4 3 7 5 12 23 7 4 8 8 9 5 3 3
39 38 37 37 37 36 34 33 32 32 28 9 3 3 24 30 10 10 9 9 7 3 7 2 4 2 3 2 3 2 5 6 9 11 5 5 3 8 8 4 10 9 5 6 3 3 10
40 40 40 40 39 38 37 36 34 35 33 28 4 5 4 7 3 16 13 14 11 8 10 4 3 4 2 2 2 4 6 5 10 4 9 3 2 4 7 7 3 5 12 10 12 7 4
44 43 43 42 41 39 38 37 35 36 34 27 5 5 5 8 15 11 16 9 18 10 14 7 7 15 6 4 3 6 7 13 6 2 2 4 1 5 12 14 15 14 10 14 18 12 11
46 45 45 45 42 41 40 39 37 37 33 24 5 4 5 3 14 21 16 17 13 18 9 15 9 8 8 17 12 7 10 3 6 3 5 2 3 5 5 8 14 17 18 12 8 7 12
47 46 44 42 43 42 41 40 40 38 37 13 14 7 4 10 13 18 24 19 19 12 12 17 10 13 12 15 11 15 14 15 10 5 4 3 3 3 5 13 12 8 17 14 14 6 6
45 45 44 43 43 42 41 41 40 40 41 27 10 7 5 6 15 17 16 23 23 17 16 8 15 13 7 5 6 7 10 12 11 7 5 5 4 3 3 6 4 7 8 11 15 14 8
42 43 41 39 39 39 39 39 39 40 43 36 14 8 8 9 10 19 19 20 21 18 15 18 12 11 2 4 1 4 2 5 9 9 9 7 5 4 2 3 7 16 7 4 7 17 11
33 33 31 33 31 31 38 42 40 38 44 37 22 18 2 6 16 12 18 14 11 13 14 15 13 4 2 0 1 4 3 4 4 5 4 5 4 3 2 3 6 10 11 13 17 16 7
36 35 35 34 34 31 29 33 36 37 36 35 16 25 3 3 2 14 14 16 9 10 5 6 9 9 8 3 2 3 6 4 4 7 5 3 1 6 3 4 7 8 13 5 4 6 5
37 36 36 39 37 36 37 37 37 38 39 38 15 31 13 2 2 2 14 7 9 12 6 5 3 2 3 6 4 4 3 5 6 5 7 7 7 4 3 3 7 1 5 4 8 6 1
24 35 36 40 42 41 41 39 39 40 40 39 10 31 28 2 1 4 7 8 25 22 10 7 7 5 6 3 2 1 2 1 4 3 3 4 5 4 7 6 5 5 6 14 15 11 3

GFSGBSN_925_spd_072.txt.gz
Wind_Speed
14 16 15 13 12 13 13 12 12 14 14 16 16 17 18 19 18 20 21 23 23 24 26 26 25 22 12 4 9 7 5 2 4 10 7 6 4 6 5 4 4 4 5 4 6 10 6
13 12 13 14 15 15 16 14 14 15 17 16 16 17 17 19 20 23 25 26 25 25 25 26 22 17 3 6 6 7 4 4 8 10 6 8 6 6 4 5 6 5 5 7 6 9 4
14 13 14 14 14 14 15 17 17 17 17 17 18 17 18 17 18 22 27 27 27 26 26 27 20 7 5 18 10 6 8 6 6 7 4 7 5 3 3 2 3 3 5 6 4 4 5
14 15 15 14 16 15 16 17 17 18 17 19 19 19 19 19 20 22 27 28 27 29 31 27 11 3 8 20 20 24 18 21 17 13 6 3 2 2 3 3 3 2 2 3 3 2 3
16 16 16 15 15 17 17 18 17 18 19 19 19 21 19 19 21 24 28 31 30 31 22 12 6 4 10 9 10 11 13 10 15 16 11 1 5 5 2 4 3 3 4 5 8 4 3
19 18 17 17 17 18 17 19 19 20 21 19 19 19 21 20 20 25 30 36 14 3 8 10 2 1 9 5 3 1 2 5 2 8 5 5 3 3 2 4 7 6 4 5 5 3 2
19 19 19 19 17 18 18 19 21 21 19 21 20 20 19 20 22 23 29 14 5 2 3 7 4 5 5 8 3 5 3 3 2 4 8 5 4 12 10 6 5 5 4 3 5 5 1
19 21 20 20 19 19 20 20 21 21 20 20 20 19 17 18 18 19 20 3 2 4 11 14 19 16 35 12 7 11 5 5 5 7 6 3 12 9 9 8 7 4 5 6 9 9 7
21 22 20 21 21 19 20 22 22 21 21 21 20 18 16 16 17 13 6 6 3 14 6 9 10 9 11 18 13 21 4 5 6 6 10 12 4 13 10 6 10 6 12 4 8 6 5
23 22 23 22 22 21 21 22 22 20 21 20 19 17 14 13 10 4 3 2 16 12 4 8 5 8 6 8 7 18 19 11 6 13 7 9 14 1 6 12 8 9 9 8 6 2 4
22 23 24 24 22 23 23 24 25 20 23 22 18 16 13 11 4 3 5 16 19 2 5 1 4 5 6 12 2 8 22 5 12 8 7 8 6 17 5 5 9 9 8 10 6 5 1
23 23 24 24 25 23 24 25 24 22 25 22 18 16 12 12 12 14 15 16 7 2 8 6 3 3 6 5 4 5 5 2 5 5 2 7 4 8 14 11 11 4 2 3 1 3 5
25 26 25 25 24 23 24 24 24 24 24 21 18 16 14 15 3 4 4 4 3 6 5 5 3 1 5 5 5 4 5 6 6 11 12 3 6 3 4 5 5 4 6 2 2 2 6
28 25 25 27 26 25 23 25 25 24 23 22 19 17 17 21 17 5 6 2 11 4 5 6 4 9 5 6 5 6 6 5 7 1 4 11 6 12 7 10 6 8 8 5 6 3 3
28 26 28 27 26 24 25 26 25 24 23 21 19 19 17 17 16 10 2 7 4 5 4 7 6 3 5 4 3 0 4 7 6 7 6 7 6 3 7 7 12 5 5 7 0 2 0
30 29 29 28 27 26 27 27 27 24 23 20 18 10 13 17 19 12 3 11 6 2 3 5 5 5 6 7 6 5 1 4 2 8 3 4 2 4 3 4 1 7 7 3 1 4 5
32 32 29 28 28 29 29 29 27 24 22 19 14 4 12 23 22 3 7 6 9 16 7 5 4 5 4 4 5 5 5 4 8 7 6 3 2 5 4 4 7 3 5 2 3 4 5
35 34 32 31 30 31 30 29 28 25 21 20 6 6 23 34 5 4 9 5 4 6 4 3 2 4 3 3 5 6 6 7 11 7 4 2 2 6 14 6 2 2 6 9 6 5 4
37 38 33 32 33 34 32 31 30 27 22 9 3 3 23 26 9 10 4 7 4 3 2 1 2 3 3 3 2 3 4 2 13 12 4 7 3 3 6 4 3 4 5 5 2 3 17
39 39 36 35 36 36 35 34 32 30 27 23 1 5 4 6 5 17 12 9 7 8 3 1 2 3 3 3 2 3 6 5 8 9 8 6 2 2 2 2 4 6 7 11 12 7 1
42 40 40 39 40 38 38 37 35 33 29 24 4 4 4 7 12 11 15 8 13 5 9 5 3 5 2 3 4 3 4 5 6 6 5 2 4 1 2 7 10 11 13 13 11 12 12
46 46 45 45 44 43 41 40 37 36 30 26 5 3 4 1 13 19 15 15 13 14 7 6 11 4 6 9 7 4 4 2 4 6 6 2 4 4 3 4 9 17 12 11 11 6 11
47 47 46 46 45 45 44 43 40 38 31 13 11 7 3 7 12 14 19 14 16 11 10 8 10 7 12 11 10 11 12 10 7 7 5 6 3 2 4 2 3 9 4 3 8 8 7
42 42 46 47 45 45 44 43 42 38 39 25 9 6 4 6 12 14 17 17 15 20 11 9 15 14 2 3 5 5 7 11 11 13 9 7 2 1 1 2 3 7 5 6 5 12 11
41 40 38 40 42 42 42 39 40 41 42 36 18 10 6 8 10 14 15 21 18 13 17 13 10 11 3 5 3 4 2 3 7 10 12 11 4 1 2 2 6 4 6 4 5 18 8
40 39 37 34 36 40 41 41 42 42 43 41 30 17 5 5 11 12 16 15 14 15 13 16 10 2 1 2 2 3 3 4 3 3 8 6 5 4 3 3 6 4 3 6 1 13 7
42 41 38 35 33 31 32 36 38 39 42 38 18 32 1 4 7 14 13 11 7 9 4 4 7 5 5 2 2 3 3 3 3 4 3 4 3 12 3 2 8 7 5 4 4 7 10
23 35 38 36 34 33 31 31 31 40 39 38 24 37 13 2 0 5 8 10 8 10 7 5 4 2 3 7 3 4 3 5 5 4 6 5 5 3 4 3 8 5 0 3 5 5 4
21 17 34 36 34 35 33 32 30 31 40 40 6 29 22 2 2 1 5 10 26 26 11 11 8 6 6 4 3 3 2 0 5 3 3 3 6 5 8 7 4 2 1 5 6 4 4

GFSGBSN_925_spd_075.txt.gz
Wind_Speed
12 13 14 14 15 15 13 13 13 14 14 15 15 16 17 17 17 17 20 22 25 26 25 24 21 22 9 3 9 9 10 4 8 13 6 5 6 5 6 5 5 6 6 6 9 7 6
13 13 14 15 14 14 14 14 14 15 16 16 16 17 17 17 17 20 21 24 25 25 24 23 19 16 1 6 5 7 3 3 7 10 6 6 6 5 4 4 8 4 7 8 7 10 5
14 14 15 14 13 13 14 15 15 15 15 15 16 17 18 19 19 21 24 26 28 29 25 23 18 8 4 15 6 8 8 6 6 7 3 8 4 5 5 3 5 2 6 8 8 5 4
16 17 16 16 17 15 16 16 15 15 14 15 16 17 19 21 21 21 25 29 34 35 29 22 13 7 8 16 15 23 17 22 17 13 8 3 6 3 2 1 2 2 2 5 1 4 1
15 15 17 17 17 17 18 19 18 16 16 17 17 17 18 19 22 24 28 33 37 19 13 7 8 7 9 5 6 11 16 10 13 15 13 2 3 3 2 4 3 2 7 6 5 3 3
16 16 18 17 17 17 17 17 18 18 18 19 18 18 19 19 22 24 28 33 13 5 10 10 4 3 9 4 2 2 6 8 3 10 4 5 2 4 3 9 11 8 6 5 8 2 1
20 21 17 16 17 18 17 17 17 18 18 18 19 17 18 18 19 21 26 13 6 2 5 8 5 5 6 7 3 4 6 6 5 5 10 6 7 13 20 16 5 7 6 7 4 4 2
19 17 17 17 18 17 17 17 17 18 19 18 18 18 18 17 17 19 15 3 3 4 12 16 20 17 33 7 4 4 6 5 5 8 7 4 14 16 10 10 13 8 7 10 12 4 8
21 19 20 18 19 18 18 16 18 18 17 17 17 17 16 15 14 10 5 4 4 15 6 11 8 10 11 18 12 13 5 3 6 9 16 17 6 12 13 10 14 16 18 14 13 6 4
21 21 21 18 19 19 19 19 18 17 17 16 18 16 15 13 8 6 5 2 16 12 5 6 4 7 6 8 9 26 18 11 6 13 10 12 13 9 11 15 15 14 10 13 13 5 7
21 21 22 19 18 21 20 21 19 19 17 17 17 16 13 8 6 4 6 16 19 2 6 1 3 2 6 10 3 5 25 8 18 8 7 9 9 20 7 12 14 12 8 12 11 9 6
22 21 21 21 21 20 19 19 20 20 19 18 17 14 11 8 8 12 14 14 5 1 8 6 3 2 4 9 3 4 10 3 7 6 2 7 2 8 15 6 18 5 4 2 2 2 6
23 24 23 22 23 20 18 19 21 21 21 19 17 15 11 10 2 2 5 4 1 5 6 6 4 3 4 3 5 4 6 13 7 10 15 10 7 3 3 12 6 6 4 3 2 4 7
23 25 26 26 22 20 20 20 21 21 21 20 17 15 13 14 13 4 5 1 9 4 6 6 5 11 4 1 4 3 7 9 8 2 7 12 8 15 9 6 7 13 13 5 7 5 2
26 24 26 24 20 23 21 20 20 21 20 19 17 16 12 13 14 10 2 4 4 4 3 9 11 4 5 5 3 2 4 5 4 10 5 8 8 5 7 7 11 6 9 11 1 1 2
28 27 26 27 25 24 21 21 20 19 19 17 9 7 13 15 17 12 2 8 5 3 5 4 5 6 6 9 6 4 2 8 5 3 2 2 2 4 9 5 6 8 10 5 3 6 9
28 27 26 26 25 24 20 19 20 20 19 15 9 4 7 20 23 3 5 7 7 14 9 4 4 5 5 5 5 6 6 5 9 7 6 1 1 1 5 5 11 7 7 2 4 4 6
30 27 27 27 29 24 21 21 21 20 18 14 5 4 14 32 6 3 4 7 3 8 2 5 2 3 3 5 4 6 4 3 11 11 5 5 2 3 5 2 3 2 8 10 6 5 2
31 31 30 30 29 27 26 22 22 21 18 8 3 2 17 24 9 7 5 5 4 4 4 2 1 1 2 3 4 3 4 3 8 12 9 6 2 2 2 2 4 3 2 4 3 2 16
34 34 33 31 30 29 28 25 23 23 20 16 2 3 3 5 3 15 8 9 7 5 13 2 1 1 1 3 2 4 5 4 10 8 9 1 2 3 1 2 3 5 10 10 6 5 7
39 38 37 37 34 32 31 29 27 25 23 15 3 4 4 4 8 10 14 12 14 8 7 11 5 8 4 2 3 4 4 5 4 6 6 2 5 5 6 11 7 8 7 10 10 10 10
41 41 41 40 38 37 35 32 30 28 26 18 3 3 4 1 6 14 14 12 17 15 8 6 6 6 10 8 9 9 4 2 3 6 6 7 1 5 5 10 11 8 10 17 15 10 13
36 38 40 41 42 42 40 37 34 32 29 12 12 7 4 3 9 9 9 15 17 13 8 13 10 12 12 9 7 9 10 10 9 7 5 5 2 2 3 5 7 6 9 8 2 5 4
35 36 38 38 38 42 42 42 40 38 39 27 9 6 6 8 12 12 15 17 18 19 15 10 13 9 2 5 7 4 7 12 11 11 10 5 3 2 1 2 7 3 4 5 6 9 9
38 37 37 38 39 39 41 45 44 44 43 34 24 9 6 8 7 11 16 19 15 14 17 16 6 1 2 6 3 4 1 2 7 14 15 13 5 2 3 6 8 9 7 4 6 8 7
38 39 40 41 38 38 37 42 46 46 46 40 33 25 6 3 11 12 14 18 13 10 8 15 2 2 4 1 2 2 2 2 1 2 8 13 10 3 3 3 5 3 2 2 1 6 5
28 28 32 36 40 37 36 34 43 46 47 40 17 36 11 6 5 12 12 11 10 11 4 4 6 3 8 4 3 5 4 2 3 2 5 6 3 9 4 4 6 9 8 3 2 5 7
27 26 25 28 30 38 35 34 37 40 42 41 30 37 20 2 3 12 11 10 9 11 6 7 4 4 4 6 4 3 3 4 3 2 4 7 6 5 5 4 8 0 2 1 6 4 7
25 24 26 26 23 37 35 35 32 42 42 42 13 33 33 4 1 5 11 15 31 25 10 10 5 6 6 3 4 3 4 1 5 3 2 4 6 4 8 6 2 3 4 8 7 12 13

GFSGBSN_925_spd_078.txt.gz
Wind_Speed
11 11 13 13 14 12 12 13 14 15 15 16 17 16 17 17 18 19 20 21 22 24 23 23 19 20 12 6 10 8 9 2 9 12 15 14 15 18 17 13 12 18 14 12 15 14 12
11 12 12 12 12 11 11 12 14 15 15 13 15 16 16 17 18 20 21 23 24 24 25 26 19 15 7 12 8 7 4 2 7 14 12 13 9 14 10 14 15 4 15 15 15 15 13
14 13 14 15 13 15 14 15 15 15 14 14 15 16 17 18 19 21 23 25 28 28 33 27 15 10 10 15 9 7 10 5 4 11 13 13 12 10 5 12 15 11 15 15 16 18 16
16 14 13 14 16 16 16 16 18 18 14 14 16 17 17 17 19 21 23 27 30 30 27 19 11 9 9 14 14 19 19 21 18 13 10 10 11 13 11 4 6 10 12 13 4 10 9
17 16 15 15 16 15 15 16 18 17 17 18 17 18 17 17 19 21 24 30 29 16 13 3 7 11 10 4 7 14 23 15 17 16 11 4 8 14 11 15 14 14 14 12 9 10 6
20 17 16 15 15 16 15 17 16 16 17 17 17 17 17 18 18 20 25 28 13 2 6 5 1 6 9 4 4 3 5 14 7 13 11 12 10 12 14 16 19 18 16 12 13 6 12
18 17 20 18 15 17 17 16 16 15 18 17 16 17 17 17 17 19 23 11 3 5 3 8 3 9 12 7 7 7 7 9 7 16 18 20 15 19 26 23 19 15 14 16 8 0 7
19 19 17 15 14 14 15 15 16 16 18 16 16 15 15 15 15 18 9 4 5 4 13 17 22 26 29 8 6 9 9 10 10 16 19 11 20 22 18 18 19 19 17 18 12 7 8
19 19 20 19 19 16 16 16 16 16 18 15 15 14 15 14 13 5 5 3 3 12 7 10 9 11 11 18 15 9 12 10 12 17 21 19 9 20 17 15 18 20 20 17 15 7 11
20 21 20 20 20 18 15 18 14 16 18 15 14 14 13 12 5 5 3 2 9 7 5 3 3 3 4 7 9 28 14 13 10 15 13 15 19 10 19 22 18 21 19 16 17 11 9
21 20 21 21 21 18 16 19 18 18 16 16 14 13 11 6 5 6 4 10 11 3 6 3 2 1 5 9 8 7 34 20 21 9 5 8 13 21 19 18 18 19 14 12 15 14 14
22 22 21 21 21 18 18 19 18 18 18 17 14 14 11 6 4 7 8 7 4 4 6 3 2 2 4 10 4 4 7 16 10 18 13 19 5 10 19 11 17 5 8 7 6 7 10
23 23 22 22 23 21 20 19 15 18 19 15 14 14 10 6 2 1 4 4 4 5 5 4 6 6 10 4 5 5 10 14 11 9 18 18 18 8 8 18 12 15 13 6 7 6 8
24 24 23 23 21 25 22 17 16 19 17 17 14 13 10 9 8 4 3 4 8 2 6 10 7 13 4 5 4 10 6 11 18 16 11 19 11 21 13 14 7 20 15 6 7 8 6
25 25 24 23 21 21 19 16 15 17 16 15 14 12 9 8 11 10 3 6 3 4 4 9 12 4 2 2 5 6 4 2 6 17 9 15 20 13 15 16 15 9 15 17 17 8 6
26 27 26 24 24 23 21 19 18 16 14 11 8 7 12 9 15 12 2 9 7 3 4 6 4 5 5 8 4 4 4 8 3 4 15 4 6 11 22 16 20 15 12 8 9 8 14
26 29 26 23 23 22 20 19 18 16 14 10 7 4 4 16 18 3 5 8 10 12 5 3 4 6 5 6 7 5 3 9 13 9 10 8 4 4 10 14 19 15 13 11 9 14 12
28 27 27 26 24 21 21 19 17 14 12 8 4 4 6 21 6 2 5 10 6 8 6 6 5 6 5 6 5 6 5 7 13 15 5 4 4 6 12 6 12 17 17 17 10 12 9
28 28 28 26 25 24 25 21 20 18 15 9 4 6 5 18 8 10 2 11 12 12 10 5 6 4 2 4 5 5 4 8 9 13 10 7 4 7 8 8 5 10 11 10 12 14 18
31 31 30 28 27 26 25 23 22 21 19 13 2 4 5 5 8 16 14 11 12 12 13 8 7 6 10 13 10 8 9 5 15 11 11 5 3 5 4 4 4 3 2 3 5 7 10
34 35 35 34 31 28 27 25 25 25 23 16 4 6 7 5 13 10 16 12 18 11 11 11 8 17 14 10 9 11 7 8 7 6 6 3 5 6 6 4 4 5 7 7 9 8 8
30 33 36 38 37 36 32 31 29 27 25 22 4 4 3 6 6 15 15 15 20 18 12 11 14 8 16 18 15 14 16 13 7 4 6 6 5 7 9 11 10 12 12 12 13 15 15
28 31 32 32 35 38 37 36 35 33 32 16 16 8 3 8 13 9 4 20 20 17 16 15 13 12 12 14 12 11 10 9 10 8 4 4 3 5 10 5 9 11 16 17 13 8 7
32 32 32 32 32 35 39 40 40 40 40 29 19 7 4 9 8 12 13 16 17 18 15 11 14 14 5 1 5 11 13 15 14 14 13 6 5 1 2 3 8 3 4 9 10 8 8
31 31 32 32 32 34 37 39 43 44 43 34 23 12 6 8 15 20 18 16 18 16 17 16 10 9 8 1 3 5 6 9 12 18 16 15 7 3 4 10 13 14 8 7 7 6 4
34 33 36 37 36 34 38 40 42 47 46 41 31 27 6 6 15 17 16 15 15 15 13 15 4 7 5 3 4 6 6 4 4 7 13 16 13 7 5 6 6 5 9 4 3 5 6
36 32 29 25 29 33 38 40 43 46 49 44 26 35 16 4 10 14 17 14 11 10 6 7 8 5 5 4 4 5 5 1 4 4 6 8 10 13 12 7 4 4 7 4 8 5 12
27 24 26 27 28 29 31 39 40 44 47 50 33 34 27 5 10 16 16 14 14 14 9 6 4 4 4 7 5 4 5 6 5 3 8 10 9 7 9 7 9 3 3 3 9 10 11
24 24 26 27 26 26 27 30 40 40 43 50 20 30 36 7 4 16 19 22 23 22 9 11 7 7 7 7 6 4 4 2 7 4 5 5 6 4 6 6 4 2 6 7 8 8 9

GFSGBSN_925_spd_081.txt.gz
Wind_Speed
13 12 12 12 13 13 13 12 12 14 15 16 16 17 17 18 19 20 22 23 23 24 24 25 25 23 15 10 17 17 13 8 5 13 19 18 20 20 22 20 20 20 21 20 15 15 15
13 13 12 13 13 11 12 13 14 16 17 15 16 17 16 18 19 20 21 23 24 27 28 27 25 18 16 19 16 11 8 8 12 16 19 20 15 17 17 22 20 16 18 20 22 17 16
13 15 15 15 17 16 14 15 14 17 18 16 15 17 18 19 19 22 24 26 27 28 29 27 22 13 15 23 18 17 12 12 9 14 17 17 18 10 14 17 18 18 19 20 19 19 19
16 16 17 16 14 14 17 16 18 17 18 17 17 19 20 20 21 23 25 28 30 31 28 19 15 12 10 14 21 26 22 22 20 19 17 19 15 15 19 13 13 13 18 19 20 23 20
16 18 16 15 16 14 17 14 15 18 17 17 17 18 19 20 22 23 25 30 33 24 12 9 6 12 13 2 12 22 22 20 12 17 19 18 15 17 15 15 16 17 17 19 21 11 10
19 17 18 18 17 17 15 16 17 17 16 17 17 17 17 20 22 23 26 30 21 12 3 5 10 6 9 12 3 4 7 17 13 8 15 16 11 17 19 16 18 20 20 19 20 14 13
18 19 18 17 17 18 14 13 17 16 16 17 16 17 17 18 20 20 24 20 5 7 12 15 10 14 13 6 11 8 6 8 10 8 20 21 16 22 26 26 24 22 23 18 12 3 8
22 20 19 19 17 14 13 13 15 17 14 17 17 16 16 17 20 18 15 9 5 5 13 20 23 24 29 25 15 9 10 9 8 16 24 21 25 24 24 22 21 25 23 21 17 9 6
20 21 19 18 18 18 18 15 14 16 14 18 15 15 16 17 18 12 7 5 2 10 8 11 10 10 9 16 19 19 14 9 11 20 23 23 21 26 24 20 22 22 23 21 19 15 7
22 22 20 19 19 18 19 16 15 15 13 16 16 15 15 16 10 5 4 3 7 9 6 8 4 3 5 6 6 21 19 14 9 19 21 18 27 22 24 26 21 21 19 22 18 15 14
24 20 19 19 20 19 19 15 15 14 14 16 16 15 14 10 13 8 7 9 10 5 6 4 6 3 2 7 8 5 23 15 16 20 13 16 15 21 21 23 18 21 18 20 17 13 17
20 20 20 20 20 21 18 17 17 15 15 14 16 15 14 13 12 11 9 11 8 7 6 4 3 2 6 8 7 4 16 16 14 15 24 22 19 12 18 18 17 18 17 13 12 13 15
22 22 21 21 22 22 19 19 18 17 15 14 15 14 14 11 6 3 8 12 7 7 6 3 2 5 11 9 6 10 9 21 15 17 18 23 27 20 22 12 12 19 13 9 10 11 12
23 24 22 22 21 20 20 17 19 16 17 15 14 15 15 16 14 9 11 8 10 2 2 5 5 11 7 4 6 9 8 13 23 16 9 11 14 21 16 15 14 17 18 9 14 11 12
26 25 24 22 23 19 19 16 15 15 16 11 13 15 18 19 18 11 6 10 5 5 5 6 11 8 0 1 4 7 8 3 10 21 14 5 12 16 16 18 13 13 18 19 9 14 5
25 25 22 22 21 22 20 17 15 16 15 9 12 9 18 17 16 11 3 17 11 5 3 6 8 2 4 5 5 4 10 6 1 4 17 10 15 13 23 24 25 17 12 9 8 6 12
26 25 24 25 23 19 20 16 15 16 14 9 9 4 8 19 16 4 7 17 14 11 4 5 3 6 4 4 8 6 4 9 10 5 13 15 14 7 11 19 22 17 19 13 14 15 4
27 28 26 24 25 20 20 17 17 11 14 10 12 5 9 19 9 3 11 17 11 8 14 10 6 8 9 6 6 3 2 7 12 14 4 17 5 12 10 21 18 20 20 20 8 11 11
28 28 27 27 24 22 19 18 16 16 18 15 5 6 7 16 8 12 11 18 17 15 15 12 13 7 5 7 5 2 3 5 7 12 11 8 8 11 4 7 9 16 18 19 16 13 10
29 29 28 27 25 24 23 23 21 20 20 20 4 4 8 7 2 11 17 18 15 13 20 14 13 11 11 14 13 7 7 3 7 10 12 6 9 11 8 4 3 13 11 18 13 10 13
30 29 30 29 28 28 25 25 23 22 23 21 5 7 7 7 14 16 16 8 21 18 13 11 15 16 16 16 15 16 13 11 3 1 7 3 8 9 11 8 5 5 5 8 12 12 10
29 28 28 28 31 31 31 28 27 26 25 25 5 5 8 13 11 18 19 12 22 19 16 16 16 16 16 17 15 13 8 8 9 5 4 5 8 6 11 11 11 12 11 12 13 12 14
26 25 24 24 26 29 34 34 33 31 30 12 19 11 7 10 17 12 12 21 15 23 15 17 12 14 13 11 8 9 11 8 10 9 8 6 6 10 11 9 8 10 14 15 14 14 15
27 27 26 28 28 28 32 37 38 38 36 22 18 13 6 11 13 16 19 13 14 19 20 13 14 11 7 10 8 8 11 13 14 14 11 9 8 7 7 3 10 9 4 6 9 14 6
29 28 27 28 28 28 30 33 41 42 39 33 28 16 11 12 15 17 17 8 7 14 18 10 8 4 4 6 6 8 9 11 15 20 18 14 12 7 7 10 13 18 6 6 9 11 5
32 31 30 29 29 31 32 33 38 44 45 39 34 29 9 11 16 21 17 18 12 9 11 16 7 6 3 4 3 7 6 9 7 6 19 16 14 10 6 11 11 13 5 5 4 8 9
34 34 33 30 31 31 34 37 37 44 48 43 31 34 17 7 13 16 17 13 14 9 7 11 9 3 5 3 5 7 8 4 4 9 11 11 11 14 12 8 6 7 7 3 10 2 6
27 26 26 26 26 27 25 30 38 43 49 49 39 32 27 9 13 15 19 13 14 9 4 5 5 4 2 6 5 5 4 5 7 3 10 11 9 7 8 5 14 8 6 7 7 4 8
26 25 25 25 25 27 28 28 32 41 45 51 19 36 34 11 6 19 26 23 20 16 8 9 7 8 8 7 6 4 4 3 8 5 10 6 10 8 11 8 5 8 8 3 7 7 9

GFSGBSN_925_spd_084.txt.gz
Wind_Speed
14 13 14 13 13 14 12 11 13 14 17 18 18 18 17 18 19 19 20 21 22 23 22 22 23 21 16 6 19 35 15 11 6 7 15 17 21 21 23 22 22 25 23 21 21 22 17
14 14 14 15 14 15 15 15 16 15 17 21 20 18 18 20 22 22 24 24 25 24 25 25 23 17 10 17 17 23 18 11 14 16 14 19 17 19 24 22 23 22 23 23 22 19 22
16 16 16 17 16 16 15 18 17 18 21 21 21 21 21 21 23 23 26 27 27 27 26 27 21 10 13 25 15 22 16 13 15 17 16 19 22 22 18 23 21 23 22 21 21 18 20
17 17 17 18 17 15 16 17 18 15 17 19 20 21 22 21 23 26 27 29 29 30 27 21 14 9 10 16 16 18 21 24 20 19 18 17 19 18 22 18 19 19 19 19 21 22 22
17 19 19 18 19 18 17 17 16 16 17 18 19 20 20 21 23 27 29 31 33 23 18 10 8 13 9 6 11 11 14 21 18 20 21 20 17 14 14 16 16 17 17 21 21 23 21
17 18 19 18 18 18 18 18 16 17 19 16 19 20 20 21 23 27 29 33 22 23 11 10 15 9 9 5 6 5 6 11 14 14 12 11 6 11 14 15 17 20 19 20 20 21 21
17 18 20 20 18 19 17 16 15 15 16 17 17 20 20 21 22 24 28 20 2 6 12 14 7 13 19 14 7 8 7 5 10 11 16 15 9 18 22 21 24 18 15 19 22 22 19
19 17 18 20 20 19 19 16 16 16 17 16 16 19 20 19 21 22 22 8 8 6 12 19 24 25 33 25 17 17 15 7 10 15 15 14 22 20 21 22 23 20 21 25 24 24 8
22 17 19 21 21 18 18 19 19 17 16 16 16 17 19 20 20 18 13 9 8 10 7 12 12 11 11 13 16 19 18 15 17 10 12 18 16 19 24 24 21 21 23 21 24 22 20
18 20 22 21 19 18 19 19 20 15 15 16 15 16 18 18 12 12 6 6 7 7 5 6 6 4 6 4 5 10 20 17 10 10 8 11 21 23 23 25 24 23 21 21 20 19 14
22 22 22 18 18 18 20 19 17 16 15 15 15 15 17 12 15 10 12 14 8 3 4 9 9 6 3 7 8 6 11 16 16 10 6 7 16 11 26 21 25 26 19 12 19 21 20
23 20 20 19 19 19 20 20 18 16 16 16 14 14 16 13 13 16 13 13 7 3 6 8 7 6 9 13 8 6 9 8 7 11 13 17 14 8 11 22 19 18 24 14 18 16 18
21 20 20 20 20 19 20 20 17 17 17 16 14 14 14 13 7 7 8 8 5 5 5 8 3 2 8 12 9 10 13 14 8 7 15 15 17 20 16 18 16 16 12 3 5 10 13
22 21 22 22 22 20 20 18 19 17 16 15 17 16 15 16 17 18 11 4 8 6 9 7 3 9 11 5 9 11 12 10 19 12 7 3 6 12 13 18 10 18 16 6 6 4 10
23 23 22 21 21 20 19 19 15 17 12 13 15 16 18 19 19 13 6 9 5 10 5 7 11 14 11 5 5 7 11 7 12 19 9 3 6 2 11 11 12 8 15 19 10 10 6
24 24 22 22 21 20 19 19 17 14 13 12 15 17 18 19 20 12 6 11 11 9 5 6 12 2 7 1 7 8 3 3 2 11 21 7 9 12 11 16 19 16 3 6 4 4 4
24 24 23 23 21 21 20 17 17 14 11 13 12 4 16 21 17 4 6 11 14 18 9 5 10 7 8 4 6 8 7 6 13 8 7 16 11 7 11 13 17 14 10 4 3 6 1
25 24 24 23 23 23 21 18 18 13 10 10 7 3 7 25 6 4 8 15 8 19 11 11 8 12 13 10 6 7 4 5 5 13 4 12 6 9 16 19 18 22 19 16 3 4 6
26 26 25 24 23 23 22 19 16 15 12 6 5 7 14 13 7 9 10 18 20 20 16 12 13 11 14 11 5 11 2 5 4 9 9 9 6 8 6 10 11 12 15 13 17 10 5
28 28 26 26 24 23 22 19 18 16 14 9 3 4 8 6 8 11 15 18 19 19 20 17 17 14 16 14 12 9 7 6 4 3 8 7 6 9 5 4 10 11 15 21 20 8 6
29 27 26 25 25 25 24 21 20 20 19 12 3 5 5 6 10 13 15 5 18 19 16 15 19 19 17 14 15 17 17 15 8 6 2 4 7 11 12 4 11 3 6 16 17 19 11
28 27 27 25 24 25 25 26 24 24 22 16 3 3 8 10 13 16 18 19 19 17 19 17 18 16 17 16 17 16 13 8 8 3 6 6 9 11 13 12 9 12 15 17 15 19 12
27 27 23 20 19 23 24 28 29 27 27 11 9 10 8 7 15 12 12 17 20 19 17 15 17 16 17 10 7 9 12 3 10 10 7 6 6 9 10 11 12 8 9 11 9 8 7
27 25 24 23 22 21 22 24 32 32 33 23 8 11 5 9 12 13 17 16 15 17 21 15 13 15 4 6 8 8 11 11 12 13 11 12 10 7 7 8 4 6 11 3 6 12 13
29 27 27 26 25 25 25 28 28 38 36 31 26 11 9 9 12 17 19 17 8 9 14 12 13 15 6 1 3 6 8 10 18 19 18 15 11 5 4 6 12 18 6 3 6 7 7
35 33 31 28 26 26 27 27 31 35 40 35 30 26 8 8 13 18 15 16 10 7 4 13 10 5 4 3 3 5 7 10 8 7 21 17 13 9 5 7 5 5 16 6 9 5 6
33 32 29 28 28 29 29 29 31 34 41 39 26 31 13 5 12 13 13 11 14 10 8 4 7 4 5 2 5 7 12 13 6 6 15 14 11 11 9 7 5 9 5 6 6 4 8
28 25 24 24 25 28 30 31 32 37 39 43 35 27 25 6 12 15 18 14 11 6 6 3 1 3 2 3 4 6 5 5 9 6 12 11 9 6 8 5 11 3 5 6 8 9 6
23 24 24 24 23 25 27 27 30 33 44 46 14 35 27 9 6 17 32 26 15 9 1 1 3 2 5 5 6 3 4 2 8 3 13 6 7 6 8 7 5 9 13 10 8 10 11

GFSGBSN_925_spd_087.txt.gz
Wind_Speed
14 13 12 12 12 13 12 12 13 14 15 16 20 22 19 18 19 21 22 24 24 25 24 24 23 22 14 3 13 17 20 20 6 2 8 8 7 6 9 10 11 18 18 20 18 18 16
14 14 14 15 16 15 15 14 14 17 17 19 21 22 21 21 22 22 24 26 27 28 27 24 22 18 5 9 12 10 15 14 19 12 11 12 8 9 11 13 15 14 17 19 18 16 11
15 15 16 16 17 19 17 17 17 18 18 16 19 22 23 22 23 25 26 28 29 30 28 27 19 12 9 22 11 20 20 19 15 16 6 12 18 9 7 11 15 18 17 18 19 10 9
15 15 17 18 17 19 19 18 18 18 17 18 19 22 23 23 23 26 28 30 33 32 30 23 11 7 9 17 20 24 23 19 17 18 19 18 18 4 4 7 9 9 11 15 8 11 10
16 15 16 17 18 18 18 20 19 19 18 19 19 21 23 24 25 27 31 34 37 35 23 13 5 7 10 17 5 9 9 14 15 18 18 15 10 3 6 3 5 2 8 13 12 13 14
16 16 16 17 18 20 19 19 19 18 17 17 18 20 22 24 26 27 33 38 32 13 8 7 10 6 9 5 2 4 7 8 5 2 5 5 2 2 4 2 9 6 8 9 11 17 14
15 17 17 17 18 20 21 20 19 17 17 18 18 19 21 24 26 27 32 23 4 1 4 8 10 8 7 12 21 12 13 4 4 4 4 4 4 6 8 8 9 13 15 18 12 13 13
19 20 19 18 19 20 22 18 19 20 20 18 18 18 21 24 26 27 27 3 5 3 10 17 23 24 29 23 11 14 22 4 4 6 6 6 11 7 8 11 13 9 14 24 21 20 14
17 18 16 17 20 20 19 19 20 20 20 17 17 18 20 23 25 21 9 19 12 8 4 12 14 12 10 20 11 13 11 6 7 7 8 7 3 4 9 10 10 12 19 20 23 23 18
19 19 19 20 20 17 18 17 18 19 20 16 16 15 19 20 16 15 9 17 11 9 4 7 6 5 8 3 6 13 15 8 5 6 3 3 5 9 13 14 11 17 15 18 19 11 9
17 18 18 17 17 18 18 19 18 18 19 16 16 16 15 14 21 8 14 21 19 1 5 11 7 13 9 6 4 3 7 6 7 5 6 4 3 4 12 16 15 14 15 15 10 12 17
18 19 18 17 17 18 20 20 19 19 17 17 17 15 14 18 14 19 19 21 13 2 7 6 6 9 8 10 4 5 3 3 3 3 7 9 6 4 5 9 17 11 14 10 9 10 9
20 19 18 18 19 20 20 20 19 17 18 17 16 15 14 12 8 9 19 7 3 4 7 8 7 7 7 5 9 6 7 4 4 3 3 6 16 11 12 7 7 12 8 4 6 5 7
19 19 19 19 19 19 19 20 17 17 16 16 15 15 19 20 22 19 18 2 6 9 7 8 3 2 6 7 8 9 12 6 8 5 3 3 6 10 12 13 5 9 10 3 4 3 3
21 21 21 20 19 19 19 17 16 17 15 14 14 19 17 23 16 17 4 5 4 4 10 7 5 3 5 8 2 4 9 3 12 11 7 3 4 3 10 8 10 4 7 13 5 3 2
20 20 20 20 20 18 18 17 15 15 14 10 7 10 20 24 17 14 4 8 9 11 15 8 4 4 4 7 1 6 7 6 9 6 7 4 4 8 2 0 12 9 7 5 3 3 4
19 21 22 20 20 19 18 17 16 14 12 6 5 3 12 10 12 4 7 7 12 16 15 4 5 8 10 7 5 4 4 3 7 8 9 10 6 4 3 2 8 8 4 5 2 3 2
21 22 23 22 22 21 19 18 16 14 10 6 3 3 7 11 5 3 4 5 5 10 14 7 3 4 7 9 6 5 4 2 4 5 4 5 3 7 16 10 8 8 11 7 3 5 3
22 22 23 24 23 21 20 18 16 14 11 3 2 4 8 4 6 5 4 8 15 17 15 7 6 3 7 6 4 4 9 4 3 3 2 5 2 3 5 3 8 9 14 13 10 2 4
23 24 25 23 21 20 20 19 14 14 12 9 1 3 2 3 3 4 8 9 13 12 14 15 12 12 8 6 5 4 2 3 6 5 5 3 4 4 4 4 2 6 7 19 14 3 4
24 26 26 23 21 19 20 20 16 15 13 9 2 3 4 2 5 7 6 3 8 14 10 9 5 9 10 9 7 5 6 6 5 7 5 3 2 9 11 8 7 2 11 3 12 10 6
26 27 23 23 21 18 18 19 19 17 16 10 2 2 4 3 5 6 6 4 10 12 10 10 12 9 9 10 8 4 5 7 2 5 3 0 3 6 8 11 7 11 14 3 1 4 11
27 25 24 23 19 16 14 19 21 22 21 8 9 10 3 4 5 2 3 7 9 10 9 11 10 7 12 11 3 2 2 3 4 2 3 5 3 4 3 9 13 5 10 13 11 16 11
28 24 23 22 20 17 17 17 21 25 29 16 8 5 2 4 3 4 9 10 11 9 8 6 3 5 3 10 10 1 1 9 7 8 6 4 5 3 4 6 3 4 6 4 2 10 5
29 25 24 24 23 22 19 18 21 25 30 23 18 6 3 3 5 10 11 10 11 10 4 4 5 2 4 4 4 0 3 3 9 14 11 10 5 2 2 3 6 14 4 3 2 7 11
29 27 28 27 26 24 22 22 22 25 30 30 25 21 3 1 6 11 10 9 7 5 3 3 4 5 3 2 1 3 4 6 4 4 18 12 7 5 2 4 5 5 2 7 1 5 7
31 30 28 25 23 24 23 24 26 27 30 33 16 29 8 4 6 5 3 4 5 3 2 4 2 3 4 3 2 3 4 3 4 4 2 10 5 11 7 3 6 5 7 5 4 4 7
31 28 25 22 21 20 21 24 26 27 31 34 29 25 22 3 10 7 6 6 4 4 1 3 4 2 1 2 3 4 1 4 3 9 4 7 7 5 4 3 6 10 5 4 5 10 12
29 25 21 20 19 19 20 22 25 29 31 40 16 33 26 5 2 9 23 25 16 5 2 4 2 2 3 1 1 3 2 3 5 3 5 2 6 5 6 5 8 11 12 13 12 14 13

GFSGBSN_925_spd_090.txt.gz
Wind_Speed
12 13 13 13 13 15 15 15 15 17 17 19 20 21 23 21 21 22 24 25 26 26 25 24 22 20 13 5 12 12 10 17 10 8 8 5 5 6 7 5 5 8 10 14 15 16 14
12 13 14 15 16 15 17 17 16 17 18 19 19 20 22 23 23 23 24 27 28 27 27 23 19 15 2 9 10 5 4 12 12 14 7 8 6 9 5 7 7 5 11 17 14 16 11
12 12 13 15 16 18 18 19 18 19 18 18 19 21 22 24 26 27 28 30 31 30 29 24 18 11 10 25 9 10 23 18 12 13 4 5 6 6 1 4 4 10 13 14 12 7 7
14 14 12 14 14 17 19 18 18 20 21 20 19 20 21 25 27 29 31 35 35 34 30 25 11 7 10 18 19 28 21 20 15 9 14 15 8 4 4 4 5 4 4 6 5 8 6
14 13 13 14 15 16 19 20 19 21 21 19 18 19 21 25 30 31 34 39 37 36 25 14 5 6 11 11 10 10 11 7 4 8 11 13 1 4 2 3 2 3 8 12 7 3 6
15 14 14 15 16 16 18 20 21 20 20 18 18 20 21 24 29 33 34 42 21 4 7 7 5 5 10 4 2 5 1 8 4 1 3 3 1 3 1 4 9 6 6 5 3 3 7
17 16 17 18 18 16 18 21 22 20 20 18 20 21 21 24 29 32 33 21 5 3 2 8 9 7 11 7 7 10 6 4 4 3 4 1 3 7 8 6 4 4 7 9 6 5 7
16 17 16 15 16 16 18 19 18 19 19 20 22 20 20 24 28 29 28 3 8 12 9 13 20 22 35 17 8 13 5 3 3 6 3 3 7 6 7 6 7 6 3 7 5 5 12
19 19 19 19 18 19 19 17 17 18 18 17 18 17 19 22 29 17 18 15 21 14 5 10 9 10 10 13 9 16 7 5 3 3 6 6 3 5 5 5 8 6 5 3 5 14 11
17 16 17 18 18 18 18 17 18 19 19 19 16 17 18 19 16 17 13 20 25 12 4 7 6 7 8 6 5 11 12 6 5 9 3 6 2 3 1 3 2 12 6 5 7 6 5
17 17 17 18 18 17 17 17 19 19 19 19 19 16 16 12 18 7 14 30 25 1 5 5 7 12 10 9 4 2 10 4 6 5 5 4 4 2 1 3 6 6 4 7 1 8 9
18 18 19 18 17 18 18 19 19 18 18 16 17 16 15 15 12 21 19 30 6 2 8 5 6 8 9 6 2 5 4 5 4 5 2 5 3 6 8 3 1 2 4 5 6 8 10
16 17 18 18 18 19 20 19 18 17 17 17 15 16 13 13 6 17 22 11 3 6 9 6 5 8 12 6 5 6 9 7 6 4 4 2 5 4 5 4 3 5 5 3 5 6 11
17 19 19 19 19 19 19 18 18 15 16 16 15 15 16 20 22 14 14 3 8 5 8 9 3 9 7 6 7 6 8 5 3 4 3 4 3 6 6 7 4 6 5 3 6 4 3
19 17 18 17 18 18 18 17 16 15 15 14 13 17 13 26 18 7 3 5 3 4 10 13 6 2 3 6 5 7 4 3 7 7 6 5 4 1 5 3 7 4 4 5 5 2 1
18 17 17 18 20 18 18 17 16 14 14 12 8 8 14 22 10 9 4 4 6 6 16 10 6 8 7 8 4 4 2 3 2 6 3 2 2 4 4 4 5 8 2 2 3 3 3
18 19 19 19 20 20 19 17 16 14 11 8 3 4 10 6 11 2 4 7 7 12 13 9 6 4 5 8 6 3 3 2 3 4 6 2 3 4 2 5 5 3 3 4 4 3 1
18 19 18 19 21 21 20 18 15 14 8 2 1 3 3 13 2 2 3 2 6 9 10 7 6 3 3 5 4 4 4 4 1 2 3 2 1 4 9 11 6 8 4 4 3 3 3
19 19 19 20 21 21 19 17 14 11 6 3 2 3 5 7 4 6 3 7 5 10 11 6 9 8 10 5 4 3 4 2 3 1 3 2 3 4 6 5 6 3 8 11 8 2 4
19 19 19 21 22 20 17 15 13 10 9 8 0 3 3 2 2 3 7 6 8 6 9 6 9 9 6 5 4 2 2 4 5 4 4 1 3 3 4 7 4 6 3 12 10 3 3
20 19 21 22 20 18 18 16 11 12 11 11 3 4 0 1 3 6 4 4 3 4 4 6 3 2 7 4 6 4 3 4 5 2 1 3 1 2 7 14 6 6 6 7 4 12 4
21 21 22 22 19 18 16 13 13 14 15 6 3 2 3 3 4 2 6 3 3 5 2 6 5 10 5 4 4 6 1 2 1 5 3 4 2 3 4 8 10 14 14 11 5 11 11
22 21 22 22 19 18 14 11 14 17 20 5 8 2 3 4 5 3 2 3 6 8 6 10 9 3 4 1 2 6 6 2 2 2 1 2 3 4 3 6 12 8 7 15 7 12 7
22 21 22 22 20 18 14 13 13 19 28 12 6 4 2 3 2 3 8 12 11 10 4 4 3 3 1 1 2 4 5 6 4 5 5 3 2 2 3 3 5 7 13 9 5 4 15
22 22 22 22 21 21 19 16 15 18 27 24 11 4 2 3 3 5 6 7 8 10 6 2 3 3 1 4 3 5 3 4 5 8 7 9 4 1 2 3 10 14 2 3 10 5 8
23 23 24 24 25 24 21 18 18 20 23 28 23 18 1 1 4 6 3 4 4 3 6 4 4 5 4 2 2 2 3 4 3 3 8 9 5 4 1 3 4 5 6 15 3 3 4
23 25 26 25 24 23 21 21 20 22 24 29 12 28 7 2 4 1 1 1 1 3 2 4 5 4 2 1 2 3 3 3 3 3 2 3 1 12 7 3 6 5 15 11 8 3 7
26 27 27 26 22 21 20 19 20 24 25 32 17 27 22 2 7 4 3 1 2 1 1 3 4 2 1 1 1 2 2 4 3 4 4 6 5 4 3 4 9 14 5 4 4 11 12
29 29 28 25 22 18 16 17 19 23 26 32 9 27 29 2 3 5 21 24 18 9 3 2 3 2 1 2 2 2 2 2 3 3 2 4 5 3 6 4 6 10 12 13 10 12 12

GFSGBSN_925_spd_093.txt.gz
Wind_Speed
9 10 11 12 13 14 14 15 17 17 20 21 21 22 23 24 25 26 29 30 30 30 29 27 23 22 13 4 12 14 10 16 7 4 9 6 6 7 6 5 5 9 3 7 7 8 6
9 11 10 11 13 14 16 17 17 18 19 21 21 22 23 24 24 28 32 34 33 34 31 27 21 16 6 7 8 6 5 6 8 8 5 9 7 8 5 7 8 3 9 14 7 11 6
11 12 13 11 13 15 16 17 18 18 18 21 22 23 22 24 26 29 35 39 39 37 34 27 20 13 12 25 7 9 16 23 19 11 4 16 11 5 3 4 8 6 15 10 5 5 7
13 12 11 12 14 15 17 18 19 20 18 20 20 21 20 23 28 31 35 41 43 40 38 27 19 11 9 18 21 29 23 24 19 20 19 15 10 5 4 5 5 4 3 2 4 9 7
12 12 11 13 15 16 16 18 21 21 20 20 19 21 22 25 28 32 38 43 43 37 23 12 6 6 11 10 10 17 21 10 9 16 16 8 5 5 2 1 3 3 6 5 4 6 5
11 13 13 14 17 17 17 18 21 21 21 19 20 21 23 25 26 31 37 41 27 6 10 12 4 3 10 4 5 6 3 10 3 5 4 5 3 4 2 4 10 6 5 2 4 3 3
10 12 13 14 15 15 16 18 20 21 19 19 20 21 20 21 24 29 37 21 5 2 2 7 7 8 9 10 5 1 2 2 3 4 5 3 4 9 10 5 4 4 4 4 3 5 5
13 14 15 16 17 18 18 20 18 18 19 19 20 21 19 21 24 29 15 5 6 13 15 13 20 24 33 14 7 6 3 3 3 4 3 1 6 5 7 6 6 6 7 9 5 5 5
11 13 13 14 16 17 17 18 18 19 19 20 21 21 21 21 24 14 20 13 23 26 5 13 14 13 12 17 15 18 4 3 3 5 7 6 4 1 7 4 5 4 7 4 7 4 6
12 13 14 15 16 17 17 17 18 18 19 20 21 20 20 20 14 16 13 19 25 25 5 8 6 8 11 9 9 19 13 6 4 9 6 5 1 3 2 1 3 4 5 6 4 2 7
12 14 15 16 17 17 17 18 19 20 20 20 19 19 17 13 15 6 17 28 29 3 5 3 5 7 11 13 6 5 9 4 9 6 6 3 5 4 3 3 3 5 4 5 7 3 2
11 11 14 15 16 17 18 19 20 20 19 19 18 18 16 14 10 15 21 26 13 2 9 6 5 5 7 5 1 6 5 3 4 4 2 4 2 4 5 2 1 1 2 3 3 0 8
11 12 15 16 17 17 18 19 19 19 20 18 18 17 15 14 5 9 20 9 1 6 8 1 2 6 10 5 2 4 8 7 6 5 4 2 3 3 4 3 2 3 3 2 4 5 6
11 13 15 15 16 16 16 17 18 18 18 17 18 18 18 20 20 11 8 2 8 6 9 9 7 5 6 5 4 3 8 4 1 5 4 5 1 7 5 7 6 5 5 3 4 3 3
13 13 15 14 15 17 18 17 17 17 17 17 19 16 14 25 14 10 2 5 4 3 7 13 16 4 4 4 6 4 3 4 5 4 4 4 3 2 5 4 7 3 7 2 5 3 3
13 13 15 16 16 17 18 18 17 17 17 14 11 9 12 10 9 14 2 5 5 2 11 10 6 8 7 6 3 5 3 3 3 5 3 2 1 3 2 4 2 4 3 4 3 3 3
12 14 15 17 16 17 18 18 17 15 14 10 5 4 5 2 16 2 4 4 6 10 9 6 9 7 4 4 5 5 4 1 2 3 3 2 2 2 5 6 7 3 3 3 2 4 2
12 15 15 16 16 17 19 18 16 12 8 4 2 3 2 12 1 2 2 5 10 8 7 6 11 6 7 8 7 3 5 4 3 2 4 1 3 2 8 5 5 3 3 4 2 2 3
14 14 15 16 16 17 18 19 15 9 5 4 2 3 4 7 2 2 5 8 8 9 7 4 7 6 5 4 5 8 5 3 6 3 3 3 2 3 2 3 5 4 1 2 6 3 6
12 14 16 16 17 17 16 15 11 8 7 6 1 3 3 2 0 2 3 8 4 7 8 11 11 9 3 5 6 4 4 5 4 2 5 5 2 2 3 4 3 4 6 7 3 3 3
13 15 16 16 17 17 15 15 13 9 10 9 1 3 2 2 2 3 3 5 9 4 3 7 3 5 4 6 5 5 6 5 5 4 3 3 1 2 5 8 5 5 10 12 9 8 6
15 17 17 17 17 17 15 13 9 11 15 4 3 1 2 3 5 5 2 2 2 4 3 5 4 4 6 4 2 2 5 4 2 5 3 3 2 1 4 5 2 5 14 15 12 9 11
16 17 19 17 17 17 14 11 9 13 20 4 6 2 2 3 3 3 3 7 7 10 4 5 6 3 4 1 3 3 4 5 4 1 1 1 1 2 4 4 7 6 7 10 3 4 2
17 18 19 18 18 15 14 11 9 14 26 8 6 4 3 3 2 3 9 11 8 11 5 5 4 3 4 2 4 4 4 5 5 7 5 5 4 3 3 3 3 6 11 11 6 5 16
17 19 18 19 18 17 16 14 13 13 27 22 10 4 3 2 3 5 6 4 5 7 5 4 5 3 5 4 3 3 3 3 4 8 7 5 4 1 2 3 8 9 4 3 10 8 6
19 19 19 20 19 20 19 18 17 17 20 27 21 14 3 2 4 6 3 2 3 3 6 3 4 5 4 3 3 2 2 1 3 5 3 5 3 3 1 2 3 4 3 11 11 3 2
20 19 19 20 22 21 19 19 19 19 20 29 10 28 5 2 4 3 1 1 2 2 1 3 5 5 4 2 0 2 3 2 2 2 1 3 1 7 6 6 6 4 10 8 4 3 6
21 20 20 22 23 21 21 19 18 19 23 30 12 23 17 3 4 3 3 3 1 1 1 3 3 2 3 2 1 2 2 2 2 3 2 4 4 3 3 4 7 11 3 1 3 9 9
22 21 22 23 23 23 20 19 17 18 23 30 8 23 26 2 4 4 18 20 14 5 2 3 1 2 2 2 2 1 2 3 1 2 4 1 2 2 5 3 6 12 11 12 11 13 14

GFSGBSN_925_spd_096.txt.gz
Wind_Speed
7 9 9 10 11 13 15 16 17 18 19 19 20 22 21 21 22 23 28 31 31 30 29 25 23 20 11 3 11 17 22 9 0 10 10 7 5 5 5 4 4 6 2 5 7 9 7
7 8 9 9 9 12 13 15 17 19 20 21 22 23 22 24 23 25 31 35 36 38 33 27 20 16 9 12 9 10 9 8 1 6 6 8 7 7 4 5 6 2 7 13 8 10 7
8 9 7 8 11 11 13 15 16 18 21 21 22 23 23 24 25 28 32 37 40 44 36 29 21 14 13 23 12 19 31 23 21 13 3 12 6 3 4 2 6 4 7 8 7 6 8
7 8 8 8 10 12 14 16 17 18 21 21 20 22 25 27 30 33 35 38 46 45 39 27 16 11 10 19 23 33 29 28 27 20 20 12 7 3 4 3 5 2 2 3 4 10 8
7 8 9 9 12 13 14 14 15 18 20 20 20 22 24 27 29 31 36 41 49 30 17 5 6 8 10 10 9 17 18 10 4 14 15 5 5 5 2 4 2 1 4 4 4 7 5
5 7 9 10 11 12 13 15 17 19 19 21 20 21 23 25 28 32 36 45 25 3 8 7 2 2 7 5 11 9 6 13 3 7 3 4 2 4 3 4 9 5 4 4 5 5 5
6 9 10 10 11 12 14 14 17 18 19 19 20 22 24 25 27 30 37 20 5 3 7 9 13 11 17 11 8 5 2 3 3 4 6 5 4 8 11 5 2 3 4 4 2 6 5
6 7 8 8 10 12 13 14 15 17 18 20 21 23 23 23 26 28 14 4 8 9 14 13 21 24 36 26 12 17 8 4 5 4 5 3 11 7 6 6 6 5 5 5 5 7 7
6 8 9 10 11 12 13 14 15 17 18 20 21 21 22 23 25 15 18 13 24 23 7 16 16 12 12 19 16 22 3 3 4 6 6 6 2 7 7 5 6 4 4 4 6 4 5
6 8 9 10 12 12 13 15 16 18 19 20 21 21 22 22 13 15 15 23 30 16 5 7 5 7 6 7 9 22 17 6 2 8 7 4 3 5 6 4 6 3 5 5 3 2 3
8 9 8 8 10 12 13 14 15 17 19 20 20 20 19 16 15 6 14 26 25 3 6 3 3 5 8 12 4 8 13 4 6 5 6 5 7 5 3 4 6 4 3 2 1 3 1
6 7 8 10 11 12 13 14 16 17 18 19 20 19 18 16 12 17 16 30 3 3 8 6 3 4 8 10 1 7 6 3 5 4 0 5 1 4 4 3 3 3 2 1 2 2 5
8 8 8 11 11 12 12 13 15 16 17 18 18 20 19 16 5 12 21 9 4 4 7 7 9 6 11 5 3 7 12 6 6 5 5 2 2 2 3 4 2 3 4 3 3 2 5
8 9 9 11 10 10 12 15 15 15 17 18 19 22 23 22 21 11 9 3 5 6 7 13 8 19 6 4 1 3 10 4 2 4 4 5 3 7 4 4 4 3 3 4 4 3 3
11 9 9 10 11 11 13 15 16 16 16 18 18 18 17 12 7 9 4 2 3 5 5 9 15 5 3 3 4 5 3 5 5 5 4 4 1 2 3 3 6 3 3 1 3 6 4
9 9 10 11 13 12 13 15 16 16 15 14 13 9 10 10 2 9 3 6 4 8 5 5 4 8 7 5 2 4 3 0 4 6 1 3 5 2 3 4 4 4 4 1 3 3 4
11 10 10 11 12 12 13 15 15 15 11 10 6 4 8 3 13 2 2 5 10 13 6 6 7 5 5 5 3 3 4 3 2 3 4 3 3 3 4 3 6 3 1 2 2 3 3
11 10 10 11 12 12 13 15 15 13 6 3 2 3 2 4 2 2 2 4 3 12 9 3 4 5 5 9 5 4 4 5 5 3 4 2 3 2 3 4 5 4 3 1 3 3 3
10 12 10 11 12 12 13 14 12 7 2 3 1 3 3 2 1 2 6 7 6 10 9 4 5 4 7 6 4 6 5 5 10 5 3 2 2 3 3 3 5 3 2 2 3 3 6
12 10 11 11 12 12 13 12 9 6 4 4 1 3 3 1 2 4 4 5 5 8 12 1 5 7 8 8 8 6 2 2 2 2 9 6 3 4 2 3 2 3 3 6 7 3 4
10 11 10 11 12 12 12 11 10 5 10 6 1 2 2 3 1 4 5 5 9 7 7 3 1 8 8 4 4 6 7 6 7 7 5 4 3 2 1 4 3 6 9 9 11 12 7
13 14 13 12 13 12 12 10 8 6 14 4 3 2 2 3 5 4 7 9 11 8 4 2 5 5 9 4 1 4 5 6 4 7 4 4 2 2 2 5 2 5 9 12 15 15 13
15 14 13 12 13 12 12 9 5 10 18 4 3 0 2 4 3 2 1 5 9 13 7 8 6 3 5 6 4 2 2 2 1 2 2 1 3 2 2 2 6 7 4 5 6 4 2
14 15 14 14 14 12 12 9 6 12 21 7 5 4 3 3 2 3 6 6 9 12 4 8 7 4 4 10 6 4 4 4 3 5 3 2 2 2 2 3 2 6 10 5 4 4 7
16 17 14 16 14 14 11 10 9 9 25 17 10 4 2 2 4 7 6 5 6 10 4 3 4 2 8 5 4 2 3 3 3 2 3 4 3 1 1 1 6 8 3 4 4 8 4
18 17 15 17 15 15 13 13 13 13 14 26 15 11 2 2 3 4 4 4 3 4 6 3 4 7 6 3 3 3 1 0 3 3 8 5 4 2 1 0 3 5 4 10 6 3 14
18 18 16 18 16 17 15 15 14 15 15 21 10 21 4 2 4 3 1 2 2 2 3 4 6 6 5 3 3 2 2 3 1 1 1 3 3 3 2 4 5 4 10 7 2 4 9
21 18 18 18 18 18 17 17 15 15 15 23 11 22 13 3 4 4 4 4 2 0 2 4 4 3 3 4 2 2 1 2 3 2 1 2 3 3 2 3 6 10 2 4 4 12 12
21 18 20 19 19 19 19 19 20 17 16 24 7 22 23 3 4 3 12 20 12 5 3 4 1 2 3 3 2 2 2 3 3 2 5 2 2 2 5 2 7 8 9 8 10 10 13

GFSGBSN_925_spd_099.txt.gz
Wind_Speed
5 5 6 5 6 9 10 12 13 14 15 16 16 17 18 18 19 21 24 27 29 30 27 27 23 17 11 4 12 15 20 13 6 7 9 10 7 7 10 7 7 7 5 7 11 14 12
5 5 4 6 7 8 9 10 12 14 16 17 16 17 19 19 20 22 25 29 32 37 33 30 22 14 6 15 14 11 11 7 3 6 6 10 9 10 6 7 12 5 15 15 7 12 9
5 4 4 5 6 8 10 11 12 12 15 16 16 17 19 21 23 25 28 33 38 40 42 34 23 14 14 23 14 12 18 22 22 13 3 11 8 7 6 2 8 4 7 10 10 10 8
4 5 6 6 8 9 10 10 11 13 15 16 16 17 20 22 25 28 30 37 40 44 34 22 12 12 9 16 18 28 25 24 24 23 19 16 5 5 4 3 2 5 3 5 1 13 9
3 5 5 7 8 9 10 11 13 13 14 15 16 18 20 23 26 30 33 39 38 22 9 4 5 8 9 6 7 14 17 12 4 15 15 5 6 5 4 8 4 2 8 5 3 7 4
3 4 6 7 8 9 11 11 12 12 13 15 16 18 20 23 25 28 31 35 19 4 4 0 2 4 7 4 9 16 9 10 6 9 5 7 4 6 4 9 11 9 7 5 6 2 7
3 4 6 6 7 9 10 10 11 13 14 15 16 18 20 22 24 27 31 20 7 3 9 7 16 19 29 22 18 8 5 4 5 5 10 8 10 17 18 17 5 6 4 6 2 5 8
2 3 6 7 8 9 10 11 12 13 14 15 17 19 20 22 24 24 17 4 7 8 14 15 23 25 35 24 13 19 5 6 6 9 7 6 17 11 10 9 9 8 10 10 6 8 7
1 3 5 6 7 9 10 11 12 14 14 16 17 19 20 22 23 7 20 1 18 16 6 16 15 13 10 20 17 22 6 4 5 8 8 6 2 13 11 8 9 8 12 8 10 5 7
1 3 5 5 6 8 10 11 12 14 15 16 17 18 19 22 5 20 11 14 24 9 5 8 4 5 6 6 10 23 20 7 4 12 11 6 2 6 7 10 11 12 8 7 5 3 5
3 3 3 6 8 9 10 11 13 14 15 16 17 17 17 15 12 6 12 23 29 1 5 2 0 1 4 7 6 7 18 5 7 7 6 5 7 8 6 4 9 4 5 6 5 6 3
2 2 4 6 8 9 10 11 13 14 15 15 16 16 17 13 14 9 18 25 5 2 7 7 3 8 2 10 6 4 12 3 3 5 3 3 2 4 5 4 3 8 6 2 2 3 5
2 3 5 6 7 8 9 11 13 14 15 16 17 18 18 12 5 17 17 8 0 4 7 7 10 14 14 13 5 8 14 11 10 8 8 2 3 3 5 7 2 3 5 2 2 3 4
4 4 6 5 7 8 10 12 14 15 15 15 19 19 18 10 11 13 6 2 4 5 8 11 11 22 9 5 5 10 17 11 2 5 10 9 5 8 5 3 6 7 4 3 4 3 1
4 6 5 5 7 9 10 11 13 14 15 14 18 16 8 8 13 2 2 1 3 4 8 11 21 6 4 2 0 8 7 11 4 4 5 6 2 3 3 3 3 3 3 1 2 3 1
6 5 5 6 6 8 9 11 13 13 13 12 12 7 8 16 3 3 3 4 5 9 15 5 6 8 15 10 1 4 4 2 4 4 3 6 6 2 3 5 9 2 6 3 1 2 3
6 7 5 6 6 8 9 11 12 13 10 8 4 3 9 6 4 2 0 4 8 11 10 7 3 7 8 6 8 4 4 3 1 3 2 4 3 2 5 3 8 3 3 3 1 2 1
7 7 6 6 6 8 9 10 10 10 5 3 2 2 2 4 3 1 2 3 10 12 12 7 6 6 7 4 5 4 4 6 10 3 4 1 4 4 2 3 4 3 4 3 2 4 2
9 7 9 6 6 7 8 10 7 5 2 2 1 2 2 2 2 3 5 6 7 8 11 3 4 3 14 7 3 4 5 10 10 3 2 3 2 6 7 5 2 3 3 4 3 1 4
8 9 7 6 5 7 7 9 6 4 2 2 2 3 3 1 1 3 9 5 7 6 12 6 4 8 6 5 5 4 3 7 9 7 11 4 3 3 4 5 3 2 2 2 2 2 4
11 10 9 5 6 7 8 8 6 4 6 3 2 0 1 3 2 7 5 6 9 10 4 4 3 7 9 4 6 9 11 7 5 8 4 4 5 5 5 3 3 3 3 5 7 10 7
12 9 10 8 7 8 7 7 5 4 12 2 3 2 1 3 6 5 4 5 9 11 4 6 10 9 8 8 10 8 6 3 3 8 4 3 3 1 1 3 4 4 7 10 9 10 13
13 10 10 9 7 8 7 7 3 10 14 3 2 2 2 3 4 4 2 5 8 11 6 11 14 6 5 10 12 12 7 6 4 3 3 3 3 1 2 3 4 5 4 7 7 6 5
12 13 10 10 9 9 8 7 5 11 15 5 4 4 2 2 2 4 9 10 11 11 9 11 10 8 4 14 11 7 5 5 3 4 2 2 3 1 1 2 2 2 8 2 8 8 11
16 14 11 12 10 9 9 7 6 7 22 12 8 4 2 2 3 8 6 7 10 11 3 4 5 5 12 5 3 2 1 2 4 7 2 1 2 3 1 1 5 2 6 5 5 8 13
15 13 13 14 11 12 11 9 8 8 11 20 12 8 3 1 3 3 3 4 4 4 7 3 4 8 7 2 3 5 3 3 2 2 6 5 4 2 1 1 2 4 10 11 5 3 17
17 14 14 14 12 13 12 11 11 11 12 19 10 17 4 2 3 4 2 3 2 2 4 4 7 7 5 5 3 4 3 3 2 2 2 3 3 1 2 2 4 7 14 9 2 4 11
15 15 16 14 13 15 13 13 14 12 11 19 9 23 11 3 3 6 4 4 2 1 3 4 3 3 4 6 3 3 3 3 3 3 3 3 2 1 1 2 2 12 5 5 1 7 9
16 16 17 15 15 16 16 15 16 15 12 20 7 24 20 3 3 4 11 19 15 6 2 2 0 2 3 3 3 3 2 3 5 2 5 3 4 2 3 4 6 11 11 10 10 8 9

GFSGBSN_925_spd_102.txt.gz
Wind_Speed
7 6 5 4 4 5 5 7 8 9 10 11 12 12 13 14 17 20 22 24 27 28 27 24 22 19 12 9 12 13 17 15 9 7 11 12 16 20 23 17 20 23 21 16 16 20 20
7 6 5 4 4 4 5 7 7 8 11 12 13 12 13 16 17 20 22 25 30 32 31 28 23 16 13 19 12 10 7 7 5 10 12 16 12 17 12 20 19 8 22 21 19 17 18
7 6 6 5 3 4 5 6 6 8 11 12 12 13 14 16 19 22 25 29 32 33 33 28 21 14 16 24 11 9 14 15 11 9 11 14 20 11 10 14 19 18 19 17 16 14 13
8 7 5 3 3 5 6 5 7 10 11 11 13 14 17 20 23 25 28 29 31 28 22 13 7 10 10 9 16 23 21 21 22 23 19 13 7 15 15 13 7 17 18 19 18 20 22
8 6 5 4 3 5 5 6 8 9 11 12 14 16 18 21 24 27 30 29 28 16 4 3 4 6 11 4 8 10 12 13 8 18 18 11 9 14 13 15 14 13 15 17 14 12 13
8 5 3 2 3 4 4 6 8 8 9 11 13 16 19 21 24 26 28 28 13 5 4 5 2 6 8 5 8 15 10 10 9 9 12 11 9 13 16 16 19 15 15 18 15 13 16
7 6 6 5 3 3 5 6 7 8 10 13 15 16 18 21 22 26 22 14 6 4 9 10 17 20 24 31 27 23 8 4 10 13 17 20 15 23 24 21 16 16 16 17 10 4 12
7 6 4 3 2 4 4 5 7 9 11 13 14 16 17 19 21 13 15 6 7 6 13 17 26 28 37 32 17 23 19 10 15 15 18 12 24 22 19 18 20 18 16 15 12 11 14
8 6 4 3 3 2 2 4 7 9 11 13 14 15 16 19 16 9 11 5 10 14 7 12 10 12 9 10 18 27 15 19 16 17 22 17 10 22 16 16 19 20 19 14 13 11 16
8 6 3 4 2 0 3 5 7 9 11 12 13 15 16 21 5 14 6 12 14 9 5 7 3 1 3 5 8 22 24 16 13 19 17 13 8 10 18 22 19 18 16 14 12 8 7
8 5 5 3 0 1 4 5 7 8 10 12 14 14 15 14 11 9 12 16 16 5 6 6 4 4 6 7 17 3 29 22 18 13 10 10 14 14 16 19 17 14 6 11 10 10 10
7 7 5 3 1 2 2 4 7 9 11 13 15 15 16 10 11 10 15 19 6 6 10 5 6 12 16 12 21 11 15 16 13 11 15 8 4 10 8 8 16 9 9 6 4 5 7
9 6 5 3 1 1 3 5 8 10 11 13 15 17 14 9 8 16 16 9 6 8 7 4 14 20 23 20 14 12 17 20 15 17 15 10 10 6 13 13 9 11 12 5 5 4 5
8 6 3 3 1 1 4 5 7 10 12 14 15 15 7 4 11 11 7 5 6 8 13 19 18 24 10 18 12 12 14 20 20 12 13 11 7 12 10 11 9 14 13 4 7 5 4
9 5 5 3 2 2 3 5 7 9 11 13 14 7 5 13 8 3 4 3 7 14 14 17 24 13 11 19 9 9 14 21 18 13 6 11 6 8 12 6 9 10 8 1 2 1 3
9 5 5 4 3 2 3 5 7 9 11 10 8 4 8 12 4 3 2 5 7 14 16 14 10 8 19 23 11 7 14 16 14 13 5 7 6 11 9 12 4 5 9 4 4 5 5
8 8 4 4 3 2 3 4 7 8 7 6 3 2 6 6 7 3 5 7 15 14 14 4 7 12 10 15 12 6 7 10 7 10 2 10 6 8 11 9 13 6 5 2 0 2 2
10 8 7 5 3 2 2 5 5 5 5 3 2 1 6 7 1 2 6 11 15 11 10 8 8 11 13 15 7 8 7 5 0 11 10 1 7 11 9 4 4 3 5 4 3 5 2
11 9 8 7 3 3 1 4 4 2 5 1 2 2 1 4 4 7 10 9 6 12 12 7 6 9 15 5 5 3 4 11 5 5 3 5 7 8 8 6 7 6 6 6 4 2 3
12 11 8 8 4 3 1 2 2 2 1 1 1 1 1 1 2 7 10 10 15 13 11 11 9 10 14 3 4 6 6 14 14 11 13 2 3 4 6 8 9 8 8 6 3 3 1
12 12 9 7 4 3 3 3 2 2 4 2 2 2 2 2 1 8 8 10 15 13 8 7 3 14 13 8 11 9 12 8 17 16 10 6 8 11 11 10 8 8 7 5 2 5 4
14 12 10 8 3 4 5 3 2 4 8 1 2 1 3 3 5 5 4 7 13 12 5 12 16 19 12 13 12 13 13 9 6 1 4 5 2 7 9 7 5 3 1 4 3 4 6
14 13 10 9 9 6 5 4 2 9 10 2 2 1 3 1 3 4 3 7 9 14 5 11 16 14 13 17 19 14 10 9 6 7 7 2 3 2 4 1 1 3 7 6 2 5 7
15 14 11 11 9 7 5 6 4 10 12 3 3 1 2 1 3 5 9 10 10 11 11 15 13 12 12 21 16 5 4 1 3 7 3 2 4 2 3 2 3 6 6 6 4 11 16
15 13 12 11 9 8 7 7 5 8 18 5 5 2 2 3 4 3 8 8 9 8 6 9 11 12 15 12 5 2 3 2 5 13 5 4 2 3 1 4 6 8 8 9 8 7 16
14 14 14 12 11 10 8 9 6 7 12 14 9 3 2 4 1 3 7 6 5 8 6 5 11 10 11 3 3 5 4 4 3 3 6 4 4 2 0 2 3 7 11 10 8 2 15
15 15 14 12 12 11 10 9 8 8 8 17 6 12 2 3 1 3 4 5 3 4 4 4 11 8 11 6 4 4 4 4 2 3 5 3 3 4 2 3 5 11 15 14 4 6 10
15 14 16 14 11 12 14 8 10 9 7 18 8 18 7 3 6 6 7 8 5 4 4 9 4 5 5 4 4 4 4 5 3 6 4 4 3 2 1 1 2 16 7 6 5 9 9
15 16 16 16 14 13 14 11 12 10 9 12 6 19 15 3 5 4 10 16 16 11 6 2 5 3 4 3 3 3 2 3 4 2 7 2 5 4 5 3 5 7 10 9 11 8 9

GFSGBSN_925_spd_105.txt.gz
Wind_Speed
14 12 11 9 8 6 4 2 3 5 7 8 9 10 11 14 16 19 22 24 27 28 27 25 22 18 14 10 20 22 20 21 20 14 16 13 20 21 29 27 26 31 27 26 24 23 21
14 12 11 10 7 6 3 1 3 4 7 9 10 12 14 16 18 20 23 27 29 30 28 27 23 15 14 23 14 15 15 10 12 20 20 19 17 19 21 28 27 26 28 26 24 21 20
14 13 13 10 6 4 2 1 2 4 7 8 10 12 15 18 20 22 25 29 31 30 28 26 19 10 17 26 13 16 16 17 16 15 17 22 19 18 19 23 22 27 23 21 21 27 24
15 14 12 9 5 4 4 2 1 3 6 8 11 13 15 19 22 24 26 29 29 29 26 15 10 9 10 12 14 24 26 28 25 27 25 20 16 18 22 14 21 17 25 24 24 21 20
14 12 11 9 7 4 2 1 1 5 6 9 11 14 17 20 24 25 28 28 29 20 10 6 7 7 14 1 12 13 18 21 20 20 24 22 19 18 16 20 18 24 21 27 26 25 23
14 13 11 9 7 5 3 1 2 4 7 9 12 15 18 20 23 24 26 27 24 11 9 11 11 5 12 11 3 7 12 14 13 14 17 21 12 18 20 18 23 23 24 22 23 19 21
15 12 10 10 8 5 4 1 3 5 7 10 12 14 18 20 22 23 22 25 8 6 6 12 18 20 25 28 29 28 26 14 14 16 20 23 19 23 35 28 24 22 20 21 16 20 19
15 14 11 10 7 5 3 1 2 4 7 10 12 14 17 19 21 11 16 10 11 6 15 21 26 27 32 25 17 20 23 20 18 21 21 19 26 31 24 24 23 22 19 17 15 17 8
15 12 12 10 7 5 3 1 2 4 7 9 11 13 16 19 10 10 12 9 11 13 8 21 16 13 10 7 18 20 20 21 23 22 23 27 23 24 25 21 21 19 19 19 17 12 14
15 12 10 9 8 4 3 0 2 4 6 8 10 13 15 21 9 14 5 13 12 11 6 8 8 4 4 5 10 13 18 23 24 27 23 25 23 18 22 23 20 19 20 21 18 14 14
15 13 11 9 6 5 2 2 3 5 7 8 10 13 15 9 10 10 12 14 13 1 7 6 5 5 8 8 11 15 3 20 27 26 20 19 21 19 23 23 18 17 18 19 16 16 15
15 12 12 8 6 4 2 1 2 5 7 9 10 12 14 9 8 8 14 15 9 6 8 5 10 17 18 19 21 15 19 15 22 26 21 17 12 15 15 19 14 21 11 11 13 12 14
14 12 12 9 7 5 3 2 4 6 8 10 11 12 8 5 9 15 14 12 6 7 12 13 23 24 25 20 21 23 20 18 21 20 16 15 18 16 13 12 16 17 16 8 9 10 11
16 12 9 9 6 4 2 3 5 6 8 10 11 6 4 5 13 11 13 9 9 12 20 23 20 27 25 16 16 16 13 16 25 25 12 15 7 15 16 17 13 19 17 7 11 13 13
15 13 10 9 6 5 3 3 5 6 9 10 6 0 2 10 8 7 8 5 11 14 17 18 25 18 16 15 14 13 19 19 23 25 8 14 5 13 15 11 16 17 15 18 6 9 4
16 13 11 10 7 6 3 3 5 7 8 8 6 3 3 8 7 12 5 8 11 13 18 18 17 10 15 28 16 16 12 17 26 19 12 5 6 12 15 11 7 14 14 6 6 4 6
16 12 11 10 7 6 4 3 5 6 5 5 6 4 5 7 5 3 4 10 13 14 13 8 14 20 17 22 8 12 7 16 20 19 12 10 9 12 14 13 14 6 10 5 5 3 4
15 13 11 9 7 6 5 2 3 3 4 3 4 1 4 5 3 2 5 11 8 13 14 10 10 14 12 17 9 6 5 11 7 13 13 11 4 12 19 14 9 14 11 10 5 5 1
15 11 13 10 9 7 6 2 2 3 3 7 2 1 2 4 3 5 9 8 11 17 14 7 8 6 11 7 4 7 3 13 3 3 4 6 5 10 6 9 6 10 7 4 3 2 5
15 14 10 11 10 7 6 4 3 3 2 5 1 0 1 2 1 8 9 8 15 8 6 14 10 7 16 6 8 10 8 15 14 9 10 2 5 8 6 12 14 8 10 7 3 3 1
17 15 14 14 10 7 7 5 4 3 3 5 2 2 1 0 2 7 7 9 13 12 9 15 5 20 16 8 13 14 14 8 13 20 7 5 6 8 5 11 12 11 10 6 4 2 3
17 15 15 14 10 7 8 5 5 5 6 6 3 3 4 1 4 5 1 7 11 13 5 13 18 21 17 18 18 19 15 11 7 11 10 12 5 8 12 10 10 10 6 2 2 3 6
17 18 15 15 9 6 7 6 5 7 8 3 1 1 5 2 2 4 3 7 12 11 6 13 16 16 14 22 23 16 10 7 7 4 5 7 4 4 4 5 7 7 9 6 5 19 12
19 18 16 14 11 10 8 7 6 9 12 4 1 5 2 3 4 4 6 8 10 11 10 13 14 14 15 22 17 3 2 2 5 5 6 4 2 2 4 4 4 7 10 7 16 18 15
18 18 17 15 12 10 9 8 6 9 14 7 2 3 3 4 3 2 7 7 8 6 8 8 13 14 16 14 5 2 4 4 8 10 7 7 4 2 1 4 13 8 9 9 8 10 16
19 18 16 15 14 12 10 8 7 8 11 7 2 4 3 3 3 4 6 3 6 8 6 7 13 10 14 5 4 5 4 8 5 5 6 3 3 1 2 4 3 7 16 14 8 4 15
18 18 17 17 15 13 11 8 9 7 7 11 4 4 3 3 4 5 7 7 6 7 7 8 15 8 12 7 5 5 4 5 4 5 6 5 5 6 2 2 7 12 21 20 4 4 8
19 18 16 19 15 15 14 9 10 8 5 10 3 9 4 3 7 8 6 7 6 6 6 11 7 7 6 7 5 4 4 6 4 7 6 7 6 5 3 2 4 18 8 6 5 7 8
20 18 17 19 16 15 14 14 10 9 7 8 4 9 10 5 6 11 13 15 14 13 7 4 2 6 4 3 5 4 3 3 5 1 10 3 5 4 6 3 4 7 9 8 7 7 9

GFSGBSN_925_spd_108.txt.gz
Wind_Speed
19 16 14 13 11 9 6 4 2 2 3 5 7 8 10 12 15 17 21 23 25 26 27 25 22 19 14 8 20 27 21 23 18 17 19 17 18 18 26 25 26 31 30 29 27 24 25
18 17 15 13 11 9 7 5 4 2 4 6 8 10 12 14 18 21 24 25 26 26 27 26 22 17 13 18 16 14 15 19 17 17 21 23 19 19 22 24 27 28 29 29 27 27 25
18 16 16 14 12 9 7 6 4 3 5 6 8 11 14 16 19 22 25 27 28 28 26 27 23 14 15 27 18 21 21 18 18 18 15 19 26 22 20 24 26 27 29 29 27 29 26
21 17 16 15 13 10 8 6 4 3 5 6 9 11 15 17 20 23 26 28 28 26 25 21 14 10 14 19 17 22 21 24 26 26 27 26 26 24 24 23 26 26 26 24 29 25 24
23 19 18 14 11 9 8 5 4 3 4 6 9 12 14 17 20 23 27 29 28 22 19 12 9 13 14 9 13 13 13 17 18 21 25 25 23 21 19 19 19 22 22 30 28 26 25
21 19 15 13 11 8 6 5 3 3 5 7 9 12 15 18 21 25 24 26 27 21 14 12 17 11 14 11 9 5 9 9 14 14 15 19 16 18 18 17 20 23 26 24 25 23 26
19 18 15 13 11 9 6 5 3 3 5 7 9 12 16 19 21 16 24 21 13 1 11 14 18 20 22 27 35 29 23 24 18 15 17 19 16 21 30 27 28 24 25 25 23 26 25
19 18 14 13 11 9 7 5 3 2 5 7 9 13 16 18 17 13 17 11 11 10 17 18 28 29 37 32 29 24 21 19 19 23 21 18 23 30 27 25 29 29 27 26 21 25 16
23 19 17 14 11 10 8 6 4 3 4 6 9 13 15 18 13 11 12 12 14 16 8 22 13 12 16 19 20 22 18 17 22 25 24 23 26 24 27 27 27 27 27 21 20 20 17
24 20 16 14 12 11 9 7 4 2 2 6 9 12 15 19 8 13 8 15 14 12 6 7 4 5 5 16 16 17 12 18 20 27 24 25 27 24 26 29 27 23 24 21 20 14 11
23 20 17 15 13 11 9 7 4 2 3 6 9 11 13 9 11 8 13 15 13 4 6 8 15 6 15 12 5 23 25 6 20 23 19 27 24 23 26 25 26 22 14 12 12 13 16
22 20 17 16 13 12 9 7 4 1 3 5 8 11 13 9 10 10 15 14 9 4 3 18 18 24 26 25 23 26 23 10 17 20 25 28 20 22 24 19 22 14 4 8 10 12 14
21 18 18 15 13 11 9 7 4 2 3 6 8 9 6 8 9 16 14 7 4 4 23 18 28 24 26 24 19 21 19 18 14 16 23 22 15 25 16 17 18 11 12 3 7 7 12
20 19 17 15 12 10 8 7 4 2 4 7 7 6 5 4 11 11 11 3 6 15 18 23 21 28 20 7 8 21 19 17 14 26 15 16 9 19 11 17 14 19 17 6 8 9 11
19 17 15 15 13 9 8 6 3 3 4 8 7 5 8 3 7 9 6 4 7 14 17 19 22 15 16 17 18 13 14 18 21 22 16 7 11 11 13 9 17 20 19 19 4 7 2
19 17 15 14 11 10 8 5 3 4 4 6 6 6 2 4 5 7 4 6 9 9 13 14 10 10 18 30 16 11 11 9 11 18 4 2 4 6 7 5 7 7 11 8 5 5 3
14 18 15 14 11 10 7 5 3 2 3 5 6 4 5 3 4 5 3 7 11 10 13 8 18 15 20 14 9 9 11 17 11 12 12 5 3 9 6 9 11 2 7 5 8 7 2
16 16 15 14 11 10 7 4 2 1 3 4 4 2 3 2 2 4 4 10 10 14 11 10 8 6 6 16 6 6 8 13 5 19 11 11 6 7 15 9 11 12 7 15 2 5 4
17 17 15 13 12 9 7 5 1 1 2 8 3 1 3 2 3 4 8 8 7 9 9 11 5 5 14 5 7 8 9 15 24 14 7 4 3 2 4 7 5 7 17 14 8 3 3
18 18 15 14 12 9 7 5 3 2 2 3 2 1 1 5 2 7 8 8 9 4 6 13 6 7 11 5 14 5 10 13 18 19 16 8 3 4 2 5 8 7 10 7 3 2 5
20 17 15 14 14 10 7 6 3 2 2 2 2 3 1 2 3 4 9 8 11 10 6 12 7 18 14 8 11 15 8 12 10 20 13 5 9 3 9 17 12 7 7 6 6 3 4
20 19 18 15 14 9 8 7 4 3 4 4 3 3 4 5 3 7 2 6 10 12 9 12 15 17 11 14 16 18 11 8 7 11 7 10 1 8 9 12 21 10 4 10 15 18 18
20 21 18 17 14 8 9 8 5 5 5 3 1 2 4 1 3 4 1 8 11 11 7 13 14 14 12 18 20 18 10 8 4 6 8 10 5 6 10 12 11 11 16 17 19 19 12
21 20 18 18 14 9 9 8 7 6 9 5 9 8 3 4 4 3 6 10 11 10 8 12 13 14 13 19 17 4 2 3 7 7 3 3 7 3 2 1 4 6 18 21 22 20 17
23 20 19 17 13 10 8 7 6 7 7 4 7 5 4 3 7 4 5 9 12 7 9 7 13 13 14 16 5 4 2 6 8 7 6 4 4 2 2 2 10 12 16 14 10 14 18
20 22 19 17 14 12 7 8 7 5 8 5 3 3 3 4 5 6 8 8 6 10 8 10 16 11 14 5 4 7 4 7 5 6 5 6 7 3 2 4 1 6 20 19 14 7 15
22 20 20 16 16 13 10 8 7 6 6 7 1 1 3 2 2 6 7 7 7 8 8 10 15 10 13 6 4 5 4 10 6 8 8 7 5 7 4 3 5 15 22 15 3 4 7
21 20 19 16 18 13 12 9 8 6 5 8 1 3 2 2 7 6 7 5 8 8 7 12 7 8 6 7 5 4 4 5 4 13 9 7 5 5 6 5 4 22 6 6 2 3 7
19 20 19 16 18 14 14 12 8 7 7 6 1 3 1 2 6 12 13 15 11 11 7 7 4 5 4 4 5 4 3 4 9 1 12 5 4 3 5 3 4 7 10 8 9 9 9

GFSGBSN_925_spd_114.txt.gz
Wind_Speed
34 31 28 27 24 20 17 14 12 11 8 7 5 7 8 10 12 14 17 19 20 20 19 18 16 14 10 3 10 5 10 14 13 12 8 3 3 2 6 5 6 17 24 18 19 16 21
38 35 32 32 26 22 19 16 14 11 9 8 7 8 9 11 14 16 18 20 21 21 19 14 11 8 3 5 5 7 8 15 12 11 8 5 6 7 9 12 16 7 13 19 18 24 21
43 39 40 34 28 23 20 17 15 13 10 9 9 8 10 11 14 17 19 20 20 20 17 12 8 3 4 13 14 18 18 18 17 15 4 16 11 6 6 9 6 9 17 22 23 19 14
48 45 43 37 31 27 23 20 16 14 10 8 9 9 10 11 14 16 18 19 23 23 19 13 6 5 7 15 16 21 20 22 17 18 16 17 20 7 5 5 7 12 7 10 19 10 14
50 48 44 37 32 30 26 19 16 13 10 8 7 8 9 13 15 14 18 23 20 9 7 5 6 7 8 12 5 12 20 7 23 20 19 16 9 8 3 2 7 6 15 19 22 4 12
54 50 45 40 36 29 26 21 17 13 9 8 7 7 9 12 14 14 20 18 7 7 5 4 3 1 4 7 17 28 21 15 6 8 8 5 3 7 6 3 13 18 10 13 14 2 10
53 52 47 41 34 30 24 21 19 14 10 8 7 7 7 10 10 14 20 5 6 5 5 4 5 4 12 10 18 11 22 15 6 1 3 4 7 10 13 14 17 13 15 21 18 14 11
54 50 46 41 33 28 22 19 14 13 10 7 7 5 7 9 8 9 12 5 5 4 7 6 14 9 18 9 5 10 6 0 2 3 6 8 14 17 16 15 16 16 18 23 22 24 15
56 49 43 33 32 27 23 16 13 10 9 6 7 5 7 9 4 4 9 8 3 2 2 6 4 2 6 6 7 13 5 3 1 3 5 6 22 14 16 19 19 19 19 17 22 19 20
58 46 42 38 29 26 21 17 11 10 9 7 5 3 7 6 2 4 1 12 3 3 3 3 2 2 3 11 5 21 6 8 6 7 9 9 16 19 20 21 17 15 21 19 20 12 9
52 51 42 37 29 24 22 18 11 11 8 7 3 5 4 2 1 1 7 12 4 2 3 10 1 3 13 3 16 2 9 4 15 13 5 15 12 8 19 18 14 17 21 20 13 11 4
52 43 36 34 29 23 18 18 14 11 9 5 3 4 2 3 2 4 12 10 2 3 1 5 5 16 15 16 7 12 4 6 7 9 9 19 17 13 14 12 12 4 7 11 1 3 7
50 40 35 31 26 23 19 17 14 11 8 7 4 4 2 2 2 9 9 2 2 5 5 5 9 13 19 13 16 9 14 13 7 4 5 7 12 7 11 9 10 5 3 3 1 2 5
40 36 33 28 24 22 20 16 14 11 7 5 5 4 3 7 4 7 4 2 6 2 3 5 9 13 5 11 9 8 7 4 5 12 5 3 7 4 3 9 7 4 9 5 6 4 4
35 32 28 25 24 20 17 15 11 9 6 5 4 0 2 3 4 4 4 5 3 2 4 7 8 4 5 7 8 9 6 5 3 5 7 2 4 4 2 5 4 5 6 7 4 3 3
29 27 28 25 22 19 16 13 10 8 5 2 2 0 3 3 2 1 3 3 2 2 3 4 3 2 6 9 10 5 9 6 14 15 7 3 5 1 6 4 8 11 5 2 2 3 2
25 27 24 23 21 18 14 11 9 7 5 2 3 2 3 3 2 4 3 3 2 4 4 4 3 4 5 6 9 4 9 8 9 12 8 3 3 5 10 5 3 0 4 4 4 3 1
24 22 27 23 20 16 12 11 9 7 5 3 3 2 6 5 3 1 2 3 2 1 6 4 2 4 5 4 5 4 5 7 12 11 7 3 2 7 6 10 2 1 2 4 4 1 3
22 20 20 20 17 15 13 10 7 6 4 5 3 1 2 2 2 2 4 3 2 2 1 2 3 6 4 2 2 5 7 9 14 10 4 2 1 4 1 4 5 3 2 2 8 2 1
21 21 19 19 17 15 12 10 7 5 3 4 2 2 3 2 1 4 1 2 4 1 1 3 5 2 4 3 5 5 4 8 17 6 13 4 3 5 3 4 2 4 8 5 6 4 6
23 21 21 19 16 14 12 9 7 5 3 3 2 3 4 3 2 3 2 1 2 3 2 3 4 3 2 3 6 3 4 11 8 6 6 3 6 8 2 3 13 10 8 10 12 9 4
25 22 20 19 17 14 11 9 6 5 3 2 3 3 2 2 6 4 1 2 1 4 3 6 2 8 2 3 5 9 8 3 6 9 6 6 3 7 12 17 22 20 24 20 16 13 13
23 22 19 18 17 13 10 9 6 5 4 1 2 2 3 2 3 4 4 3 2 3 6 4 2 4 6 5 11 18 13 11 12 5 5 5 3 3 2 7 1 15 16 21 20 18 7
25 21 20 17 18 14 9 8 6 5 6 3 3 1 3 1 2 4 5 2 3 4 3 3 5 4 6 14 13 7 7 6 5 5 5 6 6 2 2 7 6 4 9 19 22 16 14
25 23 19 20 17 14 10 9 7 6 7 3 4 1 2 2 2 6 7 3 4 6 4 2 5 4 9 6 5 5 4 6 5 1 10 3 4 3 1 6 7 8 9 6 5 11 11
24 22 20 22 18 13 10 10 9 7 8 3 4 4 3 4 3 5 3 3 2 4 6 3 5 9 6 3 3 3 3 4 5 10 8 7 11 4 1 4 3 4 17 11 6 8 11
23 25 23 23 18 14 11 11 9 8 10 5 4 6 4 3 2 2 2 1 1 2 1 3 6 7 5 4 4 3 3 3 4 6 7 4 4 6 5 4 4 13 17 6 3 3 7
27 27 25 24 19 16 12 11 10 9 11 6 6 6 3 2 4 3 3 1 3 3 2 4 4 4 4 5 3 2 2 3 2 4 4 6 4 4 3 4 3 18 4 5 5 6 8
23 25 24 22 19 17 13 13 11 9 10 7 5 5 4 4 4 5 14 14 7 4 3 3 1 2 2 3 1 2 2 3 4 3 6 4 3 2 5 3 4 6 10 8 5 5 5

GFSGBSN_925_spd_117.txt.gz
Wind_Speed
39 40 36 33 29 28 26 23 21 19 17 14 11 9 9 11 13 15 18 18 19 18 17 14 13 14 8 4 7 7 8 8 10 7 5 3 3 2 3 4 5 14 11 14 15 17 15
45 44 41 39 34 34 30 26 23 20 18 14 12 10 10 11 12 14 16 19 19 18 16 11 8 8 3 3 3 11 17 16 10 4 2 1 3 4 5 6 7 9 19 21 22 19 10
51 49 46 43 39 39 33 28 25 22 19 16 13 10 10 10 11 14 16 16 17 18 18 11 4 4 2 9 11 10 10 12 11 7 3 9 7 4 2 5 5 6 15 18 21 11 12
56 53 51 48 44 43 37 30 26 21 18 15 12 11 9 8 11 14 15 16 19 19 12 7 3 4 6 7 13 10 18 9 8 13 5 13 15 5 5 5 5 7 6 9 3 11 10
59 57 54 52 49 47 39 33 27 20 17 15 12 9 8 7 9 11 15 18 11 6 2 7 8 5 8 11 9 13 11 4 11 7 6 9 4 6 3 1 6 4 12 14 23 7 12
58 58 56 53 51 48 40 35 26 21 18 14 11 8 7 7 8 9 14 6 6 7 11 9 5 1 6 4 10 15 8 7 5 3 3 1 1 1 2 3 13 10 8 11 12 10 11
63 58 58 54 52 46 38 32 26 22 19 14 10 7 6 5 7 9 13 4 6 2 2 3 2 3 6 9 17 7 11 3 3 2 2 3 1 4 13 9 12 13 15 19 18 18 21
65 61 58 57 50 42 32 26 25 24 18 15 10 6 4 5 4 6 10 6 3 2 5 2 4 6 13 10 6 8 2 2 1 5 1 1 7 15 8 12 12 16 15 18 20 23 14
66 64 60 55 50 41 35 31 24 20 16 13 9 6 4 3 0 9 16 7 1 2 1 6 5 4 4 8 6 6 4 3 7 4 6 6 11 9 13 13 12 15 17 20 18 22 14
68 65 63 58 51 40 36 32 28 15 14 12 8 6 2 1 5 6 3 9 3 2 4 1 1 2 2 6 4 15 3 5 1 3 4 8 5 5 8 12 12 18 12 15 16 15 13
70 67 64 58 52 46 38 33 25 20 16 12 8 4 1 5 7 4 3 4 3 1 1 5 1 2 5 1 8 2 10 1 5 7 3 9 7 8 14 17 10 16 11 11 20 15 9
70 70 67 58 53 48 39 31 26 21 16 12 7 3 3 8 5 5 2 3 4 4 2 4 3 6 9 3 4 5 3 2 4 6 7 22 16 10 20 18 12 11 3 7 13 6 5
65 61 57 57 54 44 38 30 26 21 16 11 5 5 4 6 6 2 3 4 4 3 4 4 4 7 7 8 6 6 7 7 1 7 4 8 7 8 16 13 12 5 3 3 3 1 5
62 66 62 54 50 40 35 29 24 20 16 11 8 4 6 7 7 2 5 3 3 3 2 2 4 6 4 8 4 8 5 5 6 4 4 3 7 3 3 8 7 7 7 4 3 3 4
54 49 54 48 40 36 30 26 23 19 14 10 5 7 5 5 6 3 4 3 4 3 1 3 3 4 4 3 2 6 4 4 2 1 4 3 5 3 3 1 6 4 6 10 4 6 2
39 41 38 34 36 33 28 24 19 16 13 10 7 5 4 8 8 4 4 3 4 2 3 4 2 0 2 6 6 6 6 3 6 6 8 4 6 2 5 5 7 7 1 1 1 3 5
34 34 35 33 30 30 27 23 18 16 13 11 6 2 4 7 6 4 3 4 3 2 4 4 3 1 4 4 3 5 4 9 6 9 11 7 4 7 8 4 5 2 2 5 3 1 2
29 30 30 28 26 26 24 21 18 16 13 10 6 2 6 6 3 2 2 4 2 3 3 3 3 4 5 2 3 3 4 5 8 13 9 3 3 4 4 11 7 3 5 4 3 3 2
27 26 26 25 24 22 20 18 16 16 15 7 3 2 3 1 3 0 3 0 3 2 2 3 2 5 2 3 2 4 5 7 13 9 4 3 2 6 3 2 3 3 3 4 6 2 4
26 27 26 24 22 20 18 17 16 15 13 5 3 3 3 3 1 4 3 1 2 1 2 2 3 2 2 1 3 4 4 7 15 5 13 1 2 6 4 4 7 5 5 9 6 4 3
23 25 25 23 22 19 17 15 14 12 12 4 2 2 3 2 2 3 2 2 2 1 1 1 2 2 2 2 3 4 4 8 8 4 7 3 5 11 20 16 20 16 4 10 14 9 5
25 25 24 22 20 17 15 14 13 11 10 3 3 4 2 2 4 5 1 4 3 2 3 3 1 5 3 4 7 7 4 2 7 7 6 3 1 3 6 12 25 23 23 18 21 15 11
26 26 23 21 19 18 16 13 12 11 5 4 2 3 3 2 3 4 3 4 3 2 1 2 1 2 2 8 8 16 12 9 9 6 4 3 3 2 4 5 7 14 16 16 16 16 5
27 25 24 23 20 18 15 12 10 11 6 10 5 4 3 1 3 4 4 3 0 0 2 1 2 1 5 9 13 5 5 8 8 6 10 6 5 2 1 2 6 2 11 10 20 15 12
26 23 23 22 19 16 14 13 12 12 12 17 8 3 3 2 1 5 5 3 2 4 3 1 2 3 8 5 4 5 5 4 1 5 8 6 1 2 2 5 5 4 8 6 7 9 12
26 25 22 23 20 16 14 14 13 13 13 15 13 7 4 4 1 1 3 2 1 2 5 3 4 6 5 3 3 3 3 4 4 8 5 6 11 3 2 3 2 4 12 9 6 5 9
27 26 25 24 21 16 15 15 14 15 13 10 9 6 5 3 2 2 2 2 2 2 0 3 6 7 4 3 3 3 2 4 3 5 5 5 4 6 4 3 3 11 12 4 1 1 5
28 27 27 24 19 15 16 15 15 16 14 9 11 8 4 2 2 1 1 2 1 2 2 3 3 3 4 4 2 2 2 2 1 2 4 4 4 4 3 4 3 14 2 3 6 5 5
29 27 27 24 20 18 16 15 15 16 14 11 6 7 6 5 3 2 7 9 3 5 4 2 2 1 2 3 1 1 2 2 2 3 5 4 3 2 5 3 4 6 10 7 4 4 3

GFSGBSN_925_spd_120.txt.gz
Wind_Speed
42 41 41 37 39 34 32 29 29 25 23 19 16 14 11 10 10 11 13 12 13 13 12 14 13 14 7 4 2 6 13 10 6 8 5 2 2 0 3 3 6 5 4 8 7 10 10
46 44 44 41 42 39 34 31 30 26 25 21 16 13 11 11 11 11 12 13 12 11 11 12 10 8 3 3 2 7 11 12 7 3 2 0 2 2 3 4 3 5 11 11 6 9 7
43 49 48 47 45 44 38 36 33 30 25 21 17 13 10 11 10 11 12 12 13 14 15 10 4 3 2 4 4 1 8 8 4 6 2 3 4 2 1 6 4 5 15 17 8 2 4
48 54 43 49 49 47 43 40 38 32 26 21 18 13 9 8 9 10 10 12 16 14 8 5 5 2 4 4 11 9 7 7 5 7 6 8 4 4 3 4 6 5 5 8 2 11 7
48 48 48 53 54 51 47 43 41 34 27 23 18 13 8 6 8 9 8 13 5 5 5 9 5 3 5 8 4 7 6 4 11 5 7 5 5 4 1 2 5 0 10 9 22 1 12
45 52 56 60 55 52 50 46 42 35 28 22 17 12 7 6 6 6 8 4 8 9 12 7 6 2 3 2 4 13 4 6 3 5 4 3 5 2 1 3 12 4 7 6 14 5 15
48 49 53 54 57 56 52 47 41 33 25 19 15 10 8 6 3 2 2 6 3 3 2 3 0 3 4 8 8 4 9 1 1 3 1 3 1 8 11 10 13 8 13 16 17 20 23
54 54 54 58 62 55 53 47 41 35 27 19 14 11 8 4 3 2 5 6 2 1 2 2 3 5 7 2 4 5 3 2 1 5 2 3 10 13 7 7 9 12 12 17 18 20 18
59 61 58 59 58 58 54 49 44 37 28 22 14 12 9 5 9 8 9 5 3 4 3 3 4 3 3 7 4 4 3 2 2 4 4 8 8 4 7 9 8 14 11 14 14 19 15
64 69 64 59 63 60 55 50 46 37 31 22 19 14 10 7 9 9 4 3 6 4 4 2 3 2 2 3 2 4 2 3 1 5 4 7 5 6 6 6 7 11 6 13 15 10 8
48 60 64 63 66 61 58 52 45 36 32 24 18 13 9 15 11 8 6 8 7 1 1 1 3 2 4 3 5 3 2 3 5 5 2 8 4 5 11 17 7 10 8 13 14 10 12
35 47 61 65 66 65 62 53 49 41 32 26 20 15 10 11 8 9 9 7 4 4 4 3 2 4 5 3 2 5 4 3 2 4 4 10 3 3 7 11 7 7 7 12 9 5 7
32 47 60 66 66 64 61 55 50 42 35 28 20 15 13 13 7 10 10 5 2 4 0 2 2 3 1 4 4 3 4 4 2 5 4 7 4 4 4 3 3 4 4 4 3 1 6
32 50 65 67 67 62 58 55 50 40 32 29 24 20 15 9 14 10 7 3 3 3 2 3 3 2 2 6 4 5 5 4 3 1 3 3 6 2 4 5 3 5 6 3 4 3 8
35 60 67 68 64 59 54 51 48 40 32 29 24 15 9 13 13 9 4 3 4 4 4 3 4 4 4 3 0 5 4 0 2 4 2 4 6 2 3 3 5 2 5 11 7 7 6
47 44 52 52 54 58 49 42 43 37 30 26 17 12 7 13 15 5 3 4 3 3 4 3 3 1 1 3 4 5 3 2 3 2 6 3 7 3 1 3 8 12 3 1 1 4 3
36 35 40 40 39 41 42 36 34 32 29 25 11 4 7 14 10 4 4 3 5 4 4 3 3 3 3 3 2 2 4 6 2 6 8 7 5 4 2 6 4 2 3 4 4 5 1
27 28 29 30 33 35 32 34 32 31 28 20 6 4 9 14 3 1 4 4 5 4 4 4 3 3 5 3 1 1 3 2 6 7 10 4 4 4 11 5 5 4 5 5 3 4 2
27 28 28 31 32 32 30 29 29 28 27 10 3 3 3 5 4 1 2 3 3 4 3 4 3 3 2 4 2 3 3 6 7 6 3 5 3 5 6 2 1 3 2 1 2 2 3
24 27 28 28 28 28 25 22 23 25 16 4 4 3 3 2 0 6 5 3 4 3 3 3 3 5 3 2 1 2 3 5 5 3 11 0 2 7 5 7 8 6 6 3 3 3 4
23 23 25 25 24 22 20 19 19 19 14 2 3 2 3 3 1 5 4 3 5 4 3 2 2 3 4 0 3 3 4 6 3 3 5 1 2 2 5 17 14 17 11 10 12 7 4
23 21 21 21 20 19 18 16 15 14 11 2 4 4 2 3 6 7 2 2 5 3 4 0 4 2 5 5 6 4 3 2 3 6 4 1 3 3 3 3 13 20 21 17 16 13 11
20 20 22 21 19 17 15 14 13 13 6 4 3 1 4 2 3 4 4 5 5 5 2 3 3 1 2 7 7 9 8 6 7 4 3 2 4 3 3 11 5 8 15 15 15 16 5
22 21 21 18 19 17 14 13 11 9 3 5 4 3 4 2 4 4 5 3 4 3 5 2 2 1 2 6 8 2 3 6 8 10 7 4 3 2 3 2 5 1 7 9 18 13 10
25 21 20 19 18 16 14 12 10 7 8 13 5 2 3 3 3 5 7 5 4 3 2 2 1 1 5 5 4 2 3 2 2 2 4 2 3 0 2 4 3 2 6 5 5 8 10
23 22 21 20 17 15 15 13 12 12 13 15 12 8 5 6 0 4 4 3 3 1 2 2 3 5 5 2 3 2 1 0 3 7 3 4 10 1 1 2 2 2 9 6 7 3 8
23 23 23 20 17 15 15 13 12 11 9 8 8 8 7 4 0 2 3 4 4 3 1 2 5 6 3 2 2 2 1 2 2 4 5 4 3 6 4 3 3 7 11 3 2 1 7
24 22 24 21 17 14 16 13 13 12 13 8 11 9 5 3 1 2 2 4 3 2 3 2 3 3 3 3 2 1 1 1 2 2 3 3 4 3 2 2 1 12 2 2 5 5 7
27 23 24 21 16 14 16 13 14 12 13 10 7 11 13 4 3 3 3 3 4 6 4 1 4 1 2 3 1 2 1 2 1 1 3 2 2 2 4 2 3 6 9 7 5 4 2